<?xml version="1.0" encoding="UTF-8" standalone="no" ?>
<gpx xmlns="http://www.topografix.com/GPX/1/1" xmlns:xsi="http://www.w3.org/2001/XMLSchema-instance" xsi:schemaLocation="http://www.topografix.com/GPX/1/1 http://www.topografix.com/GPX/1/1/gpx.xsd" version="1.1" creator="VisuGPX - https://www.visugpx.com">
  <metadata>
    <name>TRK-2021-08-21beranger/ Dos de Crêt voland/Verdet</name>
  </metadata>
  <trk>
    <name><![CDATA[TRK-2021-08-21beranger]]></name>
    <trkseg>
      <trkpt lat="45.40784" lon="6.50805">
        <ele>1539.5204</ele>
        <time>2021-08-21T08:25:48</time>
      </trkpt>
      <trkpt lat="45.40784" lon="6.50805">
        <ele>1539.5204</ele>
        <time>2021-08-21T08:25:59</time>
      </trkpt>
      <trkpt lat="45.40784" lon="6.50805">
        <ele>1539.5204</ele>
        <time>2021-08-21T08:26:29</time>
      </trkpt>
      <trkpt lat="45.40784" lon="6.50805">
        <ele>1539.5204</ele>
        <time>2021-08-21T08:26:39</time>
      </trkpt>
      <trkpt lat="45.40774" lon="6.50808">
        <ele>1539.5204</ele>
        <time>2021-08-21T08:26:47</time>
      </trkpt>
      <trkpt lat="45.40766" lon="6.5081">
        <ele>1539.5204</ele>
        <time>2021-08-21T08:26:54</time>
      </trkpt>
      <trkpt lat="45.40763" lon="6.50812">
        <ele>1539.5204</ele>
        <time>2021-08-21T08:26:56</time>
      </trkpt>
      <trkpt lat="45.4076" lon="6.50818">
        <ele>1539.5204</ele>
        <time>2021-08-21T08:27:00</time>
      </trkpt>
      <trkpt lat="45.4076" lon="6.5082">
        <ele>1537.4204</ele>
        <time>2021-08-21T08:27:02</time>
      </trkpt>
      <trkpt lat="45.4076" lon="6.50822">
        <ele>1537.4204</ele>
        <time>2021-08-21T08:27:03</time>
      </trkpt>
      <trkpt lat="45.4076" lon="6.50825">
        <ele>1537.4204</ele>
        <time>2021-08-21T08:27:05</time>
      </trkpt>
      <trkpt lat="45.40759" lon="6.50826">
        <ele>1537.4204</ele>
        <time>2021-08-21T08:27:06</time>
      </trkpt>
      <trkpt lat="45.4076" lon="6.50833">
        <ele>1536.487</ele>
        <time>2021-08-21T08:27:12</time>
      </trkpt>
      <trkpt lat="45.4076" lon="6.50834">
        <ele>1536.487</ele>
        <time>2021-08-21T08:27:14</time>
      </trkpt>
      <trkpt lat="45.4076" lon="6.50835">
        <ele>1536.487</ele>
        <time>2021-08-21T08:27:17</time>
      </trkpt>
      <trkpt lat="45.4076" lon="6.50835">
        <ele>1536.487</ele>
        <time>2021-08-21T08:27:20</time>
      </trkpt>
      <trkpt lat="45.4076" lon="6.50835">
        <ele>1535.8871</ele>
        <time>2021-08-21T08:27:22</time>
      </trkpt>
      <trkpt lat="45.40763" lon="6.50863">
        <ele>1533.6205</ele>
        <time>2021-08-21T08:27:52</time>
      </trkpt>
      <trkpt lat="45.40761" lon="6.50872">
        <ele>1533.7205</ele>
        <time>2021-08-21T08:28:03</time>
      </trkpt>
      <trkpt lat="45.40753" lon="6.50885">
        <ele>1539.2205</ele>
        <time>2021-08-21T08:28:33</time>
      </trkpt>
      <trkpt lat="45.40746" lon="6.50907">
        <ele>1541.6205</ele>
        <time>2021-08-21T08:29:03</time>
      </trkpt>
      <trkpt lat="45.40746" lon="6.50907">
        <ele>1541.6205</ele>
        <time>2021-08-21T08:29:34</time>
      </trkpt>
      <trkpt lat="45.40746" lon="6.50907">
        <ele>1541.6205</ele>
        <time>2021-08-21T08:29:38</time>
      </trkpt>
      <trkpt lat="45.40746" lon="6.50907">
        <ele>1541.6205</ele>
        <time>2021-08-21T08:29:44</time>
      </trkpt>
      <trkpt lat="45.40737" lon="6.50907">
        <ele>1541.6205</ele>
        <time>2021-08-21T08:29:46</time>
      </trkpt>
      <trkpt lat="45.40737" lon="6.50907">
        <ele>1541.6205</ele>
        <time>2021-08-21T08:29:47</time>
      </trkpt>
      <trkpt lat="45.40736" lon="6.50907">
        <ele>1541.6205</ele>
        <time>2021-08-21T08:29:48</time>
      </trkpt>
      <trkpt lat="45.40735" lon="6.50907">
        <ele>1541.6205</ele>
        <time>2021-08-21T08:29:51</time>
      </trkpt>
      <trkpt lat="45.40735" lon="6.50907">
        <ele>1542.0537</ele>
        <time>2021-08-21T08:29:54</time>
      </trkpt>
      <trkpt lat="45.40727" lon="6.50903">
        <ele>1542.0537</ele>
        <time>2021-08-21T08:29:56</time>
      </trkpt>
      <trkpt lat="45.40724" lon="6.50903">
        <ele>1542.0537</ele>
        <time>2021-08-21T08:29:57</time>
      </trkpt>
      <trkpt lat="45.40722" lon="6.50903">
        <ele>1542.0537</ele>
        <time>2021-08-21T08:29:58</time>
      </trkpt>
      <trkpt lat="45.40721" lon="6.50904">
        <ele>1542.0537</ele>
        <time>2021-08-21T08:30:00</time>
      </trkpt>
      <trkpt lat="45.40716" lon="6.50904">
        <ele>1543.6205</ele>
        <time>2021-08-21T08:30:08</time>
      </trkpt>
      <trkpt lat="45.40716" lon="6.50904">
        <ele>1543.9204</ele>
        <time>2021-08-21T08:30:12</time>
      </trkpt>
      <trkpt lat="45.40716" lon="6.50904">
        <ele>1543.9204</ele>
        <time>2021-08-21T08:30:17</time>
      </trkpt>
      <trkpt lat="45.40716" lon="6.50904">
        <ele>1543.9204</ele>
        <time>2021-08-21T08:30:20</time>
      </trkpt>
      <trkpt lat="45.40707" lon="6.50911">
        <ele>1544.6205</ele>
        <time>2021-08-21T08:30:23</time>
      </trkpt>
      <trkpt lat="45.40706" lon="6.50911">
        <ele>1544.6205</ele>
        <time>2021-08-21T08:30:24</time>
      </trkpt>
      <trkpt lat="45.40705" lon="6.50911">
        <ele>1544.6205</ele>
        <time>2021-08-21T08:30:25</time>
      </trkpt>
      <trkpt lat="45.40705" lon="6.50911">
        <ele>1546.3538</ele>
        <time>2021-08-21T08:30:34</time>
      </trkpt>
      <trkpt lat="45.40695" lon="6.50912">
        <ele>1546.3538</ele>
        <time>2021-08-21T08:30:38</time>
      </trkpt>
      <trkpt lat="45.40683" lon="6.50911">
        <ele>1549.0204</ele>
        <time>2021-08-21T08:31:08</time>
      </trkpt>
      <trkpt lat="45.40663" lon="6.50892">
        <ele>1551.2205</ele>
        <time>2021-08-21T08:31:23</time>
      </trkpt>
      <trkpt lat="45.40653" lon="6.50889">
        <ele>1553.7205</ele>
        <time>2021-08-21T08:31:50</time>
      </trkpt>
      <trkpt lat="45.40659" lon="6.509">
        <ele>1554.6205</ele>
        <time>2021-08-21T08:32:20</time>
      </trkpt>
      <trkpt lat="45.40659" lon="6.509">
        <ele>1554.6205</ele>
        <time>2021-08-21T08:32:24</time>
      </trkpt>
      <trkpt lat="45.40659" lon="6.509">
        <ele>1554.6205</ele>
        <time>2021-08-21T08:32:44</time>
      </trkpt>
      <trkpt lat="45.40659" lon="6.509">
        <ele>1554.6205</ele>
        <time>2021-08-21T08:32:48</time>
      </trkpt>
      <trkpt lat="45.40659" lon="6.509">
        <ele>1554.6205</ele>
        <time>2021-08-21T08:32:52</time>
      </trkpt>
      <trkpt lat="45.40659" lon="6.509">
        <ele>1554.6205</ele>
        <time>2021-08-21T08:32:54</time>
      </trkpt>
      <trkpt lat="45.40659" lon="6.509">
        <ele>1554.6205</ele>
        <time>2021-08-21T08:32:59</time>
      </trkpt>
      <trkpt lat="45.40659" lon="6.509">
        <ele>1554.6205</ele>
        <time>2021-08-21T08:33:04</time>
      </trkpt>
      <trkpt lat="45.40659" lon="6.509">
        <ele>1554.6205</ele>
        <time>2021-08-21T08:33:07</time>
      </trkpt>
      <trkpt lat="45.40669" lon="6.50905">
        <ele>1554.6205</ele>
        <time>2021-08-21T08:33:12</time>
      </trkpt>
      <trkpt lat="45.40669" lon="6.50905">
        <ele>1554.6205</ele>
        <time>2021-08-21T08:33:18</time>
      </trkpt>
      <trkpt lat="45.40654" lon="6.5093">
        <ele>1561.2205</ele>
        <time>2021-08-21T08:33:48</time>
      </trkpt>
      <trkpt lat="45.40637" lon="6.50933">
        <ele>1565.0204</ele>
        <time>2021-08-21T08:34:17</time>
      </trkpt>
      <trkpt lat="45.40619" lon="6.50939">
        <ele>1564.7205</ele>
        <time>2021-08-21T08:34:33</time>
      </trkpt>
      <trkpt lat="45.40608" lon="6.50939">
        <ele>1563.4204</ele>
        <time>2021-08-21T08:34:46</time>
      </trkpt>
      <trkpt lat="45.40574" lon="6.5094">
        <ele>1560.8204</ele>
        <time>2021-08-21T08:35:16</time>
      </trkpt>
      <trkpt lat="45.40569" lon="6.5094">
        <ele>1560.8204</ele>
        <time>2021-08-21T08:35:20</time>
      </trkpt>
      <trkpt lat="45.40568" lon="6.50939">
        <ele>1560.8204</ele>
        <time>2021-08-21T08:35:21</time>
      </trkpt>
      <trkpt lat="45.40566" lon="6.50939">
        <ele>1559.8204</ele>
        <time>2021-08-21T08:35:22</time>
      </trkpt>
      <trkpt lat="45.40549" lon="6.50941">
        <ele>1559.6205</ele>
        <time>2021-08-21T08:35:35</time>
      </trkpt>
      <trkpt lat="45.40545" lon="6.50945">
        <ele>1559.6205</ele>
        <time>2021-08-21T08:35:41</time>
      </trkpt>
      <trkpt lat="45.40532" lon="6.50962">
        <ele>1568.3538</ele>
        <time>2021-08-21T08:35:55</time>
      </trkpt>
      <trkpt lat="45.40532" lon="6.50964">
        <ele>1568.3538</ele>
        <time>2021-08-21T08:35:56</time>
      </trkpt>
      <trkpt lat="45.40522" lon="6.5099">
        <ele>1576.2205</ele>
        <time>2021-08-21T08:36:26</time>
      </trkpt>
      <trkpt lat="45.40548" lon="6.51024">
        <ele>1583.487</ele>
        <time>2021-08-21T08:36:56</time>
      </trkpt>
      <trkpt lat="45.40551" lon="6.51059">
        <ele>1588.7205</ele>
        <time>2021-08-21T08:37:26</time>
      </trkpt>
      <trkpt lat="45.40546" lon="6.51082">
        <ele>1591.4204</ele>
        <time>2021-08-21T08:37:56</time>
      </trkpt>
      <trkpt lat="45.40529" lon="6.51099">
        <ele>1593.0204</ele>
        <time>2021-08-21T08:38:26</time>
      </trkpt>
      <trkpt lat="45.40509" lon="6.51108">
        <ele>1591.6205</ele>
        <time>2021-08-21T08:38:56</time>
      </trkpt>
      <trkpt lat="45.40498" lon="6.5114">
        <ele>1591.2205</ele>
        <time>2021-08-21T08:39:26</time>
      </trkpt>
      <trkpt lat="45.4049" lon="6.51168">
        <ele>1591.7205</ele>
        <time>2021-08-21T08:39:56</time>
      </trkpt>
      <trkpt lat="45.40483" lon="6.51196">
        <ele>1591.7205</ele>
        <time>2021-08-21T08:40:26</time>
      </trkpt>
      <trkpt lat="45.40484" lon="6.51217">
        <ele>1586.3204</ele>
        <time>2021-08-21T08:40:56</time>
      </trkpt>
      <trkpt lat="45.40477" lon="6.51249">
        <ele>1582.8204</ele>
        <time>2021-08-21T08:41:26</time>
      </trkpt>
      <trkpt lat="45.40474" lon="6.51271">
        <ele>1584.5204</ele>
        <time>2021-08-21T08:41:56</time>
      </trkpt>
      <trkpt lat="45.40482" lon="6.51302">
        <ele>1584.7205</ele>
        <time>2021-08-21T08:42:26</time>
      </trkpt>
      <trkpt lat="45.40491" lon="6.51328">
        <ele>1586.2205</ele>
        <time>2021-08-21T08:42:56</time>
      </trkpt>
      <trkpt lat="45.40491" lon="6.51328">
        <ele>1586.2205</ele>
        <time>2021-08-21T08:43:03</time>
      </trkpt>
      <trkpt lat="45.40491" lon="6.51328">
        <ele>1588.7205</ele>
        <time>2021-08-21T08:43:21</time>
      </trkpt>
      <trkpt lat="45.40491" lon="6.51328">
        <ele>1588.7205</ele>
        <time>2021-08-21T08:43:23</time>
      </trkpt>
      <trkpt lat="45.40493" lon="6.51341">
        <ele>1588.7205</ele>
        <time>2021-08-21T08:43:25</time>
      </trkpt>
      <trkpt lat="45.40493" lon="6.51343">
        <ele>1588.7205</ele>
        <time>2021-08-21T08:43:27</time>
      </trkpt>
      <trkpt lat="45.40494" lon="6.51343">
        <ele>1588.7205</ele>
        <time>2021-08-21T08:43:34</time>
      </trkpt>
      <trkpt lat="45.40504" lon="6.51371">
        <ele>1595.4204</ele>
        <time>2021-08-21T08:44:04</time>
      </trkpt>
      <trkpt lat="45.40507" lon="6.51386">
        <ele>1599.6205</ele>
        <time>2021-08-21T08:44:34</time>
      </trkpt>
      <trkpt lat="45.405" lon="6.51398">
        <ele>1605.0204</ele>
        <time>2021-08-21T08:45:04</time>
      </trkpt>
      <trkpt lat="45.40492" lon="6.51407">
        <ele>1605.0204</ele>
        <time>2021-08-21T08:45:17</time>
      </trkpt>
      <trkpt lat="45.40487" lon="6.51418">
        <ele>1609.1205</ele>
        <time>2021-08-21T08:45:25</time>
      </trkpt>
      <trkpt lat="45.40487" lon="6.5142">
        <ele>1609.1205</ele>
        <time>2021-08-21T08:45:27</time>
      </trkpt>
      <trkpt lat="45.40486" lon="6.5142">
        <ele>1609.1205</ele>
        <time>2021-08-21T08:45:28</time>
      </trkpt>
      <trkpt lat="45.40485" lon="6.51426">
        <ele>1609.1205</ele>
        <time>2021-08-21T08:45:30</time>
      </trkpt>
      <trkpt lat="45.40479" lon="6.51437">
        <ele>1612.6205</ele>
        <time>2021-08-21T08:45:53</time>
      </trkpt>
      <trkpt lat="45.40478" lon="6.51436">
        <ele>1612.6205</ele>
        <time>2021-08-21T08:45:54</time>
      </trkpt>
      <trkpt lat="45.40477" lon="6.51435">
        <ele>1612.6205</ele>
        <time>2021-08-21T08:45:55</time>
      </trkpt>
      <trkpt lat="45.40477" lon="6.51435">
        <ele>1612.6205</ele>
        <time>2021-08-21T08:45:56</time>
      </trkpt>
      <trkpt lat="45.40477" lon="6.51435">
        <ele>1612.6205</ele>
        <time>2021-08-21T08:46:00</time>
      </trkpt>
      <trkpt lat="45.40475" lon="6.51438">
        <ele>1613.5872</ele>
        <time>2021-08-21T08:46:02</time>
      </trkpt>
      <trkpt lat="45.40475" lon="6.5144">
        <ele>1613.5872</ele>
        <time>2021-08-21T08:46:03</time>
      </trkpt>
      <trkpt lat="45.40452" lon="6.51455">
        <ele>1626.9204</ele>
        <time>2021-08-21T08:46:33</time>
      </trkpt>
      <trkpt lat="45.4044" lon="6.51483">
        <ele>1637.2205</ele>
        <time>2021-08-21T08:47:03</time>
      </trkpt>
      <trkpt lat="45.40448" lon="6.5151">
        <ele>1651.3204</ele>
        <time>2021-08-21T08:47:33</time>
      </trkpt>
      <trkpt lat="45.40458" lon="6.51525">
        <ele>1650.5204</ele>
        <time>2021-08-21T08:48:03</time>
      </trkpt>
      <trkpt lat="45.40465" lon="6.51537">
        <ele>1648.1205</ele>
        <time>2021-08-21T08:48:33</time>
      </trkpt>
      <trkpt lat="45.40482" lon="6.51568">
        <ele>1650.1205</ele>
        <time>2021-08-21T08:49:03</time>
      </trkpt>
      <trkpt lat="45.40494" lon="6.51586">
        <ele>1651.7205</ele>
        <time>2021-08-21T08:49:33</time>
      </trkpt>
      <trkpt lat="45.4051" lon="6.5161">
        <ele>1655.3204</ele>
        <time>2021-08-21T08:50:03</time>
      </trkpt>
      <trkpt lat="45.40518" lon="6.51622">
        <ele>1659.1205</ele>
        <time>2021-08-21T08:50:32</time>
      </trkpt>
      <trkpt lat="45.40535" lon="6.51649">
        <ele>1668.0204</ele>
        <time>2021-08-21T08:51:03</time>
      </trkpt>
      <trkpt lat="45.40549" lon="6.51678">
        <ele>1672.2205</ele>
        <time>2021-08-21T08:51:31</time>
      </trkpt>
      <trkpt lat="45.40571" lon="6.51703">
        <ele>1682.7205</ele>
        <time>2021-08-21T08:52:01</time>
      </trkpt>
      <trkpt lat="45.40582" lon="6.51716">
        <ele>1689.6205</ele>
        <time>2021-08-21T08:52:31</time>
      </trkpt>
      <trkpt lat="45.406" lon="6.51743">
        <ele>1692.5204</ele>
        <time>2021-08-21T08:53:02</time>
      </trkpt>
      <trkpt lat="45.40621" lon="6.51758">
        <ele>1696.5872</ele>
        <time>2021-08-21T08:53:32</time>
      </trkpt>
      <trkpt lat="45.40634" lon="6.51767">
        <ele>1700.0204</ele>
        <time>2021-08-21T08:54:02</time>
      </trkpt>
      <trkpt lat="45.40634" lon="6.51767">
        <ele>1700.0204</ele>
        <time>2021-08-21T08:54:03</time>
      </trkpt>
      <trkpt lat="45.40634" lon="6.51767">
        <ele>1700.0204</ele>
        <time>2021-08-21T08:54:10</time>
      </trkpt>
      <trkpt lat="45.40639" lon="6.51777">
        <ele>1700.0204</ele>
        <time>2021-08-21T08:54:15</time>
      </trkpt>
      <trkpt lat="45.40639" lon="6.51778">
        <ele>1700.0204</ele>
        <time>2021-08-21T08:54:16</time>
      </trkpt>
      <trkpt lat="45.4064" lon="6.5178">
        <ele>1700.0204</ele>
        <time>2021-08-21T08:54:18</time>
      </trkpt>
      <trkpt lat="45.4064" lon="6.5178">
        <ele>1700.0204</ele>
        <time>2021-08-21T08:54:24</time>
      </trkpt>
      <trkpt lat="45.40659" lon="6.51796">
        <ele>1700.7205</ele>
        <time>2021-08-21T08:54:54</time>
      </trkpt>
      <trkpt lat="45.40671" lon="6.51806">
        <ele>1702.1205</ele>
        <time>2021-08-21T08:55:24</time>
      </trkpt>
      <trkpt lat="45.4069" lon="6.51827">
        <ele>1706.0204</ele>
        <time>2021-08-21T08:55:54</time>
      </trkpt>
      <trkpt lat="45.40704" lon="6.51847">
        <ele>1705.7871</ele>
        <time>2021-08-21T08:56:21</time>
      </trkpt>
      <trkpt lat="45.40706" lon="6.51848">
        <ele>1705.5204</ele>
        <time>2021-08-21T08:56:23</time>
      </trkpt>
      <trkpt lat="45.40716" lon="6.51849">
        <ele>1707.0204</ele>
        <time>2021-08-21T08:56:53</time>
      </trkpt>
      <trkpt lat="45.40717" lon="6.51848">
        <ele>1709.0204</ele>
        <time>2021-08-21T08:57:23</time>
      </trkpt>
      <trkpt lat="45.40719" lon="6.51844">
        <ele>1709.0204</ele>
        <time>2021-08-21T08:57:38</time>
      </trkpt>
      <trkpt lat="45.40719" lon="6.51845">
        <ele>1709.0204</ele>
        <time>2021-08-21T08:57:40</time>
      </trkpt>
      <trkpt lat="45.40718" lon="6.51846">
        <ele>1709.9204</ele>
        <time>2021-08-21T08:58:12</time>
      </trkpt>
      <trkpt lat="45.40718" lon="6.51846">
        <ele>1709.9204</ele>
        <time>2021-08-21T08:58:42</time>
      </trkpt>
      <trkpt lat="45.40718" lon="6.51846">
        <ele>1709.9204</ele>
        <time>2021-08-21T08:59:36</time>
      </trkpt>
      <trkpt lat="45.40718" lon="6.51846">
        <ele>1709.9204</ele>
        <time>2021-08-21T09:00:06</time>
      </trkpt>
      <trkpt lat="45.40718" lon="6.51846">
        <ele>1709.9204</ele>
        <time>2021-08-21T09:00:36</time>
      </trkpt>
      <trkpt lat="45.40718" lon="6.51846">
        <ele>1709.9204</ele>
        <time>2021-08-21T09:01:01</time>
      </trkpt>
      <trkpt lat="45.4072" lon="6.51854">
        <ele>1709.9204</ele>
        <time>2021-08-21T09:01:09</time>
      </trkpt>
      <trkpt lat="45.40723" lon="6.51851">
        <ele>1709.9204</ele>
        <time>2021-08-21T09:01:12</time>
      </trkpt>
      <trkpt lat="45.40723" lon="6.51849">
        <ele>1709.9204</ele>
        <time>2021-08-21T09:01:13</time>
      </trkpt>
      <trkpt lat="45.40727" lon="6.51857">
        <ele>1709.9204</ele>
        <time>2021-08-21T09:01:21</time>
      </trkpt>
      <trkpt lat="45.40727" lon="6.51859">
        <ele>1712.9204</ele>
        <time>2021-08-21T09:01:23</time>
      </trkpt>
      <trkpt lat="45.40727" lon="6.5186">
        <ele>1712.9204</ele>
        <time>2021-08-21T09:01:27</time>
      </trkpt>
      <trkpt lat="45.4073" lon="6.51879">
        <ele>1716.8204</ele>
        <time>2021-08-21T09:01:57</time>
      </trkpt>
      <trkpt lat="45.40738" lon="6.5187">
        <ele>1718.9204</ele>
        <time>2021-08-21T09:02:26</time>
      </trkpt>
      <trkpt lat="45.40738" lon="6.5187">
        <ele>1718.9204</ele>
        <time>2021-08-21T09:02:28</time>
      </trkpt>
      <trkpt lat="45.40742" lon="6.51883">
        <ele>1718.9204</ele>
        <time>2021-08-21T09:02:30</time>
      </trkpt>
      <trkpt lat="45.40742" lon="6.51885">
        <ele>1718.9204</ele>
        <time>2021-08-21T09:02:36</time>
      </trkpt>
      <trkpt lat="45.40742" lon="6.51885">
        <ele>1718.6205</ele>
        <time>2021-08-21T09:02:42</time>
      </trkpt>
      <trkpt lat="45.40758" lon="6.51904">
        <ele>1717.6205</ele>
        <time>2021-08-21T09:03:12</time>
      </trkpt>
      <trkpt lat="45.40778" lon="6.51916">
        <ele>1718.8204</ele>
        <time>2021-08-21T09:03:42</time>
      </trkpt>
      <trkpt lat="45.40789" lon="6.51926">
        <ele>1723.8204</ele>
        <time>2021-08-21T09:04:12</time>
      </trkpt>
      <trkpt lat="45.4081" lon="6.51936">
        <ele>1728.5204</ele>
        <time>2021-08-21T09:04:42</time>
      </trkpt>
      <trkpt lat="45.40818" lon="6.51941">
        <ele>1734.3204</ele>
        <time>2021-08-21T09:05:12</time>
      </trkpt>
      <trkpt lat="45.40837" lon="6.51955">
        <ele>1740.8204</ele>
        <time>2021-08-21T09:05:42</time>
      </trkpt>
      <trkpt lat="45.40858" lon="6.51961">
        <ele>1742.0204</ele>
        <time>2021-08-21T09:06:12</time>
      </trkpt>
      <trkpt lat="45.40859" lon="6.51963">
        <ele>1742.4204</ele>
        <time>2021-08-21T09:06:36</time>
      </trkpt>
      <trkpt lat="45.40859" lon="6.51963">
        <ele>1742.4204</ele>
        <time>2021-08-21T09:06:42</time>
      </trkpt>
      <trkpt lat="45.40864" lon="6.51974">
        <ele>1742.4204</ele>
        <time>2021-08-21T09:06:43</time>
      </trkpt>
      <trkpt lat="45.40864" lon="6.51975">
        <ele>1742.4204</ele>
        <time>2021-08-21T09:06:44</time>
      </trkpt>
      <trkpt lat="45.40865" lon="6.51975">
        <ele>1742.4204</ele>
        <time>2021-08-21T09:06:45</time>
      </trkpt>
      <trkpt lat="45.40865" lon="6.51975">
        <ele>1744.8871</ele>
        <time>2021-08-21T09:06:56</time>
      </trkpt>
      <trkpt lat="45.40887" lon="6.51986">
        <ele>1750.5204</ele>
        <time>2021-08-21T09:07:26</time>
      </trkpt>
      <trkpt lat="45.40906" lon="6.51994">
        <ele>1756.1205</ele>
        <time>2021-08-21T09:07:56</time>
      </trkpt>
      <trkpt lat="45.40915" lon="6.52011">
        <ele>1760.5204</ele>
        <time>2021-08-21T09:08:24</time>
      </trkpt>
      <trkpt lat="45.40916" lon="6.52012">
        <ele>1760.5204</ele>
        <time>2021-08-21T09:08:35</time>
      </trkpt>
      <trkpt lat="45.40916" lon="6.52012">
        <ele>1760.1205</ele>
        <time>2021-08-21T09:08:47</time>
      </trkpt>
      <trkpt lat="45.40925" lon="6.52022">
        <ele>1760.1205</ele>
        <time>2021-08-21T09:08:51</time>
      </trkpt>
      <trkpt lat="45.40925" lon="6.52035">
        <ele>1761.7205</ele>
        <time>2021-08-21T09:09:21</time>
      </trkpt>
      <trkpt lat="45.40925" lon="6.52038">
        <ele>1764.6205</ele>
        <time>2021-08-21T09:09:51</time>
      </trkpt>
      <trkpt lat="45.40934" lon="6.52045">
        <ele>1764.6205</ele>
        <time>2021-08-21T09:09:54</time>
      </trkpt>
      <trkpt lat="45.40934" lon="6.52046">
        <ele>1765.9537</ele>
        <time>2021-08-21T09:10:02</time>
      </trkpt>
      <trkpt lat="45.4093" lon="6.52042">
        <ele>1765.9537</ele>
        <time>2021-08-21T09:10:03</time>
      </trkpt>
      <trkpt lat="45.4093" lon="6.52043">
        <ele>1765.9537</ele>
        <time>2021-08-21T09:10:04</time>
      </trkpt>
      <trkpt lat="45.40929" lon="6.52043">
        <ele>1770.2538</ele>
        <time>2021-08-21T09:10:19</time>
      </trkpt>
      <trkpt lat="45.40938" lon="6.52046">
        <ele>1770.5204</ele>
        <time>2021-08-21T09:10:25</time>
      </trkpt>
      <trkpt lat="45.40939" lon="6.52046">
        <ele>1770.5204</ele>
        <time>2021-08-21T09:10:26</time>
      </trkpt>
      <trkpt lat="45.4094" lon="6.52046">
        <ele>1770.5204</ele>
        <time>2021-08-21T09:10:27</time>
      </trkpt>
      <trkpt lat="45.40941" lon="6.52047">
        <ele>1770.5204</ele>
        <time>2021-08-21T09:10:28</time>
      </trkpt>
      <trkpt lat="45.40946" lon="6.52051">
        <ele>1775.1205</ele>
        <time>2021-08-21T09:10:34</time>
      </trkpt>
      <trkpt lat="45.40947" lon="6.52052">
        <ele>1775.1205</ele>
        <time>2021-08-21T09:10:35</time>
      </trkpt>
      <trkpt lat="45.4095" lon="6.52054">
        <ele>1775.1205</ele>
        <time>2021-08-21T09:10:38</time>
      </trkpt>
      <trkpt lat="45.4095" lon="6.52054">
        <ele>1777.6205</ele>
        <time>2021-08-21T09:10:45</time>
      </trkpt>
      <trkpt lat="45.4095" lon="6.52054">
        <ele>1778.3204</ele>
        <time>2021-08-21T09:10:54</time>
      </trkpt>
      <trkpt lat="45.40958" lon="6.52061">
        <ele>1778.3204</ele>
        <time>2021-08-21T09:11:01</time>
      </trkpt>
      <trkpt lat="45.4096" lon="6.52063">
        <ele>1778.3204</ele>
        <time>2021-08-21T09:11:08</time>
      </trkpt>
      <trkpt lat="45.4096" lon="6.52063">
        <ele>1779.5537</ele>
        <time>2021-08-21T09:11:14</time>
      </trkpt>
      <trkpt lat="45.40969" lon="6.52069">
        <ele>1779.5537</ele>
        <time>2021-08-21T09:11:18</time>
      </trkpt>
      <trkpt lat="45.4097" lon="6.52069">
        <ele>1779.5537</ele>
        <time>2021-08-21T09:11:19</time>
      </trkpt>
      <trkpt lat="45.4098" lon="6.52078">
        <ele>1778.7205</ele>
        <time>2021-08-21T09:11:49</time>
      </trkpt>
      <trkpt lat="45.4098" lon="6.52078">
        <ele>1778.7205</ele>
        <time>2021-08-21T09:11:50</time>
      </trkpt>
      <trkpt lat="45.40989" lon="6.52079">
        <ele>1779.4204</ele>
        <time>2021-08-21T09:12:03</time>
      </trkpt>
      <trkpt lat="45.41001" lon="6.52087">
        <ele>1782.1205</ele>
        <time>2021-08-21T09:12:33</time>
      </trkpt>
      <trkpt lat="45.41021" lon="6.52094">
        <ele>1783.8204</ele>
        <time>2021-08-21T09:13:03</time>
      </trkpt>
      <trkpt lat="45.41039" lon="6.52103">
        <ele>1791.9537</ele>
        <time>2021-08-21T09:13:33</time>
      </trkpt>
      <trkpt lat="45.41061" lon="6.52111">
        <ele>1793.1205</ele>
        <time>2021-08-21T09:13:59</time>
      </trkpt>
      <trkpt lat="45.41086" lon="6.52125">
        <ele>1798.5204</ele>
        <time>2021-08-21T09:14:29</time>
      </trkpt>
      <trkpt lat="45.41107" lon="6.52142">
        <ele>1797.1205</ele>
        <time>2021-08-21T09:14:59</time>
      </trkpt>
      <trkpt lat="45.41121" lon="6.52146">
        <ele>1796.6205</ele>
        <time>2021-08-21T09:15:29</time>
      </trkpt>
      <trkpt lat="45.41121" lon="6.52146">
        <ele>1798.4204</ele>
        <time>2021-08-21T09:15:42</time>
      </trkpt>
      <trkpt lat="45.41129" lon="6.52154">
        <ele>1798.4204</ele>
        <time>2021-08-21T09:15:45</time>
      </trkpt>
      <trkpt lat="45.4113" lon="6.52155">
        <ele>1799.0204</ele>
        <time>2021-08-21T09:16:02</time>
      </trkpt>
      <trkpt lat="45.4113" lon="6.52155">
        <ele>1799.0204</ele>
        <time>2021-08-21T09:16:08</time>
      </trkpt>
      <trkpt lat="45.4113" lon="6.52155">
        <ele>1799.0204</ele>
        <time>2021-08-21T09:16:21</time>
      </trkpt>
      <trkpt lat="45.41139" lon="6.52156">
        <ele>1799.0204</ele>
        <time>2021-08-21T09:16:40</time>
      </trkpt>
      <trkpt lat="45.41145" lon="6.52172">
        <ele>1800.8204</ele>
        <time>2021-08-21T09:17:10</time>
      </trkpt>
      <trkpt lat="45.41145" lon="6.52172">
        <ele>1801.0204</ele>
        <time>2021-08-21T09:17:27</time>
      </trkpt>
      <trkpt lat="45.41145" lon="6.52172">
        <ele>1801.0204</ele>
        <time>2021-08-21T09:17:39</time>
      </trkpt>
      <trkpt lat="45.41145" lon="6.52172">
        <ele>1801.0204</ele>
        <time>2021-08-21T09:17:43</time>
      </trkpt>
      <trkpt lat="45.41145" lon="6.52172">
        <ele>1801.0204</ele>
        <time>2021-08-21T09:17:51</time>
      </trkpt>
      <trkpt lat="45.41152" lon="6.52182">
        <ele>1801.0204</ele>
        <time>2021-08-21T09:17:56</time>
      </trkpt>
      <trkpt lat="45.41154" lon="6.52183">
        <ele>1801.0204</ele>
        <time>2021-08-21T09:17:58</time>
      </trkpt>
      <trkpt lat="45.41159" lon="6.52183">
        <ele>1801.0204</ele>
        <time>2021-08-21T09:18:01</time>
      </trkpt>
      <trkpt lat="45.41159" lon="6.52183">
        <ele>1802.1205</ele>
        <time>2021-08-21T09:18:02</time>
      </trkpt>
      <trkpt lat="45.4116" lon="6.52183">
        <ele>1802.1205</ele>
        <time>2021-08-21T09:18:03</time>
      </trkpt>
      <trkpt lat="45.4117" lon="6.52183">
        <ele>1803.8538</ele>
        <time>2021-08-21T09:18:19</time>
      </trkpt>
      <trkpt lat="45.41171" lon="6.52183">
        <ele>1803.8538</ele>
        <time>2021-08-21T09:18:20</time>
      </trkpt>
      <trkpt lat="45.4118" lon="6.52179">
        <ele>1803.9204</ele>
        <time>2021-08-21T09:18:29</time>
      </trkpt>
      <trkpt lat="45.41182" lon="6.52176">
        <ele>1805.3204</ele>
        <time>2021-08-21T09:18:32</time>
      </trkpt>
      <trkpt lat="45.41183" lon="6.52176">
        <ele>1805.3204</ele>
        <time>2021-08-21T09:18:33</time>
      </trkpt>
      <trkpt lat="45.41186" lon="6.52167">
        <ele>1805.3204</ele>
        <time>2021-08-21T09:18:40</time>
      </trkpt>
      <trkpt lat="45.41186" lon="6.52166">
        <ele>1805.3204</ele>
        <time>2021-08-21T09:18:41</time>
      </trkpt>
      <trkpt lat="45.41189" lon="6.52161">
        <ele>1806.2538</ele>
        <time>2021-08-21T09:18:45</time>
      </trkpt>
      <trkpt lat="45.4119" lon="6.52161">
        <ele>1806.2538</ele>
        <time>2021-08-21T09:18:46</time>
      </trkpt>
      <trkpt lat="45.4119" lon="6.52159">
        <ele>1806.2538</ele>
        <time>2021-08-21T09:18:47</time>
      </trkpt>
      <trkpt lat="45.41192" lon="6.52157">
        <ele>1806.2538</ele>
        <time>2021-08-21T09:18:49</time>
      </trkpt>
      <trkpt lat="45.41193" lon="6.52154">
        <ele>1806.2538</ele>
        <time>2021-08-21T09:18:51</time>
      </trkpt>
      <trkpt lat="45.41193" lon="6.52153">
        <ele>1807.3204</ele>
        <time>2021-08-21T09:18:52</time>
      </trkpt>
      <trkpt lat="45.41196" lon="6.52145">
        <ele>1807.3204</ele>
        <time>2021-08-21T09:19:00</time>
      </trkpt>
      <trkpt lat="45.41197" lon="6.52142">
        <ele>1808.8204</ele>
        <time>2021-08-21T09:19:02</time>
      </trkpt>
      <trkpt lat="45.41197" lon="6.52141">
        <ele>1808.8204</ele>
        <time>2021-08-21T09:19:03</time>
      </trkpt>
      <trkpt lat="45.41197" lon="6.52138">
        <ele>1808.8204</ele>
        <time>2021-08-21T09:19:05</time>
      </trkpt>
      <trkpt lat="45.41197" lon="6.52134">
        <ele>1808.8204</ele>
        <time>2021-08-21T09:19:07</time>
      </trkpt>
      <trkpt lat="45.41197" lon="6.5213">
        <ele>1808.8204</ele>
        <time>2021-08-21T09:19:10</time>
      </trkpt>
      <trkpt lat="45.41197" lon="6.5213">
        <ele>1811.1205</ele>
        <time>2021-08-21T09:19:22</time>
      </trkpt>
      <trkpt lat="45.41201" lon="6.52096">
        <ele>1812.987</ele>
        <time>2021-08-21T09:19:52</time>
      </trkpt>
      <trkpt lat="45.41208" lon="6.52072">
        <ele>1817.8538</ele>
        <time>2021-08-21T09:20:22</time>
      </trkpt>
      <trkpt lat="45.4122" lon="6.52045">
        <ele>1819.6205</ele>
        <time>2021-08-21T09:20:52</time>
      </trkpt>
      <trkpt lat="45.41224" lon="6.5203">
        <ele>1823.5204</ele>
        <time>2021-08-21T09:21:22</time>
      </trkpt>
      <trkpt lat="45.41231" lon="6.52022">
        <ele>1823.5204</ele>
        <time>2021-08-21T09:21:28</time>
      </trkpt>
      <trkpt lat="45.41232" lon="6.52022">
        <ele>1823.5204</ele>
        <time>2021-08-21T09:21:31</time>
      </trkpt>
      <trkpt lat="45.41237" lon="6.5201">
        <ele>1825.2205</ele>
        <time>2021-08-21T09:21:46</time>
      </trkpt>
      <trkpt lat="45.41237" lon="6.52009">
        <ele>1825.2205</ele>
        <time>2021-08-21T09:21:48</time>
      </trkpt>
      <trkpt lat="45.41237" lon="6.52008">
        <ele>1825.2205</ele>
        <time>2021-08-21T09:21:49</time>
      </trkpt>
      <trkpt lat="45.41234" lon="6.51996">
        <ele>1827.4204</ele>
        <time>2021-08-21T09:22:02</time>
      </trkpt>
      <trkpt lat="45.41234" lon="6.51994">
        <ele>1827.4204</ele>
        <time>2021-08-21T09:22:05</time>
      </trkpt>
      <trkpt lat="45.4123" lon="6.51982">
        <ele>1827.7538</ele>
        <time>2021-08-21T09:22:18</time>
      </trkpt>
      <trkpt lat="45.4123" lon="6.51981">
        <ele>1827.7538</ele>
        <time>2021-08-21T09:22:19</time>
      </trkpt>
      <trkpt lat="45.4123" lon="6.5198">
        <ele>1827.7538</ele>
        <time>2021-08-21T09:22:20</time>
      </trkpt>
      <trkpt lat="45.41226" lon="6.51966">
        <ele>1828.4204</ele>
        <time>2021-08-21T09:22:38</time>
      </trkpt>
      <trkpt lat="45.41222" lon="6.51951">
        <ele>1828.7205</ele>
        <time>2021-08-21T09:23:01</time>
      </trkpt>
      <trkpt lat="45.41222" lon="6.5195">
        <ele>1828.7205</ele>
        <time>2021-08-21T09:23:02</time>
      </trkpt>
      <trkpt lat="45.4122" lon="6.51937">
        <ele>1829.6205</ele>
        <time>2021-08-21T09:23:19</time>
      </trkpt>
      <trkpt lat="45.4122" lon="6.51936">
        <ele>1829.6205</ele>
        <time>2021-08-21T09:23:20</time>
      </trkpt>
      <trkpt lat="45.4122" lon="6.51935">
        <ele>1829.6205</ele>
        <time>2021-08-21T09:23:22</time>
      </trkpt>
      <trkpt lat="45.41216" lon="6.51922">
        <ele>1831.7205</ele>
        <time>2021-08-21T09:23:33</time>
      </trkpt>
      <trkpt lat="45.41214" lon="6.51906">
        <ele>1832.6205</ele>
        <time>2021-08-21T09:23:52</time>
      </trkpt>
      <trkpt lat="45.41214" lon="6.51906">
        <ele>1832.6205</ele>
        <time>2021-08-21T09:23:53</time>
      </trkpt>
      <trkpt lat="45.41215" lon="6.51905">
        <ele>1835.4204</ele>
        <time>2021-08-21T09:24:18</time>
      </trkpt>
      <trkpt lat="45.41215" lon="6.51905">
        <ele>1835.4204</ele>
        <time>2021-08-21T09:24:22</time>
      </trkpt>
      <trkpt lat="45.41215" lon="6.51905">
        <ele>1835.4204</ele>
        <time>2021-08-21T09:24:24</time>
      </trkpt>
      <trkpt lat="45.41215" lon="6.51905">
        <ele>1835.4204</ele>
        <time>2021-08-21T09:24:30</time>
      </trkpt>
      <trkpt lat="45.41208" lon="6.51877">
        <ele>1842.3204</ele>
        <time>2021-08-21T09:24:58</time>
      </trkpt>
      <trkpt lat="45.41208" lon="6.51877">
        <ele>1842.3204</ele>
        <time>2021-08-21T09:24:59</time>
      </trkpt>
      <trkpt lat="45.41207" lon="6.51876">
        <ele>1842.3204</ele>
        <time>2021-08-21T09:25:00</time>
      </trkpt>
      <trkpt lat="45.41207" lon="6.51875">
        <ele>1842.5204</ele>
        <time>2021-08-21T09:25:09</time>
      </trkpt>
      <trkpt lat="45.41206" lon="6.51863">
        <ele>1843.8204</ele>
        <time>2021-08-21T09:25:14</time>
      </trkpt>
      <trkpt lat="45.41206" lon="6.51862">
        <ele>1843.8204</ele>
        <time>2021-08-21T09:25:16</time>
      </trkpt>
      <trkpt lat="45.41213" lon="6.51848">
        <ele>1845.5204</ele>
        <time>2021-08-21T09:25:33</time>
      </trkpt>
      <trkpt lat="45.41225" lon="6.51848">
        <ele>1847.9204</ele>
        <time>2021-08-21T09:26:03</time>
      </trkpt>
      <trkpt lat="45.41235" lon="6.51842">
        <ele>1848.7205</ele>
        <time>2021-08-21T09:26:23</time>
      </trkpt>
      <trkpt lat="45.41241" lon="6.51832">
        <ele>1848.7205</ele>
        <time>2021-08-21T09:26:28</time>
      </trkpt>
      <trkpt lat="45.41242" lon="6.51832">
        <ele>1848.7205</ele>
        <time>2021-08-21T09:26:29</time>
      </trkpt>
      <trkpt lat="45.41241" lon="6.5183">
        <ele>1850.3204</ele>
        <time>2021-08-21T09:26:45</time>
      </trkpt>
      <trkpt lat="45.41248" lon="6.5182">
        <ele>1850.3204</ele>
        <time>2021-08-21T09:26:49</time>
      </trkpt>
      <trkpt lat="45.41249" lon="6.51819">
        <ele>1850.3204</ele>
        <time>2021-08-21T09:26:54</time>
      </trkpt>
      <trkpt lat="45.41249" lon="6.51819">
        <ele>1850.3204</ele>
        <time>2021-08-21T09:26:56</time>
      </trkpt>
      <trkpt lat="45.41249" lon="6.51819">
        <ele>1850.3204</ele>
        <time>2021-08-21T09:26:58</time>
      </trkpt>
      <trkpt lat="45.41249" lon="6.51819">
        <ele>1850.3204</ele>
        <time>2021-08-21T09:27:00</time>
      </trkpt>
      <trkpt lat="45.41249" lon="6.51819">
        <ele>1853.2205</ele>
        <time>2021-08-21T09:27:05</time>
      </trkpt>
      <trkpt lat="45.41249" lon="6.51819">
        <ele>1853.2205</ele>
        <time>2021-08-21T09:27:09</time>
      </trkpt>
      <trkpt lat="45.41251" lon="6.51806">
        <ele>1853.2205</ele>
        <time>2021-08-21T09:27:13</time>
      </trkpt>
      <trkpt lat="45.41252" lon="6.51805">
        <ele>1853.2205</ele>
        <time>2021-08-21T09:27:14</time>
      </trkpt>
      <trkpt lat="45.41254" lon="6.51807">
        <ele>1853.2205</ele>
        <time>2021-08-21T09:27:19</time>
      </trkpt>
      <trkpt lat="45.41254" lon="6.51807">
        <ele>1853.2205</ele>
        <time>2021-08-21T09:27:21</time>
      </trkpt>
      <trkpt lat="45.41254" lon="6.51807">
        <ele>1851.9204</ele>
        <time>2021-08-21T09:27:24</time>
      </trkpt>
      <trkpt lat="45.41254" lon="6.51807">
        <ele>1851.9204</ele>
        <time>2021-08-21T09:27:28</time>
      </trkpt>
      <trkpt lat="45.41254" lon="6.51807">
        <ele>1851.9204</ele>
        <time>2021-08-21T09:27:31</time>
      </trkpt>
      <trkpt lat="45.41261" lon="6.518">
        <ele>1851.9204</ele>
        <time>2021-08-21T09:27:34</time>
      </trkpt>
      <trkpt lat="45.41262" lon="6.51798">
        <ele>1851.9204</ele>
        <time>2021-08-21T09:27:41</time>
      </trkpt>
      <trkpt lat="45.41262" lon="6.51798">
        <ele>1851.9204</ele>
        <time>2021-08-21T09:27:43</time>
      </trkpt>
      <trkpt lat="45.41262" lon="6.51798">
        <ele>1851.5204</ele>
        <time>2021-08-21T09:28:00</time>
      </trkpt>
      <trkpt lat="45.4127" lon="6.51804">
        <ele>1851.5204</ele>
        <time>2021-08-21T09:28:13</time>
      </trkpt>
      <trkpt lat="45.41271" lon="6.51805">
        <ele>1851.5204</ele>
        <time>2021-08-21T09:28:15</time>
      </trkpt>
      <trkpt lat="45.41271" lon="6.51805">
        <ele>1857.3204</ele>
        <time>2021-08-21T09:28:30</time>
      </trkpt>
      <trkpt lat="45.41271" lon="6.51805">
        <ele>1857.3204</ele>
        <time>2021-08-21T09:28:32</time>
      </trkpt>
      <trkpt lat="45.41279" lon="6.51812">
        <ele>1857.3204</ele>
        <time>2021-08-21T09:28:37</time>
      </trkpt>
      <trkpt lat="45.4128" lon="6.51814">
        <ele>1857.3204</ele>
        <time>2021-08-21T09:28:40</time>
      </trkpt>
      <trkpt lat="45.41279" lon="6.51815">
        <ele>1857.3204</ele>
        <time>2021-08-21T09:28:42</time>
      </trkpt>
      <trkpt lat="45.41279" lon="6.51815">
        <ele>1860.1205</ele>
        <time>2021-08-21T09:28:52</time>
      </trkpt>
      <trkpt lat="45.41279" lon="6.51815">
        <ele>1860.1205</ele>
        <time>2021-08-21T09:29:00</time>
      </trkpt>
      <trkpt lat="45.41288" lon="6.51813">
        <ele>1860.1205</ele>
        <time>2021-08-21T09:29:18</time>
      </trkpt>
      <trkpt lat="45.41289" lon="6.51813">
        <ele>1860.1205</ele>
        <time>2021-08-21T09:29:20</time>
      </trkpt>
      <trkpt lat="45.41288" lon="6.51814">
        <ele>1860.1205</ele>
        <time>2021-08-21T09:29:21</time>
      </trkpt>
      <trkpt lat="45.41288" lon="6.51814">
        <ele>1860.6538</ele>
        <time>2021-08-21T09:29:26</time>
      </trkpt>
      <trkpt lat="45.41288" lon="6.51814">
        <ele>1860.9204</ele>
        <time>2021-08-21T09:29:39</time>
      </trkpt>
      <trkpt lat="45.41288" lon="6.51814">
        <ele>1860.9204</ele>
        <time>2021-08-21T09:30:03</time>
      </trkpt>
      <trkpt lat="45.41288" lon="6.51814">
        <ele>1860.9204</ele>
        <time>2021-08-21T09:30:32</time>
      </trkpt>
      <trkpt lat="45.41288" lon="6.51814">
        <ele>1860.9204</ele>
        <time>2021-08-21T09:30:34</time>
      </trkpt>
      <trkpt lat="45.41288" lon="6.51814">
        <ele>1860.9204</ele>
        <time>2021-08-21T09:30:39</time>
      </trkpt>
      <trkpt lat="45.41298" lon="6.51815">
        <ele>1860.9204</ele>
        <time>2021-08-21T09:30:53</time>
      </trkpt>
      <trkpt lat="45.41298" lon="6.51815">
        <ele>1860.9204</ele>
        <time>2021-08-21T09:31:01</time>
      </trkpt>
      <trkpt lat="45.41298" lon="6.51815">
        <ele>1860.8204</ele>
        <time>2021-08-21T09:31:17</time>
      </trkpt>
      <trkpt lat="45.41298" lon="6.51815">
        <ele>1860.8204</ele>
        <time>2021-08-21T09:31:47</time>
      </trkpt>
      <trkpt lat="45.41298" lon="6.51815">
        <ele>1860.8204</ele>
        <time>2021-08-21T09:31:51</time>
      </trkpt>
      <trkpt lat="45.41301" lon="6.51803">
        <ele>1860.8204</ele>
        <time>2021-08-21T09:31:58</time>
      </trkpt>
      <trkpt lat="45.41301" lon="6.51801">
        <ele>1860.8204</ele>
        <time>2021-08-21T09:31:59</time>
      </trkpt>
      <trkpt lat="45.41302" lon="6.51799">
        <ele>1861.1205</ele>
        <time>2021-08-21T09:32:15</time>
      </trkpt>
      <trkpt lat="45.41304" lon="6.51785">
        <ele>1861.1205</ele>
        <time>2021-08-21T09:32:18</time>
      </trkpt>
      <trkpt lat="45.41305" lon="6.5177">
        <ele>1860.8204</ele>
        <time>2021-08-21T09:32:33</time>
      </trkpt>
      <trkpt lat="45.41305" lon="6.5177">
        <ele>1860.8204</ele>
        <time>2021-08-21T09:32:35</time>
      </trkpt>
      <trkpt lat="45.41303" lon="6.51765">
        <ele>1860.8204</ele>
        <time>2021-08-21T09:32:37</time>
      </trkpt>
      <trkpt lat="45.41303" lon="6.51764">
        <ele>1860.8204</ele>
        <time>2021-08-21T09:32:38</time>
      </trkpt>
      <trkpt lat="45.41306" lon="6.51764">
        <ele>1860.8538</ele>
        <time>2021-08-21T09:33:29</time>
      </trkpt>
      <trkpt lat="45.41306" lon="6.51764">
        <ele>1862.7205</ele>
        <time>2021-08-21T09:34:00</time>
      </trkpt>
      <trkpt lat="45.41306" lon="6.51764">
        <ele>1862.7205</ele>
        <time>2021-08-21T09:34:03</time>
      </trkpt>
      <trkpt lat="45.41307" lon="6.51775">
        <ele>1862.7205</ele>
        <time>2021-08-21T09:34:35</time>
      </trkpt>
      <trkpt lat="45.41306" lon="6.51779">
        <ele>1862.7205</ele>
        <time>2021-08-21T09:34:37</time>
      </trkpt>
      <trkpt lat="45.41305" lon="6.5178">
        <ele>1862.7205</ele>
        <time>2021-08-21T09:34:38</time>
      </trkpt>
      <trkpt lat="45.41305" lon="6.5178">
        <ele>1862.7205</ele>
        <time>2021-08-21T09:34:39</time>
      </trkpt>
      <trkpt lat="45.41305" lon="6.51781">
        <ele>1862.7205</ele>
        <time>2021-08-21T09:34:40</time>
      </trkpt>
      <trkpt lat="45.41302" lon="6.51795">
        <ele>1867.2205</ele>
        <time>2021-08-21T09:34:52</time>
      </trkpt>
      <trkpt lat="45.41301" lon="6.51797">
        <ele>1867.2205</ele>
        <time>2021-08-21T09:34:55</time>
      </trkpt>
      <trkpt lat="45.413" lon="6.51799">
        <ele>1867.2205</ele>
        <time>2021-08-21T09:34:58</time>
      </trkpt>
      <trkpt lat="45.41298" lon="6.51799">
        <ele>1867.2205</ele>
        <time>2021-08-21T09:35:01</time>
      </trkpt>
      <trkpt lat="45.41298" lon="6.51812">
        <ele>1866.4204</ele>
        <time>2021-08-21T09:35:19</time>
      </trkpt>
      <trkpt lat="45.41299" lon="6.51814">
        <ele>1866.4204</ele>
        <time>2021-08-21T09:35:21</time>
      </trkpt>
      <trkpt lat="45.413" lon="6.51814">
        <ele>1866.4204</ele>
        <time>2021-08-21T09:35:22</time>
      </trkpt>
      <trkpt lat="45.41309" lon="6.5181">
        <ele>1866.1205</ele>
        <time>2021-08-21T09:35:46</time>
      </trkpt>
      <trkpt lat="45.41311" lon="6.5181">
        <ele>1866.1205</ele>
        <time>2021-08-21T09:35:53</time>
      </trkpt>
      <trkpt lat="45.4132" lon="6.51805">
        <ele>1867.8204</ele>
        <time>2021-08-21T09:36:05</time>
      </trkpt>
      <trkpt lat="45.41321" lon="6.51804">
        <ele>1867.8204</ele>
        <time>2021-08-21T09:36:07</time>
      </trkpt>
      <trkpt lat="45.4133" lon="6.51801">
        <ele>1867.8204</ele>
        <time>2021-08-21T09:36:30</time>
      </trkpt>
      <trkpt lat="45.41331" lon="6.51802">
        <ele>1867.8204</ele>
        <time>2021-08-21T09:36:31</time>
      </trkpt>
      <trkpt lat="45.41331" lon="6.51803">
        <ele>1867.8204</ele>
        <time>2021-08-21T09:36:32</time>
      </trkpt>
      <trkpt lat="45.41343" lon="6.51804">
        <ele>1870.7205</ele>
        <time>2021-08-21T09:36:53</time>
      </trkpt>
      <trkpt lat="45.41343" lon="6.51804">
        <ele>1873.6205</ele>
        <time>2021-08-21T09:37:12</time>
      </trkpt>
      <trkpt lat="45.41353" lon="6.51805">
        <ele>1873.6205</ele>
        <time>2021-08-21T09:37:13</time>
      </trkpt>
      <trkpt lat="45.41354" lon="6.51805">
        <ele>1873.6205</ele>
        <time>2021-08-21T09:37:15</time>
      </trkpt>
      <trkpt lat="45.41355" lon="6.51806">
        <ele>1874.8871</ele>
        <time>2021-08-21T09:37:29</time>
      </trkpt>
      <trkpt lat="45.41365" lon="6.51813">
        <ele>1878.0204</ele>
        <time>2021-08-21T09:37:37</time>
      </trkpt>
      <trkpt lat="45.41377" lon="6.5182">
        <ele>1883.9204</ele>
        <time>2021-08-21T09:37:58</time>
      </trkpt>
      <trkpt lat="45.41384" lon="6.51827">
        <ele>1887.0204</ele>
        <time>2021-08-21T09:38:05</time>
      </trkpt>
      <trkpt lat="45.41385" lon="6.51829">
        <ele>1887.0204</ele>
        <time>2021-08-21T09:38:06</time>
      </trkpt>
      <trkpt lat="45.41386" lon="6.5183">
        <ele>1887.0204</ele>
        <time>2021-08-21T09:38:07</time>
      </trkpt>
      <trkpt lat="45.41387" lon="6.5183">
        <ele>1887.0204</ele>
        <time>2021-08-21T09:38:08</time>
      </trkpt>
      <trkpt lat="45.41387" lon="6.51831">
        <ele>1887.0204</ele>
        <time>2021-08-21T09:38:09</time>
      </trkpt>
      <trkpt lat="45.41394" lon="6.51841">
        <ele>1890.0204</ele>
        <time>2021-08-21T09:38:30</time>
      </trkpt>
      <trkpt lat="45.414" lon="6.51844">
        <ele>1890.0204</ele>
        <time>2021-08-21T09:38:38</time>
      </trkpt>
      <trkpt lat="45.414" lon="6.51845">
        <ele>1890.0204</ele>
        <time>2021-08-21T09:38:39</time>
      </trkpt>
      <trkpt lat="45.414" lon="6.51846">
        <ele>1893.5204</ele>
        <time>2021-08-21T09:39:09</time>
      </trkpt>
      <trkpt lat="45.414" lon="6.51846">
        <ele>1893.5204</ele>
        <time>2021-08-21T09:39:33</time>
      </trkpt>
      <trkpt lat="45.414" lon="6.51846">
        <ele>1893.5204</ele>
        <time>2021-08-21T09:40:03</time>
      </trkpt>
      <trkpt lat="45.414" lon="6.51846">
        <ele>1893.5204</ele>
        <time>2021-08-21T09:40:34</time>
      </trkpt>
      <trkpt lat="45.414" lon="6.51846">
        <ele>1893.5204</ele>
        <time>2021-08-21T09:41:26</time>
      </trkpt>
      <trkpt lat="45.414" lon="6.51846">
        <ele>1893.5204</ele>
        <time>2021-08-21T09:42:27</time>
      </trkpt>
      <trkpt lat="45.414" lon="6.51846">
        <ele>1893.5204</ele>
        <time>2021-08-21T09:43:08</time>
      </trkpt>
      <trkpt lat="45.414" lon="6.51846">
        <ele>1893.5204</ele>
        <time>2021-08-21T09:43:31</time>
      </trkpt>
      <trkpt lat="45.414" lon="6.51846">
        <ele>1893.5204</ele>
        <time>2021-08-21T09:44:09</time>
      </trkpt>
      <trkpt lat="45.414" lon="6.51846">
        <ele>1893.5204</ele>
        <time>2021-08-21T09:44:41</time>
      </trkpt>
      <trkpt lat="45.414" lon="6.51846">
        <ele>1893.5204</ele>
        <time>2021-08-21T09:45:39</time>
      </trkpt>
      <trkpt lat="45.414" lon="6.51846">
        <ele>1893.5204</ele>
        <time>2021-08-21T09:46:06</time>
      </trkpt>
      <trkpt lat="45.414" lon="6.51846">
        <ele>1893.5204</ele>
        <time>2021-08-21T09:46:27</time>
      </trkpt>
      <trkpt lat="45.414" lon="6.51846">
        <ele>1893.5204</ele>
        <time>2021-08-21T09:46:44</time>
      </trkpt>
      <trkpt lat="45.41403" lon="6.51851">
        <ele>1897.6205</ele>
        <time>2021-08-21T09:47:05</time>
      </trkpt>
      <trkpt lat="45.41411" lon="6.51856">
        <ele>1897.6205</ele>
        <time>2021-08-21T09:47:34</time>
      </trkpt>
      <trkpt lat="45.41421" lon="6.51864">
        <ele>1897.6205</ele>
        <time>2021-08-21T09:47:49</time>
      </trkpt>
      <trkpt lat="45.41427" lon="6.51878">
        <ele>1899.6205</ele>
        <time>2021-08-21T09:48:06</time>
      </trkpt>
      <trkpt lat="45.41427" lon="6.51878">
        <ele>1899.6205</ele>
        <time>2021-08-21T09:48:07</time>
      </trkpt>
      <trkpt lat="45.41434" lon="6.51889">
        <ele>1901.4204</ele>
        <time>2021-08-21T09:48:35</time>
      </trkpt>
      <trkpt lat="45.41435" lon="6.51889">
        <ele>1901.4204</ele>
        <time>2021-08-21T09:48:36</time>
      </trkpt>
      <trkpt lat="45.41437" lon="6.51895">
        <ele>1901.4204</ele>
        <time>2021-08-21T09:48:50</time>
      </trkpt>
      <trkpt lat="45.41438" lon="6.51896">
        <ele>1901.4204</ele>
        <time>2021-08-21T09:48:51</time>
      </trkpt>
      <trkpt lat="45.41439" lon="6.51897">
        <ele>1903.0204</ele>
        <time>2021-08-21T09:48:52</time>
      </trkpt>
      <trkpt lat="45.41441" lon="6.51903">
        <ele>1903.0204</ele>
        <time>2021-08-21T09:48:55</time>
      </trkpt>
      <trkpt lat="45.41442" lon="6.51904">
        <ele>1903.0204</ele>
        <time>2021-08-21T09:48:57</time>
      </trkpt>
      <trkpt lat="45.41442" lon="6.51905">
        <ele>1903.0204</ele>
        <time>2021-08-21T09:48:58</time>
      </trkpt>
      <trkpt lat="45.41451" lon="6.51912">
        <ele>1905.2205</ele>
        <time>2021-08-21T09:49:12</time>
      </trkpt>
      <trkpt lat="45.41452" lon="6.51913">
        <ele>1905.2205</ele>
        <time>2021-08-21T09:49:15</time>
      </trkpt>
      <trkpt lat="45.41461" lon="6.51918">
        <ele>1906.2205</ele>
        <time>2021-08-21T09:49:35</time>
      </trkpt>
      <trkpt lat="45.41462" lon="6.51918">
        <ele>1906.2205</ele>
        <time>2021-08-21T09:49:37</time>
      </trkpt>
      <trkpt lat="45.41463" lon="6.51918">
        <ele>1906.2205</ele>
        <time>2021-08-21T09:49:38</time>
      </trkpt>
      <trkpt lat="45.41473" lon="6.51921">
        <ele>1908.9204</ele>
        <time>2021-08-21T09:49:54</time>
      </trkpt>
      <trkpt lat="45.41473" lon="6.51921">
        <ele>1908.9204</ele>
        <time>2021-08-21T09:49:55</time>
      </trkpt>
      <trkpt lat="45.41475" lon="6.5192">
        <ele>1908.9204</ele>
        <time>2021-08-21T09:49:57</time>
      </trkpt>
      <trkpt lat="45.41485" lon="6.5192">
        <ele>1908.9204</ele>
        <time>2021-08-21T09:50:08</time>
      </trkpt>
      <trkpt lat="45.41491" lon="6.5192">
        <ele>1911.5204</ele>
        <time>2021-08-21T09:50:12</time>
      </trkpt>
      <trkpt lat="45.41495" lon="6.51919">
        <ele>1911.5204</ele>
        <time>2021-08-21T09:50:16</time>
      </trkpt>
      <trkpt lat="45.41502" lon="6.51918">
        <ele>1915.3538</ele>
        <time>2021-08-21T09:50:23</time>
      </trkpt>
      <trkpt lat="45.41505" lon="6.51918">
        <ele>1915.3538</ele>
        <time>2021-08-21T09:50:26</time>
      </trkpt>
      <trkpt lat="45.41511" lon="6.51919">
        <ele>1915.3538</ele>
        <time>2021-08-21T09:50:31</time>
      </trkpt>
      <trkpt lat="45.41522" lon="6.51919">
        <ele>1919.2205</ele>
        <time>2021-08-21T09:50:46</time>
      </trkpt>
      <trkpt lat="45.41523" lon="6.5192">
        <ele>1919.2205</ele>
        <time>2021-08-21T09:50:48</time>
      </trkpt>
      <trkpt lat="45.41524" lon="6.5192">
        <ele>1919.5204</ele>
        <time>2021-08-21T09:51:00</time>
      </trkpt>
      <trkpt lat="45.41533" lon="6.51929">
        <ele>1921.7205</ele>
        <time>2021-08-21T09:51:07</time>
      </trkpt>
      <trkpt lat="45.41542" lon="6.51932">
        <ele>1921.7205</ele>
        <time>2021-08-21T09:51:19</time>
      </trkpt>
      <trkpt lat="45.41546" lon="6.51931">
        <ele>1920.8204</ele>
        <time>2021-08-21T09:51:22</time>
      </trkpt>
      <trkpt lat="45.41556" lon="6.51933">
        <ele>1919.9204</ele>
        <time>2021-08-21T09:51:35</time>
      </trkpt>
      <trkpt lat="45.41556" lon="6.51933">
        <ele>1919.9204</ele>
        <time>2021-08-21T09:51:36</time>
      </trkpt>
      <trkpt lat="45.41557" lon="6.51933">
        <ele>1919.9204</ele>
        <time>2021-08-21T09:51:38</time>
      </trkpt>
      <trkpt lat="45.41563" lon="6.51936">
        <ele>1919.7205</ele>
        <time>2021-08-21T09:51:45</time>
      </trkpt>
      <trkpt lat="45.41572" lon="6.51942">
        <ele>1920.9204</ele>
        <time>2021-08-21T09:51:53</time>
      </trkpt>
      <trkpt lat="45.41581" lon="6.51941">
        <ele>1922.4204</ele>
        <time>2021-08-21T09:52:05</time>
      </trkpt>
      <trkpt lat="45.41582" lon="6.51941">
        <ele>1922.4204</ele>
        <time>2021-08-21T09:52:06</time>
      </trkpt>
      <trkpt lat="45.41583" lon="6.51939">
        <ele>1922.4204</ele>
        <time>2021-08-21T09:52:08</time>
      </trkpt>
      <trkpt lat="45.41585" lon="6.51939">
        <ele>1922.4204</ele>
        <time>2021-08-21T09:52:10</time>
      </trkpt>
      <trkpt lat="45.41586" lon="6.51939">
        <ele>1922.4204</ele>
        <time>2021-08-21T09:52:11</time>
      </trkpt>
      <trkpt lat="45.41589" lon="6.51941">
        <ele>1923.4204</ele>
        <time>2021-08-21T09:52:13</time>
      </trkpt>
      <trkpt lat="45.41591" lon="6.51941">
        <ele>1923.4204</ele>
        <time>2021-08-21T09:52:14</time>
      </trkpt>
      <trkpt lat="45.41594" lon="6.51941">
        <ele>1923.4204</ele>
        <time>2021-08-21T09:52:16</time>
      </trkpt>
      <trkpt lat="45.41594" lon="6.51942">
        <ele>1923.4204</ele>
        <time>2021-08-21T09:52:17</time>
      </trkpt>
      <trkpt lat="45.41594" lon="6.51941">
        <ele>1927.7205</ele>
        <time>2021-08-21T09:52:30</time>
      </trkpt>
      <trkpt lat="45.41603" lon="6.5194">
        <ele>1928.7205</ele>
        <time>2021-08-21T09:52:36</time>
      </trkpt>
      <trkpt lat="45.41604" lon="6.5194">
        <ele>1928.7205</ele>
        <time>2021-08-21T09:52:37</time>
      </trkpt>
      <trkpt lat="45.41604" lon="6.5194">
        <ele>1928.7205</ele>
        <time>2021-08-21T09:52:46</time>
      </trkpt>
      <trkpt lat="45.41613" lon="6.51941">
        <ele>1929.6205</ele>
        <time>2021-08-21T09:52:54</time>
      </trkpt>
      <trkpt lat="45.41615" lon="6.5194">
        <ele>1929.6205</ele>
        <time>2021-08-21T09:52:55</time>
      </trkpt>
      <trkpt lat="45.41616" lon="6.51938">
        <ele>1929.6205</ele>
        <time>2021-08-21T09:52:56</time>
      </trkpt>
      <trkpt lat="45.41616" lon="6.51938">
        <ele>1929.6205</ele>
        <time>2021-08-21T09:52:57</time>
      </trkpt>
      <trkpt lat="45.41617" lon="6.51938">
        <ele>1929.6205</ele>
        <time>2021-08-21T09:52:58</time>
      </trkpt>
      <trkpt lat="45.41618" lon="6.51938">
        <ele>1929.6205</ele>
        <time>2021-08-21T09:52:59</time>
      </trkpt>
      <trkpt lat="45.41618" lon="6.51938">
        <ele>1934.6205</ele>
        <time>2021-08-21T09:53:29</time>
      </trkpt>
      <trkpt lat="45.41627" lon="6.51938">
        <ele>1934.6205</ele>
        <time>2021-08-21T09:53:32</time>
      </trkpt>
      <trkpt lat="45.41628" lon="6.51938">
        <ele>1934.6205</ele>
        <time>2021-08-21T09:53:33</time>
      </trkpt>
      <trkpt lat="45.41629" lon="6.51939">
        <ele>1934.6205</ele>
        <time>2021-08-21T09:53:35</time>
      </trkpt>
      <trkpt lat="45.4164" lon="6.51937">
        <ele>1935.5204</ele>
        <time>2021-08-21T09:53:51</time>
      </trkpt>
      <trkpt lat="45.4164" lon="6.51937">
        <ele>1937.4204</ele>
        <time>2021-08-21T09:53:53</time>
      </trkpt>
      <trkpt lat="45.41649" lon="6.51929">
        <ele>1938.2205</ele>
        <time>2021-08-21T09:54:11</time>
      </trkpt>
      <trkpt lat="45.4165" lon="6.51929">
        <ele>1938.2205</ele>
        <time>2021-08-21T09:54:13</time>
      </trkpt>
      <trkpt lat="45.41651" lon="6.51929">
        <ele>1938.2205</ele>
        <time>2021-08-21T09:54:14</time>
      </trkpt>
      <trkpt lat="45.4166" lon="6.51928">
        <ele>1938.0204</ele>
        <time>2021-08-21T09:54:28</time>
      </trkpt>
      <trkpt lat="45.4166" lon="6.51928">
        <ele>1938.0204</ele>
        <time>2021-08-21T09:54:29</time>
      </trkpt>
      <trkpt lat="45.4166" lon="6.51928">
        <ele>1938.0204</ele>
        <time>2021-08-21T09:54:30</time>
      </trkpt>
      <trkpt lat="45.4167" lon="6.5193">
        <ele>1938.1205</ele>
        <time>2021-08-21T09:54:46</time>
      </trkpt>
      <trkpt lat="45.41671" lon="6.51931">
        <ele>1938.1205</ele>
        <time>2021-08-21T09:54:48</time>
      </trkpt>
      <trkpt lat="45.41676" lon="6.51935">
        <ele>1938.1205</ele>
        <time>2021-08-21T09:54:55</time>
      </trkpt>
      <trkpt lat="45.41677" lon="6.51937">
        <ele>1938.1205</ele>
        <time>2021-08-21T09:54:57</time>
      </trkpt>
      <trkpt lat="45.41678" lon="6.51938">
        <ele>1938.1205</ele>
        <time>2021-08-21T09:54:58</time>
      </trkpt>
      <trkpt lat="45.41678" lon="6.51939">
        <ele>1938.1205</ele>
        <time>2021-08-21T09:54:59</time>
      </trkpt>
      <trkpt lat="45.41687" lon="6.51944">
        <ele>1942.1205</ele>
        <time>2021-08-21T09:55:16</time>
      </trkpt>
      <trkpt lat="45.41688" lon="6.51944">
        <ele>1942.1205</ele>
        <time>2021-08-21T09:55:19</time>
      </trkpt>
      <trkpt lat="45.41697" lon="6.51939">
        <ele>1947.2205</ele>
        <time>2021-08-21T09:55:36</time>
      </trkpt>
      <trkpt lat="45.41698" lon="6.51939">
        <ele>1947.2205</ele>
        <time>2021-08-21T09:55:37</time>
      </trkpt>
      <trkpt lat="45.41703" lon="6.51938">
        <ele>1950.3871</ele>
        <time>2021-08-21T09:55:47</time>
      </trkpt>
      <trkpt lat="45.41706" lon="6.51939">
        <ele>1950.3871</ele>
        <time>2021-08-21T09:55:50</time>
      </trkpt>
      <trkpt lat="45.41711" lon="6.51938">
        <ele>1953.5204</ele>
        <time>2021-08-21T09:56:20</time>
      </trkpt>
      <trkpt lat="45.41711" lon="6.51938">
        <ele>1953.5204</ele>
        <time>2021-08-21T09:56:41</time>
      </trkpt>
      <trkpt lat="45.41711" lon="6.51938">
        <ele>1953.5204</ele>
        <time>2021-08-21T09:56:52</time>
      </trkpt>
      <trkpt lat="45.41711" lon="6.51938">
        <ele>1953.5204</ele>
        <time>2021-08-21T09:57:57</time>
      </trkpt>
      <trkpt lat="45.41711" lon="6.51938">
        <ele>1953.5204</ele>
        <time>2021-08-21T10:00:16</time>
      </trkpt>
      <trkpt lat="45.41711" lon="6.51938">
        <ele>1953.5204</ele>
        <time>2021-08-21T10:00:51</time>
      </trkpt>
      <trkpt lat="45.41721" lon="6.51935">
        <ele>1953.5204</ele>
        <time>2021-08-21T10:01:11</time>
      </trkpt>
      <trkpt lat="45.41723" lon="6.51935">
        <ele>1953.5204</ele>
        <time>2021-08-21T10:01:12</time>
      </trkpt>
      <trkpt lat="45.41724" lon="6.51936">
        <ele>1953.5204</ele>
        <time>2021-08-21T10:01:13</time>
      </trkpt>
      <trkpt lat="45.41726" lon="6.51937">
        <ele>1953.5204</ele>
        <time>2021-08-21T10:01:15</time>
      </trkpt>
      <trkpt lat="45.41728" lon="6.51937">
        <ele>1953.5204</ele>
        <time>2021-08-21T10:01:16</time>
      </trkpt>
      <trkpt lat="45.41729" lon="6.51937">
        <ele>1953.5204</ele>
        <time>2021-08-21T10:01:17</time>
      </trkpt>
      <trkpt lat="45.4173" lon="6.51937">
        <ele>1953.5204</ele>
        <time>2021-08-21T10:01:18</time>
      </trkpt>
      <trkpt lat="45.41731" lon="6.51936">
        <ele>1953.5204</ele>
        <time>2021-08-21T10:01:19</time>
      </trkpt>
      <trkpt lat="45.41736" lon="6.51938">
        <ele>1955.2205</ele>
        <time>2021-08-21T10:01:23</time>
      </trkpt>
      <trkpt lat="45.41738" lon="6.51939">
        <ele>1955.2205</ele>
        <time>2021-08-21T10:01:25</time>
      </trkpt>
      <trkpt lat="45.41747" lon="6.51939">
        <ele>1955.6205</ele>
        <time>2021-08-21T10:01:37</time>
      </trkpt>
      <trkpt lat="45.41748" lon="6.51938">
        <ele>1955.6205</ele>
        <time>2021-08-21T10:01:38</time>
      </trkpt>
      <trkpt lat="45.4175" lon="6.51938">
        <ele>1955.6205</ele>
        <time>2021-08-21T10:01:40</time>
      </trkpt>
      <trkpt lat="45.4175" lon="6.51938">
        <ele>1956.2205</ele>
        <time>2021-08-21T10:01:43</time>
      </trkpt>
      <trkpt lat="45.41759" lon="6.51938">
        <ele>1956.6205</ele>
        <time>2021-08-21T10:01:52</time>
      </trkpt>
      <trkpt lat="45.41761" lon="6.51938">
        <ele>1956.6205</ele>
        <time>2021-08-21T10:01:54</time>
      </trkpt>
      <trkpt lat="45.41761" lon="6.51939">
        <ele>1956.6205</ele>
        <time>2021-08-21T10:01:55</time>
      </trkpt>
      <trkpt lat="45.41771" lon="6.51941">
        <ele>1957.7205</ele>
        <time>2021-08-21T10:02:14</time>
      </trkpt>
      <trkpt lat="45.41773" lon="6.51941">
        <ele>1957.7205</ele>
        <time>2021-08-21T10:02:17</time>
      </trkpt>
      <trkpt lat="45.41783" lon="6.51939">
        <ele>1957.7205</ele>
        <time>2021-08-21T10:02:27</time>
      </trkpt>
      <trkpt lat="45.41783" lon="6.51939">
        <ele>1957.7205</ele>
        <time>2021-08-21T10:02:29</time>
      </trkpt>
      <trkpt lat="45.41783" lon="6.5194">
        <ele>1957.7205</ele>
        <time>2021-08-21T10:02:30</time>
      </trkpt>
      <trkpt lat="45.41783" lon="6.5194">
        <ele>1959.4204</ele>
        <time>2021-08-21T10:03:00</time>
      </trkpt>
      <trkpt lat="45.41783" lon="6.5194">
        <ele>1959.4204</ele>
        <time>2021-08-21T10:03:43</time>
      </trkpt>
      <trkpt lat="45.41783" lon="6.5194">
        <ele>1959.4204</ele>
        <time>2021-08-21T10:04:13</time>
      </trkpt>
      <trkpt lat="45.4179" lon="6.51948">
        <ele>1959.4204</ele>
        <time>2021-08-21T10:04:27</time>
      </trkpt>
      <trkpt lat="45.41791" lon="6.51949">
        <ele>1959.4204</ele>
        <time>2021-08-21T10:04:29</time>
      </trkpt>
      <trkpt lat="45.41795" lon="6.51962">
        <ele>1961.7205</ele>
        <time>2021-08-21T10:04:44</time>
      </trkpt>
      <trkpt lat="45.41798" lon="6.51979">
        <ele>1961.7205</ele>
        <time>2021-08-21T10:04:58</time>
      </trkpt>
      <trkpt lat="45.41798" lon="6.51979">
        <ele>1961.7205</ele>
        <time>2021-08-21T10:04:59</time>
      </trkpt>
      <trkpt lat="45.41797" lon="6.5198">
        <ele>1961.7205</ele>
        <time>2021-08-21T10:05:00</time>
      </trkpt>
      <trkpt lat="45.41798" lon="6.51982">
        <ele>1961.7205</ele>
        <time>2021-08-21T10:05:01</time>
      </trkpt>
      <trkpt lat="45.41798" lon="6.51982">
        <ele>1963.8204</ele>
        <time>2021-08-21T10:05:08</time>
      </trkpt>
      <trkpt lat="45.41803" lon="6.51993">
        <ele>1965.2205</ele>
        <time>2021-08-21T10:05:15</time>
      </trkpt>
      <trkpt lat="45.41804" lon="6.51995">
        <ele>1965.2205</ele>
        <time>2021-08-21T10:05:17</time>
      </trkpt>
      <trkpt lat="45.41804" lon="6.51995">
        <ele>1965.2205</ele>
        <time>2021-08-21T10:05:18</time>
      </trkpt>
      <trkpt lat="45.41804" lon="6.52">
        <ele>1965.2205</ele>
        <time>2021-08-21T10:05:23</time>
      </trkpt>
      <trkpt lat="45.41803" lon="6.52004">
        <ele>1965.2205</ele>
        <time>2021-08-21T10:05:26</time>
      </trkpt>
      <trkpt lat="45.41803" lon="6.52004">
        <ele>1968.1205</ele>
        <time>2021-08-21T10:05:39</time>
      </trkpt>
      <trkpt lat="45.41803" lon="6.52004">
        <ele>1968.5204</ele>
        <time>2021-08-21T10:05:45</time>
      </trkpt>
      <trkpt lat="45.41804" lon="6.52017">
        <ele>1968.5204</ele>
        <time>2021-08-21T10:06:06</time>
      </trkpt>
      <trkpt lat="45.41805" lon="6.52018">
        <ele>1969.987</ele>
        <time>2021-08-21T10:06:17</time>
      </trkpt>
      <trkpt lat="45.4181" lon="6.52032">
        <ele>1970.7205</ele>
        <time>2021-08-21T10:06:35</time>
      </trkpt>
      <trkpt lat="45.4181" lon="6.52032">
        <ele>1970.7205</ele>
        <time>2021-08-21T10:06:41</time>
      </trkpt>
      <trkpt lat="45.4181" lon="6.52032">
        <ele>1970.987</ele>
        <time>2021-08-21T10:06:47</time>
      </trkpt>
      <trkpt lat="45.41809" lon="6.52045">
        <ele>1971.6205</ele>
        <time>2021-08-21T10:06:56</time>
      </trkpt>
      <trkpt lat="45.41809" lon="6.52046">
        <ele>1971.6205</ele>
        <time>2021-08-21T10:06:57</time>
      </trkpt>
      <trkpt lat="45.41808" lon="6.52046">
        <ele>1971.6205</ele>
        <time>2021-08-21T10:06:58</time>
      </trkpt>
      <trkpt lat="45.41808" lon="6.52047">
        <ele>1971.6205</ele>
        <time>2021-08-21T10:06:59</time>
      </trkpt>
      <trkpt lat="45.41808" lon="6.52047">
        <ele>1972.2205</ele>
        <time>2021-08-21T10:07:23</time>
      </trkpt>
      <trkpt lat="45.41808" lon="6.5206">
        <ele>1972.2205</ele>
        <time>2021-08-21T10:07:35</time>
      </trkpt>
      <trkpt lat="45.41808" lon="6.52062">
        <ele>1972.2205</ele>
        <time>2021-08-21T10:07:36</time>
      </trkpt>
      <trkpt lat="45.41807" lon="6.52062">
        <ele>1972.2205</ele>
        <time>2021-08-21T10:07:37</time>
      </trkpt>
      <trkpt lat="45.41807" lon="6.52063">
        <ele>1972.2205</ele>
        <time>2021-08-21T10:07:38</time>
      </trkpt>
      <trkpt lat="45.41815" lon="6.52072">
        <ele>1975.8204</ele>
        <time>2021-08-21T10:07:52</time>
      </trkpt>
      <trkpt lat="45.41815" lon="6.52073">
        <ele>1975.8204</ele>
        <time>2021-08-21T10:07:53</time>
      </trkpt>
      <trkpt lat="45.41817" lon="6.52073">
        <ele>1975.8204</ele>
        <time>2021-08-21T10:07:55</time>
      </trkpt>
      <trkpt lat="45.41826" lon="6.52076">
        <ele>1975.8204</ele>
        <time>2021-08-21T10:08:08</time>
      </trkpt>
      <trkpt lat="45.41828" lon="6.52076">
        <ele>1975.8204</ele>
        <time>2021-08-21T10:08:10</time>
      </trkpt>
      <trkpt lat="45.41829" lon="6.52076">
        <ele>1975.8204</ele>
        <time>2021-08-21T10:08:11</time>
      </trkpt>
      <trkpt lat="45.41829" lon="6.52076">
        <ele>1978.9204</ele>
        <time>2021-08-21T10:08:22</time>
      </trkpt>
      <trkpt lat="45.41837" lon="6.52083">
        <ele>1978.9204</ele>
        <time>2021-08-21T10:08:26</time>
      </trkpt>
      <trkpt lat="45.41846" lon="6.52092">
        <ele>1980.5204</ele>
        <time>2021-08-21T10:08:44</time>
      </trkpt>
      <trkpt lat="45.41857" lon="6.52098">
        <ele>1981.7205</ele>
        <time>2021-08-21T10:09:02</time>
      </trkpt>
      <trkpt lat="45.41858" lon="6.52097">
        <ele>1981.7205</ele>
        <time>2021-08-21T10:09:03</time>
      </trkpt>
      <trkpt lat="45.41858" lon="6.52098">
        <ele>1981.7205</ele>
        <time>2021-08-21T10:09:04</time>
      </trkpt>
      <trkpt lat="45.41868" lon="6.52105">
        <ele>1983.4204</ele>
        <time>2021-08-21T10:09:29</time>
      </trkpt>
      <trkpt lat="45.41868" lon="6.52106">
        <ele>1983.4204</ele>
        <time>2021-08-21T10:09:30</time>
      </trkpt>
      <trkpt lat="45.41868" lon="6.52106">
        <ele>1983.4204</ele>
        <time>2021-08-21T10:09:36</time>
      </trkpt>
      <trkpt lat="45.41868" lon="6.52106">
        <ele>1983.4204</ele>
        <time>2021-08-21T10:09:40</time>
      </trkpt>
      <trkpt lat="45.41875" lon="6.52115">
        <ele>1984.8204</ele>
        <time>2021-08-21T10:09:51</time>
      </trkpt>
      <trkpt lat="45.41875" lon="6.52116">
        <ele>1984.8204</ele>
        <time>2021-08-21T10:10:00</time>
      </trkpt>
      <trkpt lat="45.41876" lon="6.52129">
        <ele>1987.5204</ele>
        <time>2021-08-21T10:10:18</time>
      </trkpt>
      <trkpt lat="45.41876" lon="6.52146">
        <ele>1989.0204</ele>
        <time>2021-08-21T10:10:39</time>
      </trkpt>
      <trkpt lat="45.41876" lon="6.52147">
        <ele>1989.0204</ele>
        <time>2021-08-21T10:10:41</time>
      </trkpt>
      <trkpt lat="45.41876" lon="6.52147">
        <ele>1989.0204</ele>
        <time>2021-08-21T10:10:45</time>
      </trkpt>
      <trkpt lat="45.41882" lon="6.52157">
        <ele>1990.9204</ele>
        <time>2021-08-21T10:11:05</time>
      </trkpt>
      <trkpt lat="45.41889" lon="6.52168">
        <ele>1994.6205</ele>
        <time>2021-08-21T10:11:29</time>
      </trkpt>
      <trkpt lat="45.4189" lon="6.52169">
        <ele>1994.6205</ele>
        <time>2021-08-21T10:11:30</time>
      </trkpt>
      <trkpt lat="45.41893" lon="6.52172">
        <ele>1994.6205</ele>
        <time>2021-08-21T10:11:36</time>
      </trkpt>
      <trkpt lat="45.41895" lon="6.52173">
        <ele>1994.6205</ele>
        <time>2021-08-21T10:11:39</time>
      </trkpt>
      <trkpt lat="45.41895" lon="6.52174">
        <ele>1994.6205</ele>
        <time>2021-08-21T10:11:40</time>
      </trkpt>
      <trkpt lat="45.41894" lon="6.5219">
        <ele>2002.4205</ele>
        <time>2021-08-21T10:12:10</time>
      </trkpt>
      <trkpt lat="45.41897" lon="6.52202">
        <ele>2003.9205</ele>
        <time>2021-08-21T10:12:15</time>
      </trkpt>
      <trkpt lat="45.41898" lon="6.52207">
        <ele>2003.9205</ele>
        <time>2021-08-21T10:12:18</time>
      </trkpt>
      <trkpt lat="45.41902" lon="6.52219">
        <ele>2006.5204</ele>
        <time>2021-08-21T10:12:35</time>
      </trkpt>
      <trkpt lat="45.41903" lon="6.52221">
        <ele>2006.5204</ele>
        <time>2021-08-21T10:12:37</time>
      </trkpt>
      <trkpt lat="45.41903" lon="6.52221">
        <ele>2006.5204</ele>
        <time>2021-08-21T10:12:38</time>
      </trkpt>
      <trkpt lat="45.41905" lon="6.52234">
        <ele>2010.9205</ele>
        <time>2021-08-21T10:12:55</time>
      </trkpt>
      <trkpt lat="45.41905" lon="6.52235">
        <ele>2010.9205</ele>
        <time>2021-08-21T10:12:56</time>
      </trkpt>
      <trkpt lat="45.41906" lon="6.52244">
        <ele>2010.9205</ele>
        <time>2021-08-21T10:13:02</time>
      </trkpt>
      <trkpt lat="45.41908" lon="6.52258">
        <ele>2016.2203</ele>
        <time>2021-08-21T10:13:19</time>
      </trkpt>
      <trkpt lat="45.41909" lon="6.5226">
        <ele>2016.2203</ele>
        <time>2021-08-21T10:13:21</time>
      </trkpt>
      <trkpt lat="45.41909" lon="6.52261">
        <ele>2016.4205</ele>
        <time>2021-08-21T10:13:22</time>
      </trkpt>
      <trkpt lat="45.41911" lon="6.52274">
        <ele>2018.2203</ele>
        <time>2021-08-21T10:13:40</time>
      </trkpt>
      <trkpt lat="45.4191" lon="6.52275">
        <ele>2018.2203</ele>
        <time>2021-08-21T10:13:41</time>
      </trkpt>
      <trkpt lat="45.4191" lon="6.52276">
        <ele>2018.2203</ele>
        <time>2021-08-21T10:13:42</time>
      </trkpt>
      <trkpt lat="45.4191" lon="6.52277">
        <ele>2018.2203</ele>
        <time>2021-08-21T10:13:43</time>
      </trkpt>
      <trkpt lat="45.41914" lon="6.5229">
        <ele>2022.4872</ele>
        <time>2021-08-21T10:14:00</time>
      </trkpt>
      <trkpt lat="45.41915" lon="6.5229">
        <ele>2022.4872</ele>
        <time>2021-08-21T10:14:01</time>
      </trkpt>
      <trkpt lat="45.41917" lon="6.52291">
        <ele>2022.5204</ele>
        <time>2021-08-21T10:14:03</time>
      </trkpt>
      <trkpt lat="45.41927" lon="6.52294">
        <ele>2025.2203</ele>
        <time>2021-08-21T10:14:23</time>
      </trkpt>
      <trkpt lat="45.41928" lon="6.52295">
        <ele>2025.2203</ele>
        <time>2021-08-21T10:14:24</time>
      </trkpt>
      <trkpt lat="45.41929" lon="6.52295">
        <ele>2025.2203</ele>
        <time>2021-08-21T10:14:26</time>
      </trkpt>
      <trkpt lat="45.41939" lon="6.52298">
        <ele>2025.2203</ele>
        <time>2021-08-21T10:14:40</time>
      </trkpt>
      <trkpt lat="45.4195" lon="6.52296">
        <ele>2030.1205</ele>
        <time>2021-08-21T10:14:53</time>
      </trkpt>
      <trkpt lat="45.41953" lon="6.52295">
        <ele>2030.1205</ele>
        <time>2021-08-21T10:14:56</time>
      </trkpt>
      <trkpt lat="45.41962" lon="6.52293">
        <ele>2030.3204</ele>
        <time>2021-08-21T10:15:08</time>
      </trkpt>
      <trkpt lat="45.41963" lon="6.52293">
        <ele>2030.3204</ele>
        <time>2021-08-21T10:15:09</time>
      </trkpt>
      <trkpt lat="45.41964" lon="6.52293">
        <ele>2030.3204</ele>
        <time>2021-08-21T10:15:11</time>
      </trkpt>
      <trkpt lat="45.41974" lon="6.52297">
        <ele>2034.3204</ele>
        <time>2021-08-21T10:15:26</time>
      </trkpt>
      <trkpt lat="45.41975" lon="6.52297">
        <ele>2034.3204</ele>
        <time>2021-08-21T10:15:28</time>
      </trkpt>
      <trkpt lat="45.4198" lon="6.52301">
        <ele>2034.3204</ele>
        <time>2021-08-21T10:15:34</time>
      </trkpt>
      <trkpt lat="45.41981" lon="6.52302">
        <ele>2034.3204</ele>
        <time>2021-08-21T10:15:36</time>
      </trkpt>
      <trkpt lat="45.41989" lon="6.52306">
        <ele>2036.7203</ele>
        <time>2021-08-21T10:15:48</time>
      </trkpt>
      <trkpt lat="45.41991" lon="6.52305">
        <ele>2036.7203</ele>
        <time>2021-08-21T10:15:49</time>
      </trkpt>
      <trkpt lat="45.41992" lon="6.52306">
        <ele>2036.7203</ele>
        <time>2021-08-21T10:15:50</time>
      </trkpt>
      <trkpt lat="45.41992" lon="6.52307">
        <ele>2036.7203</ele>
        <time>2021-08-21T10:15:51</time>
      </trkpt>
      <trkpt lat="45.41993" lon="6.52307">
        <ele>2037.5204</ele>
        <time>2021-08-21T10:15:52</time>
      </trkpt>
      <trkpt lat="45.41997" lon="6.5231">
        <ele>2037.5204</ele>
        <time>2021-08-21T10:15:56</time>
      </trkpt>
      <trkpt lat="45.41998" lon="6.52311">
        <ele>2037.5204</ele>
        <time>2021-08-21T10:15:57</time>
      </trkpt>
      <trkpt lat="45.41999" lon="6.52311">
        <ele>2037.5204</ele>
        <time>2021-08-21T10:15:58</time>
      </trkpt>
      <trkpt lat="45.42" lon="6.52312">
        <ele>2037.5204</ele>
        <time>2021-08-21T10:15:59</time>
      </trkpt>
      <trkpt lat="45.42001" lon="6.52314">
        <ele>2038.2203</ele>
        <time>2021-08-21T10:16:03</time>
      </trkpt>
      <trkpt lat="45.42011" lon="6.5232">
        <ele>2038.3871</ele>
        <time>2021-08-21T10:16:18</time>
      </trkpt>
      <trkpt lat="45.42013" lon="6.5232">
        <ele>2038.3871</ele>
        <time>2021-08-21T10:16:20</time>
      </trkpt>
      <trkpt lat="45.42013" lon="6.5232">
        <ele>2040.6205</ele>
        <time>2021-08-21T10:17:07</time>
      </trkpt>
      <trkpt lat="45.42013" lon="6.5232">
        <ele>2040.6205</ele>
        <time>2021-08-21T10:17:08</time>
      </trkpt>
      <trkpt lat="45.42013" lon="6.5232">
        <ele>2040.6205</ele>
        <time>2021-08-21T10:17:40</time>
      </trkpt>
      <trkpt lat="45.42017" lon="6.52325">
        <ele>2040.6205</ele>
        <time>2021-08-21T10:17:45</time>
      </trkpt>
      <trkpt lat="45.42016" lon="6.52326">
        <ele>2040.6205</ele>
        <time>2021-08-21T10:17:46</time>
      </trkpt>
      <trkpt lat="45.42016" lon="6.52326">
        <ele>2040.6205</ele>
        <time>2021-08-21T10:17:48</time>
      </trkpt>
      <trkpt lat="45.42016" lon="6.52325">
        <ele>2040.6205</ele>
        <time>2021-08-21T10:17:49</time>
      </trkpt>
      <trkpt lat="45.42016" lon="6.52325">
        <ele>2041.4205</ele>
        <time>2021-08-21T10:18:32</time>
      </trkpt>
      <trkpt lat="45.42016" lon="6.52325">
        <ele>2041.4205</ele>
        <time>2021-08-21T10:19:13</time>
      </trkpt>
      <trkpt lat="45.42016" lon="6.52325">
        <ele>2041.4205</ele>
        <time>2021-08-21T10:19:43</time>
      </trkpt>
      <trkpt lat="45.42016" lon="6.52325">
        <ele>2041.4205</ele>
        <time>2021-08-21T10:20:13</time>
      </trkpt>
      <trkpt lat="45.42016" lon="6.52325">
        <ele>2041.4205</ele>
        <time>2021-08-21T10:20:17</time>
      </trkpt>
      <trkpt lat="45.42016" lon="6.52325">
        <ele>2041.4205</ele>
        <time>2021-08-21T10:20:19</time>
      </trkpt>
      <trkpt lat="45.42016" lon="6.52325">
        <ele>2041.4205</ele>
        <time>2021-08-21T10:20:50</time>
      </trkpt>
      <trkpt lat="45.42016" lon="6.52325">
        <ele>2041.4205</ele>
        <time>2021-08-21T10:21:20</time>
      </trkpt>
      <trkpt lat="45.42016" lon="6.52325">
        <ele>2041.4205</ele>
        <time>2021-08-21T10:21:50</time>
      </trkpt>
      <trkpt lat="45.42016" lon="6.52325">
        <ele>2041.4205</ele>
        <time>2021-08-21T10:22:20</time>
      </trkpt>
      <trkpt lat="45.42007" lon="6.52325">
        <ele>2041.4205</ele>
        <time>2021-08-21T10:22:29</time>
      </trkpt>
      <trkpt lat="45.42003" lon="6.5233">
        <ele>2041.4205</ele>
        <time>2021-08-21T10:22:33</time>
      </trkpt>
      <trkpt lat="45.41997" lon="6.52337">
        <ele>2042.7538</ele>
        <time>2021-08-21T10:22:42</time>
      </trkpt>
      <trkpt lat="45.41986" lon="6.52345">
        <ele>2042.6871</ele>
        <time>2021-08-21T10:22:55</time>
      </trkpt>
      <trkpt lat="45.41984" lon="6.52346">
        <ele>2042.6871</ele>
        <time>2021-08-21T10:22:59</time>
      </trkpt>
      <trkpt lat="45.41982" lon="6.52352">
        <ele>2042.3204</ele>
        <time>2021-08-21T10:23:09</time>
      </trkpt>
      <trkpt lat="45.41981" lon="6.52355">
        <ele>2042.3204</ele>
        <time>2021-08-21T10:23:11</time>
      </trkpt>
      <trkpt lat="45.4198" lon="6.52355">
        <ele>2041.0538</ele>
        <time>2021-08-21T10:23:12</time>
      </trkpt>
      <trkpt lat="45.41972" lon="6.52363">
        <ele>2040.5204</ele>
        <time>2021-08-21T10:23:25</time>
      </trkpt>
      <trkpt lat="45.41969" lon="6.52364">
        <ele>2040.5204</ele>
        <time>2021-08-21T10:23:28</time>
      </trkpt>
      <trkpt lat="45.41967" lon="6.52364">
        <ele>2040.5204</ele>
        <time>2021-08-21T10:23:30</time>
      </trkpt>
      <trkpt lat="45.41963" lon="6.52365">
        <ele>2040.5204</ele>
        <time>2021-08-21T10:23:35</time>
      </trkpt>
      <trkpt lat="45.4196" lon="6.52365">
        <ele>2040.5204</ele>
        <time>2021-08-21T10:23:38</time>
      </trkpt>
      <trkpt lat="45.41956" lon="6.52371">
        <ele>2039.9537</ele>
        <time>2021-08-21T10:23:46</time>
      </trkpt>
      <trkpt lat="45.41953" lon="6.52374">
        <ele>2039.9537</ele>
        <time>2021-08-21T10:23:48</time>
      </trkpt>
      <trkpt lat="45.41943" lon="6.5238">
        <ele>2037.8204</ele>
        <time>2021-08-21T10:24:02</time>
      </trkpt>
      <trkpt lat="45.41938" lon="6.52384">
        <ele>2037.8204</ele>
        <time>2021-08-21T10:24:07</time>
      </trkpt>
      <trkpt lat="45.41932" lon="6.52391">
        <ele>2033.1537</ele>
        <time>2021-08-21T10:24:15</time>
      </trkpt>
      <trkpt lat="45.41932" lon="6.52394">
        <ele>2033.1537</ele>
        <time>2021-08-21T10:24:17</time>
      </trkpt>
      <trkpt lat="45.41931" lon="6.52395">
        <ele>2033.1537</ele>
        <time>2021-08-21T10:24:18</time>
      </trkpt>
      <trkpt lat="45.4193" lon="6.52397">
        <ele>2033.1537</ele>
        <time>2021-08-21T10:24:20</time>
      </trkpt>
      <trkpt lat="45.41928" lon="6.524">
        <ele>2030.9205</ele>
        <time>2021-08-21T10:24:24</time>
      </trkpt>
      <trkpt lat="45.41926" lon="6.52402">
        <ele>2030.9205</ele>
        <time>2021-08-21T10:24:27</time>
      </trkpt>
      <trkpt lat="45.4192" lon="6.52408">
        <ele>2029.087</ele>
        <time>2021-08-21T10:24:34</time>
      </trkpt>
      <trkpt lat="45.41915" lon="6.52415">
        <ele>2027.4205</ele>
        <time>2021-08-21T10:24:42</time>
      </trkpt>
      <trkpt lat="45.41914" lon="6.52417">
        <ele>2027.4205</ele>
        <time>2021-08-21T10:24:43</time>
      </trkpt>
      <trkpt lat="45.41913" lon="6.52417">
        <ele>2027.4205</ele>
        <time>2021-08-21T10:24:44</time>
      </trkpt>
      <trkpt lat="45.41909" lon="6.52423">
        <ele>2027.4205</ele>
        <time>2021-08-21T10:24:49</time>
      </trkpt>
      <trkpt lat="45.41907" lon="6.52429">
        <ele>2026.5204</ele>
        <time>2021-08-21T10:24:53</time>
      </trkpt>
      <trkpt lat="45.41906" lon="6.52431">
        <ele>2026.5204</ele>
        <time>2021-08-21T10:24:55</time>
      </trkpt>
      <trkpt lat="45.41896" lon="6.52437">
        <ele>2024.8204</ele>
        <time>2021-08-21T10:25:10</time>
      </trkpt>
      <trkpt lat="45.41889" lon="6.52442">
        <ele>2024.9205</ele>
        <time>2021-08-21T10:25:18</time>
      </trkpt>
      <trkpt lat="45.41886" lon="6.52445">
        <ele>2024.9205</ele>
        <time>2021-08-21T10:25:21</time>
      </trkpt>
      <trkpt lat="45.41881" lon="6.52455">
        <ele>2023.1205</ele>
        <time>2021-08-21T10:25:29</time>
      </trkpt>
      <trkpt lat="45.41879" lon="6.52461">
        <ele>2021.1205</ele>
        <time>2021-08-21T10:25:33</time>
      </trkpt>
      <trkpt lat="45.41873" lon="6.52474">
        <ele>2018.2203</ele>
        <time>2021-08-21T10:25:43</time>
      </trkpt>
      <trkpt lat="45.41873" lon="6.52477">
        <ele>2018.2203</ele>
        <time>2021-08-21T10:25:45</time>
      </trkpt>
      <trkpt lat="45.41873" lon="6.5248">
        <ele>2018.2203</ele>
        <time>2021-08-21T10:25:46</time>
      </trkpt>
      <trkpt lat="45.41874" lon="6.52481">
        <ele>2018.2203</ele>
        <time>2021-08-21T10:25:47</time>
      </trkpt>
      <trkpt lat="45.41869" lon="6.52491">
        <ele>2016.7538</ele>
        <time>2021-08-21T10:25:56</time>
      </trkpt>
      <trkpt lat="45.41868" lon="6.52495">
        <ele>2016.7538</ele>
        <time>2021-08-21T10:25:58</time>
      </trkpt>
      <trkpt lat="45.41866" lon="6.525">
        <ele>2016.7538</ele>
        <time>2021-08-21T10:26:01</time>
      </trkpt>
      <trkpt lat="45.41853" lon="6.52531">
        <ele>2015.6205</ele>
        <time>2021-08-21T10:26:31</time>
      </trkpt>
      <trkpt lat="45.41845" lon="6.52537">
        <ele>2018.3204</ele>
        <time>2021-08-21T10:26:53</time>
      </trkpt>
      <trkpt lat="45.41836" lon="6.52545">
        <ele>2017.3204</ele>
        <time>2021-08-21T10:27:02</time>
      </trkpt>
      <trkpt lat="45.41833" lon="6.52547">
        <ele>2017.3204</ele>
        <time>2021-08-21T10:27:05</time>
      </trkpt>
      <trkpt lat="45.41827" lon="6.52552">
        <ele>2017.0204</ele>
        <time>2021-08-21T10:27:13</time>
      </trkpt>
      <trkpt lat="45.41826" lon="6.52552">
        <ele>2017.0204</ele>
        <time>2021-08-21T10:27:14</time>
      </trkpt>
      <trkpt lat="45.41825" lon="6.52552">
        <ele>2017.0204</ele>
        <time>2021-08-21T10:27:15</time>
      </trkpt>
      <trkpt lat="45.41824" lon="6.52553">
        <ele>2017.0204</ele>
        <time>2021-08-21T10:27:16</time>
      </trkpt>
      <trkpt lat="45.41815" lon="6.52554">
        <ele>2017.3204</ele>
        <time>2021-08-21T10:27:29</time>
      </trkpt>
      <trkpt lat="45.41813" lon="6.52554">
        <ele>2017.3204</ele>
        <time>2021-08-21T10:27:31</time>
      </trkpt>
      <trkpt lat="45.41812" lon="6.52553">
        <ele>2017.3204</ele>
        <time>2021-08-21T10:27:39</time>
      </trkpt>
      <trkpt lat="45.4181" lon="6.52563">
        <ele>2017.9205</ele>
        <time>2021-08-21T10:27:47</time>
      </trkpt>
      <trkpt lat="45.41816" lon="6.52574">
        <ele>2018.2203</ele>
        <time>2021-08-21T10:27:59</time>
      </trkpt>
      <trkpt lat="45.41817" lon="6.52576">
        <ele>2018.2203</ele>
        <time>2021-08-21T10:28:01</time>
      </trkpt>
      <trkpt lat="45.41817" lon="6.52576">
        <ele>2018.087</ele>
        <time>2021-08-21T10:28:02</time>
      </trkpt>
      <trkpt lat="45.41817" lon="6.52578">
        <ele>2018.087</ele>
        <time>2021-08-21T10:28:03</time>
      </trkpt>
      <trkpt lat="45.41817" lon="6.52585">
        <ele>2017.1537</ele>
        <time>2021-08-21T10:28:14</time>
      </trkpt>
      <trkpt lat="45.41818" lon="6.52587">
        <ele>2017.1537</ele>
        <time>2021-08-21T10:28:16</time>
      </trkpt>
      <trkpt lat="45.41818" lon="6.52587">
        <ele>2017.1537</ele>
        <time>2021-08-21T10:28:17</time>
      </trkpt>
      <trkpt lat="45.41814" lon="6.52599">
        <ele>2017.3204</ele>
        <time>2021-08-21T10:28:36</time>
      </trkpt>
      <trkpt lat="45.41803" lon="6.52602">
        <ele>2019.4205</ele>
        <time>2021-08-21T10:28:52</time>
      </trkpt>
      <trkpt lat="45.41791" lon="6.52606">
        <ele>2020.9205</ele>
        <time>2021-08-21T10:29:08</time>
      </trkpt>
      <trkpt lat="45.4179" lon="6.52606">
        <ele>2020.9205</ele>
        <time>2021-08-21T10:29:10</time>
      </trkpt>
      <trkpt lat="45.41785" lon="6.52618">
        <ele>2022.8204</ele>
        <time>2021-08-21T10:29:27</time>
      </trkpt>
      <trkpt lat="45.41784" lon="6.5262">
        <ele>2022.8204</ele>
        <time>2021-08-21T10:29:30</time>
      </trkpt>
      <trkpt lat="45.41785" lon="6.52625">
        <ele>2026.3204</ele>
        <time>2021-08-21T10:29:47</time>
      </trkpt>
      <trkpt lat="45.41785" lon="6.52624">
        <ele>2026.3204</ele>
        <time>2021-08-21T10:29:48</time>
      </trkpt>
      <trkpt lat="45.41785" lon="6.52623">
        <ele>2026.3204</ele>
        <time>2021-08-21T10:29:49</time>
      </trkpt>
      <trkpt lat="45.41776" lon="6.52629">
        <ele>2028.8204</ele>
        <time>2021-08-21T10:30:11</time>
      </trkpt>
      <trkpt lat="45.41774" lon="6.52631">
        <ele>2030.4205</ele>
        <time>2021-08-21T10:30:41</time>
      </trkpt>
      <trkpt lat="45.41774" lon="6.52631">
        <ele>2030.4205</ele>
        <time>2021-08-21T10:30:51</time>
      </trkpt>
      <trkpt lat="45.41774" lon="6.52631">
        <ele>2030.4205</ele>
        <time>2021-08-21T10:31:21</time>
      </trkpt>
      <trkpt lat="45.41768" lon="6.52637">
        <ele>2030.4205</ele>
        <time>2021-08-21T10:31:47</time>
      </trkpt>
      <trkpt lat="45.41764" lon="6.52636">
        <ele>2030.4205</ele>
        <time>2021-08-21T10:31:50</time>
      </trkpt>
      <trkpt lat="45.41763" lon="6.52635">
        <ele>2030.4205</ele>
        <time>2021-08-21T10:31:52</time>
      </trkpt>
      <trkpt lat="45.41754" lon="6.52635">
        <ele>2034.4205</ele>
        <time>2021-08-21T10:32:07</time>
      </trkpt>
      <trkpt lat="45.41753" lon="6.52635">
        <ele>2034.4205</ele>
        <time>2021-08-21T10:32:08</time>
      </trkpt>
      <trkpt lat="45.41752" lon="6.52636">
        <ele>2034.4205</ele>
        <time>2021-08-21T10:32:10</time>
      </trkpt>
      <trkpt lat="45.41743" lon="6.5264">
        <ele>2035.7203</ele>
        <time>2021-08-21T10:32:25</time>
      </trkpt>
      <trkpt lat="45.41742" lon="6.52639">
        <ele>2035.7203</ele>
        <time>2021-08-21T10:32:28</time>
      </trkpt>
      <trkpt lat="45.41734" lon="6.52649">
        <ele>2035.5204</ele>
        <time>2021-08-21T10:32:42</time>
      </trkpt>
      <trkpt lat="45.41734" lon="6.5265">
        <ele>2035.5204</ele>
        <time>2021-08-21T10:32:43</time>
      </trkpt>
      <trkpt lat="45.41734" lon="6.52653">
        <ele>2035.5204</ele>
        <time>2021-08-21T10:32:45</time>
      </trkpt>
      <trkpt lat="45.41734" lon="6.52665">
        <ele>2030.9205</ele>
        <time>2021-08-21T10:32:52</time>
      </trkpt>
      <trkpt lat="45.41735" lon="6.52671">
        <ele>2030.9205</ele>
        <time>2021-08-21T10:32:56</time>
      </trkpt>
      <trkpt lat="45.41735" lon="6.52673">
        <ele>2030.9205</ele>
        <time>2021-08-21T10:32:58</time>
      </trkpt>
      <trkpt lat="45.41729" lon="6.52682">
        <ele>2026.3204</ele>
        <time>2021-08-21T10:33:17</time>
      </trkpt>
      <trkpt lat="45.41728" lon="6.52682">
        <ele>2026.3204</ele>
        <time>2021-08-21T10:33:18</time>
      </trkpt>
      <trkpt lat="45.41727" lon="6.52682">
        <ele>2026.3204</ele>
        <time>2021-08-21T10:33:19</time>
      </trkpt>
      <trkpt lat="45.41721" lon="6.52682">
        <ele>2026.3204</ele>
        <time>2021-08-21T10:33:23</time>
      </trkpt>
      <trkpt lat="45.4172" lon="6.52683">
        <ele>2026.3204</ele>
        <time>2021-08-21T10:33:24</time>
      </trkpt>
      <trkpt lat="45.41718" lon="6.52685">
        <ele>2026.3204</ele>
        <time>2021-08-21T10:33:26</time>
      </trkpt>
      <trkpt lat="45.41717" lon="6.52687">
        <ele>2026.3204</ele>
        <time>2021-08-21T10:33:28</time>
      </trkpt>
      <trkpt lat="45.41716" lon="6.52687">
        <ele>2026.3204</ele>
        <time>2021-08-21T10:33:29</time>
      </trkpt>
      <trkpt lat="45.41709" lon="6.52686">
        <ele>2024.3539</ele>
        <time>2021-08-21T10:33:35</time>
      </trkpt>
      <trkpt lat="45.41701" lon="6.52686">
        <ele>2022.7203</ele>
        <time>2021-08-21T10:33:45</time>
      </trkpt>
      <trkpt lat="45.41694" lon="6.52689">
        <ele>2022.7203</ele>
        <time>2021-08-21T10:33:48</time>
      </trkpt>
      <trkpt lat="45.41694" lon="6.52689">
        <ele>2022.7203</ele>
        <time>2021-08-21T10:33:49</time>
      </trkpt>
      <trkpt lat="45.41694" lon="6.52689">
        <ele>2022.7203</ele>
        <time>2021-08-21T10:33:50</time>
      </trkpt>
      <trkpt lat="45.41687" lon="6.52686">
        <ele>2022.4205</ele>
        <time>2021-08-21T10:33:56</time>
      </trkpt>
      <trkpt lat="45.41685" lon="6.52686">
        <ele>2022.4205</ele>
        <time>2021-08-21T10:33:58</time>
      </trkpt>
      <trkpt lat="45.41681" lon="6.52684">
        <ele>2022.4205</ele>
        <time>2021-08-21T10:34:01</time>
      </trkpt>
      <trkpt lat="45.4168" lon="6.52684">
        <ele>2020.1871</ele>
        <time>2021-08-21T10:34:02</time>
      </trkpt>
      <trkpt lat="45.41679" lon="6.52683">
        <ele>2020.1871</ele>
        <time>2021-08-21T10:34:03</time>
      </trkpt>
      <trkpt lat="45.41679" lon="6.52682">
        <ele>2020.1871</ele>
        <time>2021-08-21T10:34:04</time>
      </trkpt>
      <trkpt lat="45.41676" lon="6.5268">
        <ele>2020.1871</ele>
        <time>2021-08-21T10:34:07</time>
      </trkpt>
      <trkpt lat="45.41674" lon="6.5268">
        <ele>2020.1871</ele>
        <time>2021-08-21T10:34:08</time>
      </trkpt>
      <trkpt lat="45.4167" lon="6.52676">
        <ele>2020.1205</ele>
        <time>2021-08-21T10:34:14</time>
      </trkpt>
      <trkpt lat="45.4167" lon="6.52675">
        <ele>2020.1205</ele>
        <time>2021-08-21T10:34:15</time>
      </trkpt>
      <trkpt lat="45.41661" lon="6.52672">
        <ele>2020.1205</ele>
        <time>2021-08-21T10:34:24</time>
      </trkpt>
      <trkpt lat="45.41659" lon="6.52671">
        <ele>2020.1205</ele>
        <time>2021-08-21T10:34:26</time>
      </trkpt>
      <trkpt lat="45.4165" lon="6.52666">
        <ele>2020.2203</ele>
        <time>2021-08-21T10:34:35</time>
      </trkpt>
      <trkpt lat="45.41641" lon="6.52658">
        <ele>2020.9205</ele>
        <time>2021-08-21T10:34:49</time>
      </trkpt>
      <trkpt lat="45.41641" lon="6.52657">
        <ele>2020.9205</ele>
        <time>2021-08-21T10:34:50</time>
      </trkpt>
      <trkpt lat="45.41633" lon="6.52652">
        <ele>2021.3204</ele>
        <time>2021-08-21T10:34:58</time>
      </trkpt>
      <trkpt lat="45.4163" lon="6.5265">
        <ele>2021.3204</ele>
        <time>2021-08-21T10:35:01</time>
      </trkpt>
      <trkpt lat="45.41611" lon="6.52645">
        <ele>2021.1205</ele>
        <time>2021-08-21T10:35:21</time>
      </trkpt>
      <trkpt lat="45.41597" lon="6.52639">
        <ele>2021.0204</ele>
        <time>2021-08-21T10:35:35</time>
      </trkpt>
      <trkpt lat="45.41592" lon="6.52639">
        <ele>2021.0204</ele>
        <time>2021-08-21T10:35:39</time>
      </trkpt>
      <trkpt lat="45.41587" lon="6.5264">
        <ele>2020.2203</ele>
        <time>2021-08-21T10:35:44</time>
      </trkpt>
      <trkpt lat="45.41585" lon="6.5264">
        <ele>2020.2203</ele>
        <time>2021-08-21T10:35:46</time>
      </trkpt>
      <trkpt lat="45.41584" lon="6.52643">
        <ele>2020.2203</ele>
        <time>2021-08-21T10:35:48</time>
      </trkpt>
      <trkpt lat="45.41585" lon="6.52643">
        <ele>2020.2203</ele>
        <time>2021-08-21T10:35:49</time>
      </trkpt>
      <trkpt lat="45.41576" lon="6.5265">
        <ele>2021.4205</ele>
        <time>2021-08-21T10:36:09</time>
      </trkpt>
      <trkpt lat="45.41576" lon="6.52651">
        <ele>2021.4205</ele>
        <time>2021-08-21T10:36:10</time>
      </trkpt>
      <trkpt lat="45.41568" lon="6.52661">
        <ele>2019.6205</ele>
        <time>2021-08-21T10:36:25</time>
      </trkpt>
      <trkpt lat="45.41561" lon="6.52674">
        <ele>2019.3204</ele>
        <time>2021-08-21T10:36:43</time>
      </trkpt>
      <trkpt lat="45.41561" lon="6.52675">
        <ele>2019.3204</ele>
        <time>2021-08-21T10:36:44</time>
      </trkpt>
      <trkpt lat="45.41554" lon="6.52685">
        <ele>2019.3204</ele>
        <time>2021-08-21T10:37:07</time>
      </trkpt>
      <trkpt lat="45.41548" lon="6.52697">
        <ele>2021.0204</ele>
        <time>2021-08-21T10:37:28</time>
      </trkpt>
      <trkpt lat="45.41546" lon="6.52699">
        <ele>2021.0204</ele>
        <time>2021-08-21T10:37:30</time>
      </trkpt>
      <trkpt lat="45.41546" lon="6.527">
        <ele>2021.0204</ele>
        <time>2021-08-21T10:37:31</time>
      </trkpt>
      <trkpt lat="45.41541" lon="6.52701">
        <ele>2021.7203</ele>
        <time>2021-08-21T10:37:47</time>
      </trkpt>
      <trkpt lat="45.41529" lon="6.52702">
        <ele>2024.2203</ele>
        <time>2021-08-21T10:38:05</time>
      </trkpt>
      <trkpt lat="45.41528" lon="6.52703">
        <ele>2024.2203</ele>
        <time>2021-08-21T10:38:06</time>
      </trkpt>
      <trkpt lat="45.41518" lon="6.52707">
        <ele>2025.3204</ele>
        <time>2021-08-21T10:38:22</time>
      </trkpt>
      <trkpt lat="45.41507" lon="6.52712">
        <ele>2025.3204</ele>
        <time>2021-08-21T10:38:37</time>
      </trkpt>
      <trkpt lat="45.41506" lon="6.52711">
        <ele>2025.3204</ele>
        <time>2021-08-21T10:38:38</time>
      </trkpt>
      <trkpt lat="45.41504" lon="6.52712">
        <ele>2025.3204</ele>
        <time>2021-08-21T10:38:40</time>
      </trkpt>
      <trkpt lat="45.41495" lon="6.52715">
        <ele>2029.3204</ele>
        <time>2021-08-21T10:38:54</time>
      </trkpt>
      <trkpt lat="45.41494" lon="6.52715">
        <ele>2029.3204</ele>
        <time>2021-08-21T10:38:56</time>
      </trkpt>
      <trkpt lat="45.41485" lon="6.52719">
        <ele>2029.3204</ele>
        <time>2021-08-21T10:39:07</time>
      </trkpt>
      <trkpt lat="45.41483" lon="6.5272">
        <ele>2029.3204</ele>
        <time>2021-08-21T10:39:09</time>
      </trkpt>
      <trkpt lat="45.41481" lon="6.52721">
        <ele>2029.3204</ele>
        <time>2021-08-21T10:39:10</time>
      </trkpt>
      <trkpt lat="45.41478" lon="6.52725">
        <ele>2031.0538</ele>
        <time>2021-08-21T10:39:15</time>
      </trkpt>
      <trkpt lat="45.41476" lon="6.52724">
        <ele>2031.0538</ele>
        <time>2021-08-21T10:39:18</time>
      </trkpt>
      <trkpt lat="45.41468" lon="6.52732">
        <ele>2032.3204</ele>
        <time>2021-08-21T10:39:30</time>
      </trkpt>
      <trkpt lat="45.41466" lon="6.52733">
        <ele>2031.8204</ele>
        <time>2021-08-21T10:39:32</time>
      </trkpt>
      <trkpt lat="45.41463" lon="6.52735">
        <ele>2031.8204</ele>
        <time>2021-08-21T10:39:34</time>
      </trkpt>
      <trkpt lat="45.41462" lon="6.52736">
        <ele>2031.8204</ele>
        <time>2021-08-21T10:39:35</time>
      </trkpt>
      <trkpt lat="45.41461" lon="6.52736">
        <ele>2031.8204</ele>
        <time>2021-08-21T10:39:36</time>
      </trkpt>
      <trkpt lat="45.41456" lon="6.52736">
        <ele>2031.7203</ele>
        <time>2021-08-21T10:39:43</time>
      </trkpt>
      <trkpt lat="45.41454" lon="6.52737">
        <ele>2031.7203</ele>
        <time>2021-08-21T10:39:45</time>
      </trkpt>
      <trkpt lat="45.41449" lon="6.5274">
        <ele>2031.7203</ele>
        <time>2021-08-21T10:39:49</time>
      </trkpt>
      <trkpt lat="45.41448" lon="6.52739">
        <ele>2031.7203</ele>
        <time>2021-08-21T10:39:50</time>
      </trkpt>
      <trkpt lat="45.41443" lon="6.52741">
        <ele>2032.1205</ele>
        <time>2021-08-21T10:39:56</time>
      </trkpt>
      <trkpt lat="45.4144" lon="6.52742">
        <ele>2032.1205</ele>
        <time>2021-08-21T10:39:59</time>
      </trkpt>
      <trkpt lat="45.41438" lon="6.52742">
        <ele>2032.1537</ele>
        <time>2021-08-21T10:40:02</time>
      </trkpt>
      <trkpt lat="45.41431" lon="6.52743">
        <ele>2031.8204</ele>
        <time>2021-08-21T10:40:16</time>
      </trkpt>
      <trkpt lat="45.4143" lon="6.52744">
        <ele>2031.8204</ele>
        <time>2021-08-21T10:40:18</time>
      </trkpt>
      <trkpt lat="45.41421" lon="6.52745">
        <ele>2030.6871</ele>
        <time>2021-08-21T10:40:29</time>
      </trkpt>
      <trkpt lat="45.4141" lon="6.52746">
        <ele>2029.3204</ele>
        <time>2021-08-21T10:40:49</time>
      </trkpt>
      <trkpt lat="45.41409" lon="6.52747">
        <ele>2029.3204</ele>
        <time>2021-08-21T10:40:50</time>
      </trkpt>
      <trkpt lat="45.41408" lon="6.52747">
        <ele>2029.3204</ele>
        <time>2021-08-21T10:40:52</time>
      </trkpt>
      <trkpt lat="45.41399" lon="6.52746">
        <ele>2026.3204</ele>
        <time>2021-08-21T10:41:04</time>
      </trkpt>
      <trkpt lat="45.41381" lon="6.52752">
        <ele>2022.9537</ele>
        <time>2021-08-21T10:41:25</time>
      </trkpt>
      <trkpt lat="45.4138" lon="6.52752">
        <ele>2022.9537</ele>
        <time>2021-08-21T10:41:27</time>
      </trkpt>
      <trkpt lat="45.41379" lon="6.52753">
        <ele>2019.8204</ele>
        <time>2021-08-21T10:41:43</time>
      </trkpt>
      <trkpt lat="45.4137" lon="6.52754">
        <ele>2019.8204</ele>
        <time>2021-08-21T10:41:45</time>
      </trkpt>
      <trkpt lat="45.41368" lon="6.52754">
        <ele>2019.8204</ele>
        <time>2021-08-21T10:41:47</time>
      </trkpt>
      <trkpt lat="45.41366" lon="6.52755">
        <ele>2019.8204</ele>
        <time>2021-08-21T10:41:50</time>
      </trkpt>
      <trkpt lat="45.41357" lon="6.52759">
        <ele>2019.4205</ele>
        <time>2021-08-21T10:42:06</time>
      </trkpt>
      <trkpt lat="45.41349" lon="6.5277">
        <ele>2019.4205</ele>
        <time>2021-08-21T10:42:21</time>
      </trkpt>
      <trkpt lat="45.41348" lon="6.52772">
        <ele>2021.5204</ele>
        <time>2021-08-21T10:42:23</time>
      </trkpt>
      <trkpt lat="45.41341" lon="6.52782">
        <ele>2023.1205</ele>
        <time>2021-08-21T10:42:39</time>
      </trkpt>
      <trkpt lat="45.41342" lon="6.52782">
        <ele>2023.1205</ele>
        <time>2021-08-21T10:42:40</time>
      </trkpt>
      <trkpt lat="45.41342" lon="6.52782">
        <ele>2023.1205</ele>
        <time>2021-08-21T10:42:41</time>
      </trkpt>
      <trkpt lat="45.41342" lon="6.52782">
        <ele>2023.4205</ele>
        <time>2021-08-21T10:42:42</time>
      </trkpt>
      <trkpt lat="45.41342" lon="6.52782">
        <ele>2023.4205</ele>
        <time>2021-08-21T10:42:48</time>
      </trkpt>
      <trkpt lat="45.41344" lon="6.52795">
        <ele>2025.587</ele>
        <time>2021-08-21T10:43:01</time>
      </trkpt>
      <trkpt lat="45.41341" lon="6.52811">
        <ele>2026.4537</ele>
        <time>2021-08-21T10:43:19</time>
      </trkpt>
      <trkpt lat="45.4134" lon="6.52812">
        <ele>2026.4537</ele>
        <time>2021-08-21T10:43:21</time>
      </trkpt>
      <trkpt lat="45.41339" lon="6.52812">
        <ele>2028.2203</ele>
        <time>2021-08-21T10:43:26</time>
      </trkpt>
      <trkpt lat="45.41333" lon="6.52821">
        <ele>2028.7203</ele>
        <time>2021-08-21T10:43:40</time>
      </trkpt>
      <trkpt lat="45.4133" lon="6.52822">
        <ele>2028.7203</ele>
        <time>2021-08-21T10:43:43</time>
      </trkpt>
      <trkpt lat="45.41327" lon="6.52825">
        <ele>2028.7203</ele>
        <time>2021-08-21T10:43:46</time>
      </trkpt>
      <trkpt lat="45.41325" lon="6.52826">
        <ele>2028.7203</ele>
        <time>2021-08-21T10:43:47</time>
      </trkpt>
      <trkpt lat="45.41324" lon="6.52826">
        <ele>2028.7203</ele>
        <time>2021-08-21T10:43:48</time>
      </trkpt>
      <trkpt lat="45.41324" lon="6.52826">
        <ele>2028.7203</ele>
        <time>2021-08-21T10:43:49</time>
      </trkpt>
      <trkpt lat="45.41318" lon="6.52825">
        <ele>2034.5204</ele>
        <time>2021-08-21T10:43:54</time>
      </trkpt>
      <trkpt lat="45.41315" lon="6.52825">
        <ele>2034.5204</ele>
        <time>2021-08-21T10:43:56</time>
      </trkpt>
      <trkpt lat="45.41314" lon="6.52825">
        <ele>2034.5204</ele>
        <time>2021-08-21T10:43:57</time>
      </trkpt>
      <trkpt lat="45.41311" lon="6.52823">
        <ele>2034.5204</ele>
        <time>2021-08-21T10:44:00</time>
      </trkpt>
      <trkpt lat="45.41305" lon="6.52824">
        <ele>2039.1205</ele>
        <time>2021-08-21T10:44:06</time>
      </trkpt>
      <trkpt lat="45.41303" lon="6.52825">
        <ele>2039.1205</ele>
        <time>2021-08-21T10:44:09</time>
      </trkpt>
      <trkpt lat="45.41303" lon="6.52826">
        <ele>2039.1205</ele>
        <time>2021-08-21T10:44:10</time>
      </trkpt>
      <trkpt lat="45.41298" lon="6.52828">
        <ele>2039.3871</ele>
        <time>2021-08-21T10:44:17</time>
      </trkpt>
      <trkpt lat="45.41272" lon="6.52834">
        <ele>2041.4205</ele>
        <time>2021-08-21T10:44:47</time>
      </trkpt>
      <trkpt lat="45.41251" lon="6.52839">
        <ele>2043.2203</ele>
        <time>2021-08-21T10:45:11</time>
      </trkpt>
      <trkpt lat="45.41245" lon="6.52843">
        <ele>2043.6205</ele>
        <time>2021-08-21T10:45:18</time>
      </trkpt>
      <trkpt lat="45.41244" lon="6.52844">
        <ele>2043.6205</ele>
        <time>2021-08-21T10:45:20</time>
      </trkpt>
      <trkpt lat="45.41233" lon="6.52846">
        <ele>2043.6205</ele>
        <time>2021-08-21T10:45:34</time>
      </trkpt>
      <trkpt lat="45.41232" lon="6.52848">
        <ele>2043.6205</ele>
        <time>2021-08-21T10:45:36</time>
      </trkpt>
      <trkpt lat="45.41225" lon="6.52851">
        <ele>2043.6205</ele>
        <time>2021-08-21T10:45:46</time>
      </trkpt>
      <trkpt lat="45.41224" lon="6.52853">
        <ele>2043.6205</ele>
        <time>2021-08-21T10:45:47</time>
      </trkpt>
      <trkpt lat="45.41223" lon="6.52855">
        <ele>2043.6205</ele>
        <time>2021-08-21T10:45:48</time>
      </trkpt>
      <trkpt lat="45.41221" lon="6.52856">
        <ele>2043.6205</ele>
        <time>2021-08-21T10:45:51</time>
      </trkpt>
      <trkpt lat="45.4122" lon="6.52857">
        <ele>2043.8539</ele>
        <time>2021-08-21T10:45:53</time>
      </trkpt>
      <trkpt lat="45.41214" lon="6.52868">
        <ele>2042.9537</ele>
        <time>2021-08-21T10:46:06</time>
      </trkpt>
      <trkpt lat="45.41214" lon="6.52869">
        <ele>2042.9537</ele>
        <time>2021-08-21T10:46:07</time>
      </trkpt>
      <trkpt lat="45.41214" lon="6.5287">
        <ele>2042.9537</ele>
        <time>2021-08-21T10:46:08</time>
      </trkpt>
      <trkpt lat="45.41213" lon="6.52871">
        <ele>2042.9537</ele>
        <time>2021-08-21T10:46:09</time>
      </trkpt>
      <trkpt lat="45.41207" lon="6.52881">
        <ele>2042.9205</ele>
        <time>2021-08-21T10:46:20</time>
      </trkpt>
      <trkpt lat="45.41201" lon="6.5289">
        <ele>2041.5204</ele>
        <time>2021-08-21T10:46:29</time>
      </trkpt>
      <trkpt lat="45.41193" lon="6.52901">
        <ele>2039.3204</ele>
        <time>2021-08-21T10:46:41</time>
      </trkpt>
      <trkpt lat="45.41191" lon="6.52906">
        <ele>2038.4872</ele>
        <time>2021-08-21T10:46:45</time>
      </trkpt>
      <trkpt lat="45.41184" lon="6.52918">
        <ele>2035.8204</ele>
        <time>2021-08-21T10:46:57</time>
      </trkpt>
      <trkpt lat="45.41181" lon="6.52932">
        <ele>2033.0204</ele>
        <time>2021-08-21T10:47:12</time>
      </trkpt>
      <trkpt lat="45.41181" lon="6.52932">
        <ele>2033.0204</ele>
        <time>2021-08-21T10:47:13</time>
      </trkpt>
      <trkpt lat="45.41179" lon="6.52945">
        <ele>2031.1205</ele>
        <time>2021-08-21T10:47:32</time>
      </trkpt>
      <trkpt lat="45.41179" lon="6.52958">
        <ele>2031.1205</ele>
        <time>2021-08-21T10:47:40</time>
      </trkpt>
      <trkpt lat="45.41179" lon="6.52965">
        <ele>2029.1205</ele>
        <time>2021-08-21T10:47:43</time>
      </trkpt>
      <trkpt lat="45.41179" lon="6.52967">
        <ele>2029.1205</ele>
        <time>2021-08-21T10:47:45</time>
      </trkpt>
      <trkpt lat="45.41179" lon="6.52969">
        <ele>2029.1205</ele>
        <time>2021-08-21T10:47:46</time>
      </trkpt>
      <trkpt lat="45.41181" lon="6.52974">
        <ele>2029.1205</ele>
        <time>2021-08-21T10:47:48</time>
      </trkpt>
      <trkpt lat="45.4118" lon="6.52975">
        <ele>2029.1205</ele>
        <time>2021-08-21T10:47:49</time>
      </trkpt>
      <trkpt lat="45.4118" lon="6.52976">
        <ele>2029.1205</ele>
        <time>2021-08-21T10:47:50</time>
      </trkpt>
      <trkpt lat="45.41181" lon="6.5299">
        <ele>2027.2538</ele>
        <time>2021-08-21T10:48:01</time>
      </trkpt>
      <trkpt lat="45.4118" lon="6.52994">
        <ele>2026.5204</ele>
        <time>2021-08-21T10:48:04</time>
      </trkpt>
      <trkpt lat="45.41178" lon="6.53008">
        <ele>2023.5204</ele>
        <time>2021-08-21T10:48:22</time>
      </trkpt>
      <trkpt lat="45.41178" lon="6.53009">
        <ele>2023.5204</ele>
        <time>2021-08-21T10:48:23</time>
      </trkpt>
      <trkpt lat="45.41178" lon="6.53009">
        <ele>2023.5204</ele>
        <time>2021-08-21T10:48:24</time>
      </trkpt>
      <trkpt lat="45.41175" lon="6.53023">
        <ele>2021.3204</ele>
        <time>2021-08-21T10:48:43</time>
      </trkpt>
      <trkpt lat="45.41174" lon="6.53025">
        <ele>2021.3204</ele>
        <time>2021-08-21T10:48:46</time>
      </trkpt>
      <trkpt lat="45.41166" lon="6.53033">
        <ele>2020.4872</ele>
        <time>2021-08-21T10:49:00</time>
      </trkpt>
      <trkpt lat="45.41159" lon="6.53042">
        <ele>2018.8204</ele>
        <time>2021-08-21T10:49:09</time>
      </trkpt>
      <trkpt lat="45.41156" lon="6.5305">
        <ele>2014.1537</ele>
        <time>2021-08-21T10:49:14</time>
      </trkpt>
      <trkpt lat="45.41153" lon="6.53053">
        <ele>2014.1537</ele>
        <time>2021-08-21T10:49:16</time>
      </trkpt>
      <trkpt lat="45.41152" lon="6.53055">
        <ele>2014.1537</ele>
        <time>2021-08-21T10:49:17</time>
      </trkpt>
      <trkpt lat="45.41147" lon="6.5306">
        <ele>2012.5204</ele>
        <time>2021-08-21T10:49:27</time>
      </trkpt>
      <trkpt lat="45.41147" lon="6.53061">
        <ele>2012.5204</ele>
        <time>2021-08-21T10:49:28</time>
      </trkpt>
      <trkpt lat="45.41143" lon="6.53067">
        <ele>2013.3539</ele>
        <time>2021-08-21T10:49:34</time>
      </trkpt>
      <trkpt lat="45.41138" lon="6.53071">
        <ele>2013.3539</ele>
        <time>2021-08-21T10:49:39</time>
      </trkpt>
      <trkpt lat="45.41136" lon="6.53073">
        <ele>2013.3539</ele>
        <time>2021-08-21T10:49:41</time>
      </trkpt>
      <trkpt lat="45.41134" lon="6.53077">
        <ele>2013.0204</ele>
        <time>2021-08-21T10:49:45</time>
      </trkpt>
      <trkpt lat="45.41131" lon="6.5308">
        <ele>2013.0204</ele>
        <time>2021-08-21T10:49:47</time>
      </trkpt>
      <trkpt lat="45.4113" lon="6.53082">
        <ele>2013.0204</ele>
        <time>2021-08-21T10:49:50</time>
      </trkpt>
      <trkpt lat="45.41129" lon="6.53083">
        <ele>2013.0204</ele>
        <time>2021-08-21T10:49:51</time>
      </trkpt>
      <trkpt lat="45.41124" lon="6.53089">
        <ele>2012.9205</ele>
        <time>2021-08-21T10:49:58</time>
      </trkpt>
      <trkpt lat="45.4112" lon="6.53091">
        <ele>2011.1537</ele>
        <time>2021-08-21T10:50:03</time>
      </trkpt>
      <trkpt lat="45.41109" lon="6.53101">
        <ele>2010.7203</ele>
        <time>2021-08-21T10:50:21</time>
      </trkpt>
      <trkpt lat="45.41108" lon="6.53101">
        <ele>2010.5204</ele>
        <time>2021-08-21T10:50:22</time>
      </trkpt>
      <trkpt lat="45.41095" lon="6.53107">
        <ele>2008.9205</ele>
        <time>2021-08-21T10:50:37</time>
      </trkpt>
      <trkpt lat="45.41093" lon="6.53106">
        <ele>2006.8204</ele>
        <time>2021-08-21T10:51:07</time>
      </trkpt>
      <trkpt lat="45.41093" lon="6.53106">
        <ele>2006.8204</ele>
        <time>2021-08-21T10:51:37</time>
      </trkpt>
      <trkpt lat="45.41088" lon="6.53108">
        <ele>2006.8204</ele>
        <time>2021-08-21T10:51:57</time>
      </trkpt>
      <trkpt lat="45.41088" lon="6.53109">
        <ele>2006.8204</ele>
        <time>2021-08-21T10:52:01</time>
      </trkpt>
      <trkpt lat="45.41078" lon="6.53112">
        <ele>2006.8204</ele>
        <time>2021-08-21T10:52:13</time>
      </trkpt>
      <trkpt lat="45.41069" lon="6.53117">
        <ele>2007.587</ele>
        <time>2021-08-21T10:52:23</time>
      </trkpt>
      <trkpt lat="45.4106" lon="6.53119">
        <ele>2008.2203</ele>
        <time>2021-08-21T10:52:34</time>
      </trkpt>
      <trkpt lat="45.41058" lon="6.5312">
        <ele>2008.2203</ele>
        <time>2021-08-21T10:52:38</time>
      </trkpt>
      <trkpt lat="45.41056" lon="6.5312">
        <ele>2008.2203</ele>
        <time>2021-08-21T10:52:40</time>
      </trkpt>
      <trkpt lat="45.41031" lon="6.53121">
        <ele>2009.5204</ele>
        <time>2021-08-21T10:53:10</time>
      </trkpt>
      <trkpt lat="45.41016" lon="6.53123">
        <ele>2012.8204</ele>
        <time>2021-08-21T10:53:26</time>
      </trkpt>
      <trkpt lat="45.4101" lon="6.53123">
        <ele>2014.0204</ele>
        <time>2021-08-21T10:53:33</time>
      </trkpt>
      <trkpt lat="45.41006" lon="6.53123">
        <ele>2014.0204</ele>
        <time>2021-08-21T10:53:36</time>
      </trkpt>
      <trkpt lat="45.40989" lon="6.53128">
        <ele>2016.4205</ele>
        <time>2021-08-21T10:53:56</time>
      </trkpt>
      <trkpt lat="45.40986" lon="6.53127">
        <ele>2016.4205</ele>
        <time>2021-08-21T10:53:58</time>
      </trkpt>
      <trkpt lat="45.40984" lon="6.53127">
        <ele>2016.4205</ele>
        <time>2021-08-21T10:54:00</time>
      </trkpt>
      <trkpt lat="45.40969" lon="6.53123">
        <ele>2018.287</ele>
        <time>2021-08-21T10:54:17</time>
      </trkpt>
      <trkpt lat="45.40967" lon="6.53122">
        <ele>2018.287</ele>
        <time>2021-08-21T10:54:19</time>
      </trkpt>
      <trkpt lat="45.40959" lon="6.53121">
        <ele>2020.6537</ele>
        <time>2021-08-21T10:54:26</time>
      </trkpt>
      <trkpt lat="45.40955" lon="6.53122">
        <ele>2020.6537</ele>
        <time>2021-08-21T10:54:31</time>
      </trkpt>
      <trkpt lat="45.40952" lon="6.53122">
        <ele>2020.9205</ele>
        <time>2021-08-21T10:54:34</time>
      </trkpt>
      <trkpt lat="45.40948" lon="6.53123">
        <ele>2020.9205</ele>
        <time>2021-08-21T10:54:38</time>
      </trkpt>
      <trkpt lat="45.40947" lon="6.53124">
        <ele>2020.9205</ele>
        <time>2021-08-21T10:54:39</time>
      </trkpt>
      <trkpt lat="45.40946" lon="6.53125">
        <ele>2020.9205</ele>
        <time>2021-08-21T10:54:40</time>
      </trkpt>
      <trkpt lat="45.40946" lon="6.53126">
        <ele>2020.9205</ele>
        <time>2021-08-21T10:54:41</time>
      </trkpt>
      <trkpt lat="45.40945" lon="6.53127">
        <ele>2020.2203</ele>
        <time>2021-08-21T10:54:42</time>
      </trkpt>
      <trkpt lat="45.40945" lon="6.53128">
        <ele>2020.2203</ele>
        <time>2021-08-21T10:54:43</time>
      </trkpt>
      <trkpt lat="45.40942" lon="6.53131">
        <ele>2020.2203</ele>
        <time>2021-08-21T10:54:46</time>
      </trkpt>
      <trkpt lat="45.40933" lon="6.53137">
        <ele>2019.2203</ele>
        <time>2021-08-21T10:55:02</time>
      </trkpt>
      <trkpt lat="45.40932" lon="6.53137">
        <ele>2019.2203</ele>
        <time>2021-08-21T10:55:04</time>
      </trkpt>
      <trkpt lat="45.40923" lon="6.53132">
        <ele>2019.2203</ele>
        <time>2021-08-21T10:55:17</time>
      </trkpt>
      <trkpt lat="45.40921" lon="6.53131">
        <ele>2019.2203</ele>
        <time>2021-08-21T10:55:19</time>
      </trkpt>
      <trkpt lat="45.40913" lon="6.53123">
        <ele>2018.3204</ele>
        <time>2021-08-21T10:55:31</time>
      </trkpt>
      <trkpt lat="45.40912" lon="6.53121">
        <ele>2018.0204</ele>
        <time>2021-08-21T10:55:33</time>
      </trkpt>
      <trkpt lat="45.40909" lon="6.53119">
        <ele>2018.0204</ele>
        <time>2021-08-21T10:55:35</time>
      </trkpt>
      <trkpt lat="45.40907" lon="6.53117">
        <ele>2018.0204</ele>
        <time>2021-08-21T10:55:38</time>
      </trkpt>
      <trkpt lat="45.40906" lon="6.53115">
        <ele>2018.0204</ele>
        <time>2021-08-21T10:55:39</time>
      </trkpt>
      <trkpt lat="45.40901" lon="6.53107">
        <ele>2018.0204</ele>
        <time>2021-08-21T10:55:46</time>
      </trkpt>
      <trkpt lat="45.40899" lon="6.53103">
        <ele>2018.0204</ele>
        <time>2021-08-21T10:55:49</time>
      </trkpt>
      <trkpt lat="45.40894" lon="6.53096">
        <ele>2017.4205</ele>
        <time>2021-08-21T10:55:54</time>
      </trkpt>
      <trkpt lat="45.40893" lon="6.53095">
        <ele>2017.4205</ele>
        <time>2021-08-21T10:55:55</time>
      </trkpt>
      <trkpt lat="45.40892" lon="6.53093">
        <ele>2017.4205</ele>
        <time>2021-08-21T10:55:56</time>
      </trkpt>
      <trkpt lat="45.4089" lon="6.53092">
        <ele>2017.4205</ele>
        <time>2021-08-21T10:55:57</time>
      </trkpt>
      <trkpt lat="45.4089" lon="6.53091">
        <ele>2017.4205</ele>
        <time>2021-08-21T10:55:58</time>
      </trkpt>
      <trkpt lat="45.40885" lon="6.53087">
        <ele>2017.2538</ele>
        <time>2021-08-21T10:56:05</time>
      </trkpt>
      <trkpt lat="45.40881" lon="6.53086">
        <ele>2017.2538</ele>
        <time>2021-08-21T10:56:08</time>
      </trkpt>
      <trkpt lat="45.40878" lon="6.53086">
        <ele>2017.1205</ele>
        <time>2021-08-21T10:56:12</time>
      </trkpt>
      <trkpt lat="45.40865" lon="6.53082">
        <ele>2016.9205</ele>
        <time>2021-08-21T10:56:26</time>
      </trkpt>
      <trkpt lat="45.40859" lon="6.5308">
        <ele>2016.5204</ele>
        <time>2021-08-21T10:56:32</time>
      </trkpt>
      <trkpt lat="45.40852" lon="6.53079">
        <ele>2016.5204</ele>
        <time>2021-08-21T10:56:40</time>
      </trkpt>
      <trkpt lat="45.40848" lon="6.53078">
        <ele>2016.5204</ele>
        <time>2021-08-21T10:56:45</time>
      </trkpt>
      <trkpt lat="45.40847" lon="6.53077">
        <ele>2016.5204</ele>
        <time>2021-08-21T10:56:46</time>
      </trkpt>
      <trkpt lat="45.40847" lon="6.53077">
        <ele>2016.5204</ele>
        <time>2021-08-21T10:56:47</time>
      </trkpt>
      <trkpt lat="45.40841" lon="6.53078">
        <ele>2016.4205</ele>
        <time>2021-08-21T10:56:52</time>
      </trkpt>
      <trkpt lat="45.4084" lon="6.53078">
        <ele>2016.4205</ele>
        <time>2021-08-21T10:56:53</time>
      </trkpt>
      <trkpt lat="45.40836" lon="6.53078">
        <ele>2016.4205</ele>
        <time>2021-08-21T10:56:58</time>
      </trkpt>
      <trkpt lat="45.40835" lon="6.53077">
        <ele>2016.4205</ele>
        <time>2021-08-21T10:56:59</time>
      </trkpt>
      <trkpt lat="45.40833" lon="6.53077">
        <ele>2016.4205</ele>
        <time>2021-08-21T10:57:01</time>
      </trkpt>
      <trkpt lat="45.40832" lon="6.53077">
        <ele>2015.4537</ele>
        <time>2021-08-21T10:57:02</time>
      </trkpt>
      <trkpt lat="45.40831" lon="6.53077">
        <ele>2015.4537</ele>
        <time>2021-08-21T10:57:03</time>
      </trkpt>
      <trkpt lat="45.40829" lon="6.53076">
        <ele>2015.4537</ele>
        <time>2021-08-21T10:57:05</time>
      </trkpt>
      <trkpt lat="45.40819" lon="6.53072">
        <ele>2014.8204</ele>
        <time>2021-08-21T10:57:15</time>
      </trkpt>
      <trkpt lat="45.40818" lon="6.53072">
        <ele>2014.8204</ele>
        <time>2021-08-21T10:57:16</time>
      </trkpt>
      <trkpt lat="45.40816" lon="6.53071">
        <ele>2014.8204</ele>
        <time>2021-08-21T10:57:19</time>
      </trkpt>
      <trkpt lat="45.40802" lon="6.53066">
        <ele>2015.4205</ele>
        <time>2021-08-21T10:57:36</time>
      </trkpt>
      <trkpt lat="45.40791" lon="6.53063">
        <ele>2015.3204</ele>
        <time>2021-08-21T10:57:48</time>
      </trkpt>
      <trkpt lat="45.40788" lon="6.53061">
        <ele>2015.3204</ele>
        <time>2021-08-21T10:57:51</time>
      </trkpt>
      <trkpt lat="45.40788" lon="6.5306">
        <ele>2016.8204</ele>
        <time>2021-08-21T10:57:52</time>
      </trkpt>
      <trkpt lat="45.40786" lon="6.53057">
        <ele>2016.8204</ele>
        <time>2021-08-21T10:57:56</time>
      </trkpt>
      <trkpt lat="45.4078" lon="6.53051">
        <ele>2016.8539</ele>
        <time>2021-08-21T10:58:02</time>
      </trkpt>
      <trkpt lat="45.40775" lon="6.53049">
        <ele>2016.8539</ele>
        <time>2021-08-21T10:58:06</time>
      </trkpt>
      <trkpt lat="45.40774" lon="6.53048">
        <ele>2016.8539</ele>
        <time>2021-08-21T10:58:08</time>
      </trkpt>
      <trkpt lat="45.40756" lon="6.53046">
        <ele>2014.0204</ele>
        <time>2021-08-21T10:58:24</time>
      </trkpt>
      <trkpt lat="45.4075" lon="6.53044">
        <ele>2014.0204</ele>
        <time>2021-08-21T10:58:30</time>
      </trkpt>
      <trkpt lat="45.40735" lon="6.53042">
        <ele>2012.5204</ele>
        <time>2021-08-21T10:58:45</time>
      </trkpt>
      <trkpt lat="45.40734" lon="6.53042">
        <ele>2012.5204</ele>
        <time>2021-08-21T10:58:46</time>
      </trkpt>
      <trkpt lat="45.40732" lon="6.53042">
        <ele>2012.5204</ele>
        <time>2021-08-21T10:58:48</time>
      </trkpt>
      <trkpt lat="45.4073" lon="6.53043">
        <ele>2012.5204</ele>
        <time>2021-08-21T10:58:50</time>
      </trkpt>
      <trkpt lat="45.40718" lon="6.53044">
        <ele>2014.5538</ele>
        <time>2021-08-21T10:59:02</time>
      </trkpt>
      <trkpt lat="45.40698" lon="6.53061">
        <ele>2013.3204</ele>
        <time>2021-08-21T10:59:32</time>
      </trkpt>
      <trkpt lat="45.40675" lon="6.53088">
        <ele>2013.6205</ele>
        <time>2021-08-21T11:00:02</time>
      </trkpt>
      <trkpt lat="45.40649" lon="6.53102">
        <ele>2013.8204</ele>
        <time>2021-08-21T11:00:32</time>
      </trkpt>
      <trkpt lat="45.40618" lon="6.5312">
        <ele>2014.6205</ele>
        <time>2021-08-21T11:01:02</time>
      </trkpt>
      <trkpt lat="45.40596" lon="6.53136">
        <ele>2011.2203</ele>
        <time>2021-08-21T11:01:32</time>
      </trkpt>
      <trkpt lat="45.40596" lon="6.53136">
        <ele>2010.7203</ele>
        <time>2021-08-21T11:01:46</time>
      </trkpt>
      <trkpt lat="45.40596" lon="6.53136">
        <ele>2010.7203</ele>
        <time>2021-08-21T11:02:23</time>
      </trkpt>
      <trkpt lat="45.40587" lon="6.53132">
        <ele>2010.7203</ele>
        <time>2021-08-21T11:02:51</time>
      </trkpt>
      <trkpt lat="45.40587" lon="6.53131">
        <ele>2010.7203</ele>
        <time>2021-08-21T11:02:52</time>
      </trkpt>
      <trkpt lat="45.40577" lon="6.5312">
        <ele>2010.7203</ele>
        <time>2021-08-21T11:03:02</time>
      </trkpt>
      <trkpt lat="45.40574" lon="6.53116">
        <ele>2010.7203</ele>
        <time>2021-08-21T11:03:06</time>
      </trkpt>
      <trkpt lat="45.40573" lon="6.53114">
        <ele>2010.7203</ele>
        <time>2021-08-21T11:03:08</time>
      </trkpt>
      <trkpt lat="45.40569" lon="6.5311">
        <ele>2010.5204</ele>
        <time>2021-08-21T11:03:12</time>
      </trkpt>
      <trkpt lat="45.40569" lon="6.53109">
        <ele>2010.5204</ele>
        <time>2021-08-21T11:03:13</time>
      </trkpt>
      <trkpt lat="45.40566" lon="6.53107">
        <ele>2010.5204</ele>
        <time>2021-08-21T11:03:16</time>
      </trkpt>
      <trkpt lat="45.40563" lon="6.53105">
        <ele>2010.5204</ele>
        <time>2021-08-21T11:03:18</time>
      </trkpt>
      <trkpt lat="45.40561" lon="6.53104">
        <ele>2010.5204</ele>
        <time>2021-08-21T11:03:20</time>
      </trkpt>
      <trkpt lat="45.4056" lon="6.53104">
        <ele>2010.5204</ele>
        <time>2021-08-21T11:03:21</time>
      </trkpt>
      <trkpt lat="45.40553" lon="6.53092">
        <ele>2009.9205</ele>
        <time>2021-08-21T11:03:50</time>
      </trkpt>
      <trkpt lat="45.40552" lon="6.5309">
        <ele>2009.9205</ele>
        <time>2021-08-21T11:03:52</time>
      </trkpt>
      <trkpt lat="45.40552" lon="6.5309">
        <ele>2009.9205</ele>
        <time>2021-08-21T11:04:01</time>
      </trkpt>
      <trkpt lat="45.40552" lon="6.5309">
        <ele>2009.9205</ele>
        <time>2021-08-21T11:04:06</time>
      </trkpt>
      <trkpt lat="45.40562" lon="6.53086">
        <ele>2009.9205</ele>
        <time>2021-08-21T11:04:11</time>
      </trkpt>
      <trkpt lat="45.4056" lon="6.53088">
        <ele>2009.9205</ele>
        <time>2021-08-21T11:04:12</time>
      </trkpt>
      <trkpt lat="45.40561" lon="6.53091">
        <ele>2009.9205</ele>
        <time>2021-08-21T11:04:15</time>
      </trkpt>
      <trkpt lat="45.4056" lon="6.53092">
        <ele>2009.9205</ele>
        <time>2021-08-21T11:04:16</time>
      </trkpt>
      <trkpt lat="45.40559" lon="6.53092">
        <ele>2009.9205</ele>
        <time>2021-08-21T11:04:17</time>
      </trkpt>
      <trkpt lat="45.40559" lon="6.53092">
        <ele>2013.6205</ele>
        <time>2021-08-21T11:04:37</time>
      </trkpt>
      <trkpt lat="45.40559" lon="6.53092">
        <ele>2013.6205</ele>
        <time>2021-08-21T11:04:41</time>
      </trkpt>
      <trkpt lat="45.40568" lon="6.5309">
        <ele>2013.6205</ele>
        <time>2021-08-21T11:04:53</time>
      </trkpt>
      <trkpt lat="45.40571" lon="6.53091">
        <ele>2013.6205</ele>
        <time>2021-08-21T11:04:56</time>
      </trkpt>
      <trkpt lat="45.40587" lon="6.5309">
        <ele>2010.1205</ele>
        <time>2021-08-21T11:05:14</time>
      </trkpt>
      <trkpt lat="45.40588" lon="6.53088">
        <ele>2010.1205</ele>
        <time>2021-08-21T11:05:15</time>
      </trkpt>
      <trkpt lat="45.4059" lon="6.53084">
        <ele>2010.1205</ele>
        <time>2021-08-21T11:05:18</time>
      </trkpt>
      <trkpt lat="45.40591" lon="6.53084">
        <ele>2004.8204</ele>
        <time>2021-08-21T11:05:49</time>
      </trkpt>
      <trkpt lat="45.40591" lon="6.53084">
        <ele>2004.8204</ele>
        <time>2021-08-21T11:06:00</time>
      </trkpt>
      <trkpt lat="45.40591" lon="6.53084">
        <ele>2004.8204</ele>
        <time>2021-08-21T11:06:02</time>
      </trkpt>
      <trkpt lat="45.40591" lon="6.53084">
        <ele>2004.8204</ele>
        <time>2021-08-21T11:06:20</time>
      </trkpt>
      <trkpt lat="45.40591" lon="6.53084">
        <ele>2004.8204</ele>
        <time>2021-08-21T11:06:22</time>
      </trkpt>
      <trkpt lat="45.40591" lon="6.53084">
        <ele>2004.8204</ele>
        <time>2021-08-21T11:06:43</time>
      </trkpt>
      <trkpt lat="45.406" lon="6.53082">
        <ele>2004.8204</ele>
        <time>2021-08-21T11:06:49</time>
      </trkpt>
      <trkpt lat="45.40601" lon="6.53081">
        <ele>2004.8204</ele>
        <time>2021-08-21T11:06:50</time>
      </trkpt>
      <trkpt lat="45.40601" lon="6.53082">
        <ele>2004.8204</ele>
        <time>2021-08-21T11:06:51</time>
      </trkpt>
      <trkpt lat="45.40601" lon="6.53082">
        <ele>2004.1205</ele>
        <time>2021-08-21T11:07:21</time>
      </trkpt>
      <trkpt lat="45.40601" lon="6.53082">
        <ele>2004.1205</ele>
        <time>2021-08-21T11:07:29</time>
      </trkpt>
      <trkpt lat="45.40601" lon="6.53082">
        <ele>2004.1205</ele>
        <time>2021-08-21T11:07:38</time>
      </trkpt>
      <trkpt lat="45.40601" lon="6.53082">
        <ele>2004.1205</ele>
        <time>2021-08-21T11:08:00</time>
      </trkpt>
      <trkpt lat="45.40601" lon="6.5308">
        <ele>2004.1205</ele>
        <time>2021-08-21T11:08:10</time>
      </trkpt>
      <trkpt lat="45.40602" lon="6.5308">
        <ele>2003.8539</ele>
        <time>2021-08-21T11:08:12</time>
      </trkpt>
      <trkpt lat="45.40602" lon="6.5308">
        <ele>2003.5204</ele>
        <time>2021-08-21T11:08:45</time>
      </trkpt>
      <trkpt lat="45.40602" lon="6.5308">
        <ele>2003.5204</ele>
        <time>2021-08-21T11:09:22</time>
      </trkpt>
      <trkpt lat="45.40602" lon="6.5308">
        <ele>2003.5204</ele>
        <time>2021-08-21T11:10:05</time>
      </trkpt>
      <trkpt lat="45.40598" lon="6.53077">
        <ele>2003.5204</ele>
        <time>2021-08-21T11:10:11</time>
      </trkpt>
      <trkpt lat="45.40595" lon="6.53075">
        <ele>2003.5204</ele>
        <time>2021-08-21T11:10:12</time>
      </trkpt>
      <trkpt lat="45.40595" lon="6.53075">
        <ele>2003.5204</ele>
        <time>2021-08-21T11:10:13</time>
      </trkpt>
      <trkpt lat="45.40595" lon="6.53075">
        <ele>2003.5204</ele>
        <time>2021-08-21T11:10:15</time>
      </trkpt>
      <trkpt lat="45.40595" lon="6.53075">
        <ele>2003.5204</ele>
        <time>2021-08-21T11:10:19</time>
      </trkpt>
      <trkpt lat="45.40595" lon="6.53075">
        <ele>2002.4205</ele>
        <time>2021-08-21T11:10:24</time>
      </trkpt>
      <trkpt lat="45.40595" lon="6.53075">
        <ele>2002.2203</ele>
        <time>2021-08-21T11:10:34</time>
      </trkpt>
      <trkpt lat="45.40595" lon="6.53075">
        <ele>2002.2203</ele>
        <time>2021-08-21T11:11:04</time>
      </trkpt>
      <trkpt lat="45.40595" lon="6.53075">
        <ele>2002.2203</ele>
        <time>2021-08-21T11:11:34</time>
      </trkpt>
      <trkpt lat="45.40586" lon="6.53079">
        <ele>2002.2203</ele>
        <time>2021-08-21T11:11:47</time>
      </trkpt>
      <trkpt lat="45.40586" lon="6.5308">
        <ele>2001.0204</ele>
        <time>2021-08-21T11:12:15</time>
      </trkpt>
      <trkpt lat="45.40586" lon="6.5308">
        <ele>2001.0204</ele>
        <time>2021-08-21T11:12:45</time>
      </trkpt>
      <trkpt lat="45.40586" lon="6.5308">
        <ele>2001.0204</ele>
        <time>2021-08-21T11:12:49</time>
      </trkpt>
      <trkpt lat="45.40586" lon="6.5308">
        <ele>2001.0204</ele>
        <time>2021-08-21T11:13:19</time>
      </trkpt>
      <trkpt lat="45.40577" lon="6.53082">
        <ele>2001.0204</ele>
        <time>2021-08-21T11:13:27</time>
      </trkpt>
      <trkpt lat="45.40575" lon="6.53082">
        <ele>2001.0204</ele>
        <time>2021-08-21T11:13:29</time>
      </trkpt>
      <trkpt lat="45.40564" lon="6.53083">
        <ele>2001.0204</ele>
        <time>2021-08-21T11:13:49</time>
      </trkpt>
      <trkpt lat="45.40563" lon="6.53084">
        <ele>2001.5204</ele>
        <time>2021-08-21T11:14:20</time>
      </trkpt>
      <trkpt lat="45.40554" lon="6.53087">
        <ele>2001.5204</ele>
        <time>2021-08-21T11:14:33</time>
      </trkpt>
      <trkpt lat="45.40553" lon="6.53088">
        <ele>2001.5204</ele>
        <time>2021-08-21T11:14:34</time>
      </trkpt>
      <trkpt lat="45.40551" lon="6.53088">
        <ele>2002.6205</ele>
        <time>2021-08-21T11:15:01</time>
      </trkpt>
      <trkpt lat="45.40553" lon="6.53101">
        <ele>2002.6205</ele>
        <time>2021-08-21T11:15:14</time>
      </trkpt>
      <trkpt lat="45.40554" lon="6.53103">
        <ele>2002.6205</ele>
        <time>2021-08-21T11:15:16</time>
      </trkpt>
      <trkpt lat="45.40556" lon="6.53116">
        <ele>2002.6205</ele>
        <time>2021-08-21T11:15:31</time>
      </trkpt>
      <trkpt lat="45.40557" lon="6.53117">
        <ele>2003.5204</ele>
        <time>2021-08-21T11:15:32</time>
      </trkpt>
      <trkpt lat="45.40557" lon="6.53118">
        <ele>2003.5204</ele>
        <time>2021-08-21T11:15:33</time>
      </trkpt>
      <trkpt lat="45.40563" lon="6.53127">
        <ele>2005.5204</ele>
        <time>2021-08-21T11:15:53</time>
      </trkpt>
      <trkpt lat="45.40565" lon="6.53128">
        <ele>2007.3871</ele>
        <time>2021-08-21T11:16:11</time>
      </trkpt>
      <trkpt lat="45.40574" lon="6.53138">
        <ele>2008.3204</ele>
        <time>2021-08-21T11:16:13</time>
      </trkpt>
      <trkpt lat="45.40581" lon="6.53149">
        <ele>2008.3204</ele>
        <time>2021-08-21T11:16:27</time>
      </trkpt>
      <trkpt lat="45.40583" lon="6.53151">
        <ele>2008.3204</ele>
        <time>2021-08-21T11:16:29</time>
      </trkpt>
      <trkpt lat="45.40584" lon="6.53153">
        <ele>2008.3204</ele>
        <time>2021-08-21T11:16:31</time>
      </trkpt>
      <trkpt lat="45.40585" lon="6.53154">
        <ele>2014.0204</ele>
        <time>2021-08-21T11:16:32</time>
      </trkpt>
      <trkpt lat="45.40586" lon="6.53154">
        <ele>2014.0204</ele>
        <time>2021-08-21T11:16:33</time>
      </trkpt>
      <trkpt lat="45.40586" lon="6.53154">
        <ele>2015.0204</ele>
        <time>2021-08-21T11:16:43</time>
      </trkpt>
      <trkpt lat="45.40586" lon="6.53154">
        <ele>2015.0204</ele>
        <time>2021-08-21T11:16:45</time>
      </trkpt>
      <trkpt lat="45.40591" lon="6.53167">
        <ele>2015.0204</ele>
        <time>2021-08-21T11:16:48</time>
      </trkpt>
      <trkpt lat="45.40608" lon="6.5319">
        <ele>2019.2203</ele>
        <time>2021-08-21T11:17:18</time>
      </trkpt>
      <trkpt lat="45.40627" lon="6.53215">
        <ele>2026.0204</ele>
        <time>2021-08-21T11:17:48</time>
      </trkpt>
      <trkpt lat="45.4064" lon="6.53238">
        <ele>2027.6205</ele>
        <time>2021-08-21T11:18:11</time>
      </trkpt>
      <trkpt lat="45.40645" lon="6.53252">
        <ele>2029.7203</ele>
        <time>2021-08-21T11:18:28</time>
      </trkpt>
      <trkpt lat="45.4064" lon="6.53268">
        <ele>2030.1205</ele>
        <time>2021-08-21T11:18:48</time>
      </trkpt>
      <trkpt lat="45.40628" lon="6.53273">
        <ele>2030.6205</ele>
        <time>2021-08-21T11:19:02</time>
      </trkpt>
      <trkpt lat="45.40627" lon="6.53273">
        <ele>2030.6205</ele>
        <time>2021-08-21T11:19:03</time>
      </trkpt>
      <trkpt lat="45.40625" lon="6.53273">
        <ele>2030.6205</ele>
        <time>2021-08-21T11:19:05</time>
      </trkpt>
      <trkpt lat="45.40616" lon="6.53277">
        <ele>2032.2203</ele>
        <time>2021-08-21T11:19:16</time>
      </trkpt>
      <trkpt lat="45.40615" lon="6.53278">
        <ele>2032.2203</ele>
        <time>2021-08-21T11:19:17</time>
      </trkpt>
      <trkpt lat="45.40608" lon="6.53287">
        <ele>2033.9205</ele>
        <time>2021-08-21T11:19:38</time>
      </trkpt>
      <trkpt lat="45.40608" lon="6.53287">
        <ele>2033.9205</ele>
        <time>2021-08-21T11:19:39</time>
      </trkpt>
      <trkpt lat="45.40608" lon="6.53288">
        <ele>2033.9205</ele>
        <time>2021-08-21T11:19:40</time>
      </trkpt>
      <trkpt lat="45.40603" lon="6.533">
        <ele>2036.5204</ele>
        <time>2021-08-21T11:20:06</time>
      </trkpt>
      <trkpt lat="45.40603" lon="6.53301">
        <ele>2036.5204</ele>
        <time>2021-08-21T11:20:08</time>
      </trkpt>
      <trkpt lat="45.40591" lon="6.533">
        <ele>2041.0538</ele>
        <time>2021-08-21T11:20:38</time>
      </trkpt>
      <trkpt lat="45.40582" lon="6.53295">
        <ele>2041.0538</ele>
        <time>2021-08-21T11:20:41</time>
      </trkpt>
      <trkpt lat="45.40572" lon="6.53299">
        <ele>2047.2203</ele>
        <time>2021-08-21T11:21:07</time>
      </trkpt>
      <trkpt lat="45.40571" lon="6.533">
        <ele>2047.2203</ele>
        <time>2021-08-21T11:21:08</time>
      </trkpt>
      <trkpt lat="45.40565" lon="6.53312">
        <ele>2052.3203</ele>
        <time>2021-08-21T11:21:27</time>
      </trkpt>
      <trkpt lat="45.40564" lon="6.53312">
        <ele>2052.3203</ele>
        <time>2021-08-21T11:21:28</time>
      </trkpt>
      <trkpt lat="45.40551" lon="6.53314">
        <ele>2052.3203</ele>
        <time>2021-08-21T11:21:40</time>
      </trkpt>
      <trkpt lat="45.40548" lon="6.53315">
        <ele>2053.387</ele>
        <time>2021-08-21T11:21:43</time>
      </trkpt>
      <trkpt lat="45.40547" lon="6.53315">
        <ele>2053.387</ele>
        <time>2021-08-21T11:21:44</time>
      </trkpt>
      <trkpt lat="45.40546" lon="6.53315">
        <ele>2053.387</ele>
        <time>2021-08-21T11:21:45</time>
      </trkpt>
      <trkpt lat="45.40546" lon="6.53315">
        <ele>2053.387</ele>
        <time>2021-08-21T11:21:46</time>
      </trkpt>
      <trkpt lat="45.40541" lon="6.53313">
        <ele>2053.5203</ele>
        <time>2021-08-21T11:21:53</time>
      </trkpt>
      <trkpt lat="45.40537" lon="6.53312">
        <ele>2053.5203</ele>
        <time>2021-08-21T11:21:58</time>
      </trkpt>
      <trkpt lat="45.40533" lon="6.53313">
        <ele>2053.8203</ele>
        <time>2021-08-21T11:22:03</time>
      </trkpt>
      <trkpt lat="45.40526" lon="6.53313">
        <ele>2053.8203</ele>
        <time>2021-08-21T11:22:10</time>
      </trkpt>
      <trkpt lat="45.4052" lon="6.53316">
        <ele>2052.3203</ele>
        <time>2021-08-21T11:22:13</time>
      </trkpt>
      <trkpt lat="45.40518" lon="6.53316">
        <ele>2052.3203</ele>
        <time>2021-08-21T11:22:15</time>
      </trkpt>
      <trkpt lat="45.40518" lon="6.53316">
        <ele>2052.3203</ele>
        <time>2021-08-21T11:22:16</time>
      </trkpt>
      <trkpt lat="45.40516" lon="6.53316">
        <ele>2052.3203</ele>
        <time>2021-08-21T11:22:18</time>
      </trkpt>
      <trkpt lat="45.40515" lon="6.53317">
        <ele>2052.3203</ele>
        <time>2021-08-21T11:22:19</time>
      </trkpt>
      <trkpt lat="45.40515" lon="6.53318">
        <ele>2052.3203</ele>
        <time>2021-08-21T11:22:20</time>
      </trkpt>
      <trkpt lat="45.40515" lon="6.53319">
        <ele>2052.3203</ele>
        <time>2021-08-21T11:22:21</time>
      </trkpt>
      <trkpt lat="45.40514" lon="6.53321">
        <ele>2051.087</ele>
        <time>2021-08-21T11:22:23</time>
      </trkpt>
      <trkpt lat="45.40512" lon="6.53324">
        <ele>2051.087</ele>
        <time>2021-08-21T11:22:27</time>
      </trkpt>
      <trkpt lat="45.40512" lon="6.53326">
        <ele>2051.087</ele>
        <time>2021-08-21T11:22:28</time>
      </trkpt>
      <trkpt lat="45.40511" lon="6.5333">
        <ele>2051.087</ele>
        <time>2021-08-21T11:22:30</time>
      </trkpt>
      <trkpt lat="45.40511" lon="6.53331">
        <ele>2051.087</ele>
        <time>2021-08-21T11:22:31</time>
      </trkpt>
      <trkpt lat="45.40511" lon="6.53332">
        <ele>2050.3203</ele>
        <time>2021-08-21T11:22:32</time>
      </trkpt>
      <trkpt lat="45.40511" lon="6.53336">
        <ele>2050.3203</ele>
        <time>2021-08-21T11:22:35</time>
      </trkpt>
      <trkpt lat="45.40511" lon="6.5334">
        <ele>2050.3203</ele>
        <time>2021-08-21T11:22:37</time>
      </trkpt>
      <trkpt lat="45.4051" lon="6.53341">
        <ele>2050.3203</ele>
        <time>2021-08-21T11:22:38</time>
      </trkpt>
      <trkpt lat="45.4051" lon="6.53344">
        <ele>2050.3203</ele>
        <time>2021-08-21T11:22:40</time>
      </trkpt>
      <trkpt lat="45.4051" lon="6.53345">
        <ele>2050.3203</ele>
        <time>2021-08-21T11:22:41</time>
      </trkpt>
      <trkpt lat="45.40505" lon="6.53357">
        <ele>2048.1204</ele>
        <time>2021-08-21T11:22:53</time>
      </trkpt>
      <trkpt lat="45.40495" lon="6.53368">
        <ele>2048.1204</ele>
        <time>2021-08-21T11:23:09</time>
      </trkpt>
      <trkpt lat="45.40483" lon="6.53369">
        <ele>2050.2202</ele>
        <time>2021-08-21T11:23:26</time>
      </trkpt>
      <trkpt lat="45.40482" lon="6.53369">
        <ele>2050.2202</ele>
        <time>2021-08-21T11:23:28</time>
      </trkpt>
      <trkpt lat="45.40481" lon="6.53369">
        <ele>2050.2202</ele>
        <time>2021-08-21T11:23:29</time>
      </trkpt>
      <trkpt lat="45.4047" lon="6.53369">
        <ele>2051.9204</ele>
        <time>2021-08-21T11:23:42</time>
      </trkpt>
      <trkpt lat="45.40467" lon="6.53368">
        <ele>2051.9204</ele>
        <time>2021-08-21T11:23:45</time>
      </trkpt>
      <trkpt lat="45.40465" lon="6.53368">
        <ele>2051.9204</ele>
        <time>2021-08-21T11:23:46</time>
      </trkpt>
      <trkpt lat="45.40464" lon="6.53368">
        <ele>2051.9204</ele>
        <time>2021-08-21T11:23:47</time>
      </trkpt>
      <trkpt lat="45.40456" lon="6.53365">
        <ele>2052.5203</ele>
        <time>2021-08-21T11:23:54</time>
      </trkpt>
      <trkpt lat="45.40454" lon="6.53364">
        <ele>2052.5203</ele>
        <time>2021-08-21T11:23:56</time>
      </trkpt>
      <trkpt lat="45.4045" lon="6.53363">
        <ele>2052.5203</ele>
        <time>2021-08-21T11:24:00</time>
      </trkpt>
      <trkpt lat="45.40448" lon="6.53362">
        <ele>2052.7202</ele>
        <time>2021-08-21T11:24:03</time>
      </trkpt>
      <trkpt lat="45.40448" lon="6.53363">
        <ele>2052.7202</ele>
        <time>2021-08-21T11:24:04</time>
      </trkpt>
      <trkpt lat="45.40447" lon="6.53363">
        <ele>2052.7202</ele>
        <time>2021-08-21T11:24:05</time>
      </trkpt>
      <trkpt lat="45.40445" lon="6.53362">
        <ele>2052.7202</ele>
        <time>2021-08-21T11:24:07</time>
      </trkpt>
      <trkpt lat="45.40445" lon="6.53362">
        <ele>2052.7202</ele>
        <time>2021-08-21T11:24:08</time>
      </trkpt>
      <trkpt lat="45.40443" lon="6.53363">
        <ele>2052.7202</ele>
        <time>2021-08-21T11:24:11</time>
      </trkpt>
      <trkpt lat="45.40441" lon="6.53364">
        <ele>2051.6204</ele>
        <time>2021-08-21T11:24:14</time>
      </trkpt>
      <trkpt lat="45.40431" lon="6.53361">
        <ele>2050.4536</ele>
        <time>2021-08-21T11:24:24</time>
      </trkpt>
      <trkpt lat="45.4043" lon="6.53362">
        <ele>2050.4536</ele>
        <time>2021-08-21T11:24:26</time>
      </trkpt>
      <trkpt lat="45.4043" lon="6.53362">
        <ele>2050.4536</ele>
        <time>2021-08-21T11:24:27</time>
      </trkpt>
      <trkpt lat="45.40429" lon="6.53361">
        <ele>2050.4536</ele>
        <time>2021-08-21T11:24:28</time>
      </trkpt>
      <trkpt lat="45.40419" lon="6.53362">
        <ele>2051.2537</ele>
        <time>2021-08-21T11:24:41</time>
      </trkpt>
      <trkpt lat="45.40418" lon="6.53362">
        <ele>2051.3203</ele>
        <time>2021-08-21T11:24:42</time>
      </trkpt>
      <trkpt lat="45.40406" lon="6.53358">
        <ele>2053.5203</ele>
        <time>2021-08-21T11:24:55</time>
      </trkpt>
      <trkpt lat="45.40405" lon="6.53359">
        <ele>2053.5203</ele>
        <time>2021-08-21T11:24:57</time>
      </trkpt>
      <trkpt lat="45.40397" lon="6.53358">
        <ele>2054.3538</ele>
        <time>2021-08-21T11:25:06</time>
      </trkpt>
      <trkpt lat="45.40396" lon="6.53359">
        <ele>2054.3538</ele>
        <time>2021-08-21T11:25:07</time>
      </trkpt>
      <trkpt lat="45.40396" lon="6.53359">
        <ele>2054.3538</ele>
        <time>2021-08-21T11:25:08</time>
      </trkpt>
      <trkpt lat="45.40394" lon="6.53359">
        <ele>2054.3538</ele>
        <time>2021-08-21T11:25:09</time>
      </trkpt>
      <trkpt lat="45.40385" lon="6.53359">
        <ele>2055.6204</ele>
        <time>2021-08-21T11:25:19</time>
      </trkpt>
      <trkpt lat="45.40384" lon="6.53359">
        <ele>2055.6204</ele>
        <time>2021-08-21T11:25:20</time>
      </trkpt>
      <trkpt lat="45.40381" lon="6.53359">
        <ele>2055.6204</ele>
        <time>2021-08-21T11:25:25</time>
      </trkpt>
      <trkpt lat="45.40378" lon="6.5336">
        <ele>2055.6204</ele>
        <time>2021-08-21T11:25:30</time>
      </trkpt>
      <trkpt lat="45.40364" lon="6.53361">
        <ele>2059.6204</ele>
        <time>2021-08-21T11:26:00</time>
      </trkpt>
      <trkpt lat="45.40355" lon="6.53363">
        <ele>2065.0203</ele>
        <time>2021-08-21T11:26:04</time>
      </trkpt>
      <trkpt lat="45.40354" lon="6.53363">
        <ele>2065.0203</ele>
        <time>2021-08-21T11:26:05</time>
      </trkpt>
      <trkpt lat="45.40354" lon="6.53362">
        <ele>2065.0203</ele>
        <time>2021-08-21T11:26:06</time>
      </trkpt>
      <trkpt lat="45.40353" lon="6.53362">
        <ele>2065.0203</ele>
        <time>2021-08-21T11:26:15</time>
      </trkpt>
      <trkpt lat="45.40344" lon="6.53363">
        <ele>2071.1204</ele>
        <time>2021-08-21T11:26:23</time>
      </trkpt>
      <trkpt lat="45.40332" lon="6.53366">
        <ele>2071.1204</ele>
        <time>2021-08-21T11:26:40</time>
      </trkpt>
      <trkpt lat="45.40331" lon="6.53366">
        <ele>2071.587</ele>
        <time>2021-08-21T11:26:42</time>
      </trkpt>
      <trkpt lat="45.40321" lon="6.53368">
        <ele>2071.3203</ele>
        <time>2021-08-21T11:26:59</time>
      </trkpt>
      <trkpt lat="45.4031" lon="6.53368">
        <ele>2071.7202</ele>
        <time>2021-08-21T11:27:14</time>
      </trkpt>
      <trkpt lat="45.4031" lon="6.53368">
        <ele>2071.7202</ele>
        <time>2021-08-21T11:27:15</time>
      </trkpt>
      <trkpt lat="45.40309" lon="6.53368">
        <ele>2071.7202</ele>
        <time>2021-08-21T11:27:16</time>
      </trkpt>
      <trkpt lat="45.40305" lon="6.53367">
        <ele>2071.7202</ele>
        <time>2021-08-21T11:27:21</time>
      </trkpt>
      <trkpt lat="45.40291" lon="6.53366">
        <ele>2073.1204</ele>
        <time>2021-08-21T11:27:51</time>
      </trkpt>
      <trkpt lat="45.40282" lon="6.53363">
        <ele>2075.6204</ele>
        <time>2021-08-21T11:27:56</time>
      </trkpt>
      <trkpt lat="45.40273" lon="6.53358">
        <ele>2077.5203</ele>
        <time>2021-08-21T11:28:17</time>
      </trkpt>
      <trkpt lat="45.40273" lon="6.53357">
        <ele>2077.5203</ele>
        <time>2021-08-21T11:28:18</time>
      </trkpt>
      <trkpt lat="45.40272" lon="6.53357">
        <ele>2077.5203</ele>
        <time>2021-08-21T11:28:20</time>
      </trkpt>
      <trkpt lat="45.40264" lon="6.53359">
        <ele>2079.5203</ele>
        <time>2021-08-21T11:28:42</time>
      </trkpt>
      <trkpt lat="45.40263" lon="6.53359">
        <ele>2079.5203</ele>
        <time>2021-08-21T11:28:43</time>
      </trkpt>
      <trkpt lat="45.40255" lon="6.5336">
        <ele>2079.5203</ele>
        <time>2021-08-21T11:28:50</time>
      </trkpt>
      <trkpt lat="45.40254" lon="6.5336">
        <ele>2079.5203</ele>
        <time>2021-08-21T11:28:51</time>
      </trkpt>
      <trkpt lat="45.40254" lon="6.5336">
        <ele>2079.6204</ele>
        <time>2021-08-21T11:28:52</time>
      </trkpt>
      <trkpt lat="45.40249" lon="6.53362">
        <ele>2079.6204</ele>
        <time>2021-08-21T11:28:55</time>
      </trkpt>
      <trkpt lat="45.40248" lon="6.53362">
        <ele>2079.6204</ele>
        <time>2021-08-21T11:28:56</time>
      </trkpt>
      <trkpt lat="45.40238" lon="6.53362">
        <ele>2080.8203</ele>
        <time>2021-08-21T11:29:20</time>
      </trkpt>
      <trkpt lat="45.40228" lon="6.53361">
        <ele>2083.2202</ele>
        <time>2021-08-21T11:29:50</time>
      </trkpt>
      <trkpt lat="45.40227" lon="6.53361">
        <ele>2083.2202</ele>
        <time>2021-08-21T11:29:52</time>
      </trkpt>
      <trkpt lat="45.40217" lon="6.53362">
        <ele>2083.9204</ele>
        <time>2021-08-21T11:30:14</time>
      </trkpt>
      <trkpt lat="45.40217" lon="6.53361">
        <ele>2083.9204</ele>
        <time>2021-08-21T11:30:15</time>
      </trkpt>
      <trkpt lat="45.40217" lon="6.53362">
        <ele>2083.9204</ele>
        <time>2021-08-21T11:30:16</time>
      </trkpt>
      <trkpt lat="45.40217" lon="6.53362">
        <ele>2083.9204</ele>
        <time>2021-08-21T11:30:17</time>
      </trkpt>
      <trkpt lat="45.4021" lon="6.53371">
        <ele>2083.9204</ele>
        <time>2021-08-21T11:30:44</time>
      </trkpt>
      <trkpt lat="45.4021" lon="6.53371">
        <ele>2083.9204</ele>
        <time>2021-08-21T11:30:46</time>
      </trkpt>
      <trkpt lat="45.40202" lon="6.53379">
        <ele>2086.0203</ele>
        <time>2021-08-21T11:31:16</time>
      </trkpt>
      <trkpt lat="45.40201" lon="6.5338">
        <ele>2086.0203</ele>
        <time>2021-08-21T11:31:18</time>
      </trkpt>
      <trkpt lat="45.40201" lon="6.53381">
        <ele>2086.0203</ele>
        <time>2021-08-21T11:31:26</time>
      </trkpt>
      <trkpt lat="45.40193" lon="6.53388">
        <ele>2092.7202</ele>
        <time>2021-08-21T11:31:41</time>
      </trkpt>
      <trkpt lat="45.40193" lon="6.53388">
        <ele>2092.7202</ele>
        <time>2021-08-21T11:31:42</time>
      </trkpt>
      <trkpt lat="45.40183" lon="6.5339">
        <ele>2097.5203</ele>
        <time>2021-08-21T11:32:08</time>
      </trkpt>
      <trkpt lat="45.40173" lon="6.53395">
        <ele>2102.8203</ele>
        <time>2021-08-21T11:32:34</time>
      </trkpt>
      <trkpt lat="45.40162" lon="6.53396">
        <ele>2103.6204</ele>
        <time>2021-08-21T11:32:59</time>
      </trkpt>
      <trkpt lat="45.40153" lon="6.53398">
        <ele>2106.5203</ele>
        <time>2021-08-21T11:33:17</time>
      </trkpt>
      <trkpt lat="45.40151" lon="6.53398">
        <ele>2106.5203</ele>
        <time>2021-08-21T11:33:19</time>
      </trkpt>
      <trkpt lat="45.40141" lon="6.53401">
        <ele>2106.6204</ele>
        <time>2021-08-21T11:33:31</time>
      </trkpt>
      <trkpt lat="45.40139" lon="6.53402">
        <ele>2109.5203</ele>
        <time>2021-08-21T11:33:34</time>
      </trkpt>
      <trkpt lat="45.4013" lon="6.53401">
        <ele>2111.6204</ele>
        <time>2021-08-21T11:33:46</time>
      </trkpt>
      <trkpt lat="45.40128" lon="6.53401">
        <ele>2111.6204</ele>
        <time>2021-08-21T11:33:49</time>
      </trkpt>
      <trkpt lat="45.40118" lon="6.534">
        <ele>2115.0203</ele>
        <time>2021-08-21T11:34:04</time>
      </trkpt>
      <trkpt lat="45.40117" lon="6.53401">
        <ele>2115.0203</ele>
        <time>2021-08-21T11:34:05</time>
      </trkpt>
      <trkpt lat="45.40116" lon="6.53401">
        <ele>2115.0203</ele>
        <time>2021-08-21T11:34:07</time>
      </trkpt>
      <trkpt lat="45.40106" lon="6.53407">
        <ele>2117.7202</ele>
        <time>2021-08-21T11:34:18</time>
      </trkpt>
      <trkpt lat="45.40098" lon="6.53415">
        <ele>2118.8203</ele>
        <time>2021-08-21T11:34:30</time>
      </trkpt>
      <trkpt lat="45.40095" lon="6.53415">
        <ele>2124.5537</ele>
        <time>2021-08-21T11:34:33</time>
      </trkpt>
      <trkpt lat="45.40095" lon="6.53415">
        <ele>2124.5537</ele>
        <time>2021-08-21T11:34:34</time>
      </trkpt>
      <trkpt lat="45.4009" lon="6.53415">
        <ele>2124.5537</ele>
        <time>2021-08-21T11:34:37</time>
      </trkpt>
      <trkpt lat="45.40088" lon="6.53414">
        <ele>2124.5537</ele>
        <time>2021-08-21T11:34:39</time>
      </trkpt>
      <trkpt lat="45.40087" lon="6.53414">
        <ele>2124.5537</ele>
        <time>2021-08-21T11:34:40</time>
      </trkpt>
      <trkpt lat="45.40083" lon="6.53415">
        <ele>2129.5203</ele>
        <time>2021-08-21T11:34:43</time>
      </trkpt>
      <trkpt lat="45.40082" lon="6.53415">
        <ele>2129.5203</ele>
        <time>2021-08-21T11:34:44</time>
      </trkpt>
      <trkpt lat="45.4008" lon="6.53415">
        <ele>2129.5203</ele>
        <time>2021-08-21T11:34:46</time>
      </trkpt>
      <trkpt lat="45.40079" lon="6.53415">
        <ele>2129.5203</ele>
        <time>2021-08-21T11:34:47</time>
      </trkpt>
      <trkpt lat="45.40078" lon="6.53415">
        <ele>2129.5203</ele>
        <time>2021-08-21T11:34:49</time>
      </trkpt>
      <trkpt lat="45.40069" lon="6.53411">
        <ele>2131.5203</ele>
        <time>2021-08-21T11:35:11</time>
      </trkpt>
      <trkpt lat="45.40069" lon="6.53411">
        <ele>2131.5203</ele>
        <time>2021-08-21T11:35:13</time>
      </trkpt>
      <trkpt lat="45.40069" lon="6.53411">
        <ele>2136.9204</ele>
        <time>2021-08-21T11:35:44</time>
      </trkpt>
      <trkpt lat="45.40069" lon="6.53411">
        <ele>2136.9204</ele>
        <time>2021-08-21T11:36:14</time>
      </trkpt>
      <trkpt lat="45.40069" lon="6.53411">
        <ele>2136.9204</ele>
        <time>2021-08-21T11:36:50</time>
      </trkpt>
      <trkpt lat="45.40069" lon="6.53411">
        <ele>2136.9204</ele>
        <time>2021-08-21T11:37:27</time>
      </trkpt>
      <trkpt lat="45.40069" lon="6.53411">
        <ele>2136.9204</ele>
        <time>2021-08-21T11:37:38</time>
      </trkpt>
      <trkpt lat="45.40069" lon="6.53411">
        <ele>2136.9204</ele>
        <time>2021-08-21T11:38:11</time>
      </trkpt>
      <trkpt lat="45.40069" lon="6.53411">
        <ele>2136.9204</ele>
        <time>2021-08-21T11:38:41</time>
      </trkpt>
      <trkpt lat="45.40069" lon="6.53411">
        <ele>2136.9204</ele>
        <time>2021-08-21T11:39:11</time>
      </trkpt>
      <trkpt lat="45.4006" lon="6.53408">
        <ele>2136.9204</ele>
        <time>2021-08-21T11:39:36</time>
      </trkpt>
      <trkpt lat="45.40057" lon="6.53409">
        <ele>2136.9204</ele>
        <time>2021-08-21T11:39:39</time>
      </trkpt>
      <trkpt lat="45.40052" lon="6.5341">
        <ele>2136.9204</ele>
        <time>2021-08-21T11:39:47</time>
      </trkpt>
      <trkpt lat="45.4005" lon="6.5341">
        <ele>2136.9204</ele>
        <time>2021-08-21T11:39:48</time>
      </trkpt>
      <trkpt lat="45.4004" lon="6.53409">
        <ele>2136.6204</ele>
        <time>2021-08-21T11:40:02</time>
      </trkpt>
      <trkpt lat="45.40033" lon="6.53409">
        <ele>2138.1204</ele>
        <time>2021-08-21T11:40:15</time>
      </trkpt>
      <trkpt lat="45.40033" lon="6.53409">
        <ele>2138.1204</ele>
        <time>2021-08-21T11:40:16</time>
      </trkpt>
      <trkpt lat="45.40033" lon="6.53409">
        <ele>2138.1204</ele>
        <time>2021-08-21T11:40:17</time>
      </trkpt>
      <trkpt lat="45.40024" lon="6.5341">
        <ele>2139.6204</ele>
        <time>2021-08-21T11:40:46</time>
      </trkpt>
      <trkpt lat="45.40022" lon="6.53409">
        <ele>2139.6204</ele>
        <time>2021-08-21T11:40:49</time>
      </trkpt>
      <trkpt lat="45.40012" lon="6.53409">
        <ele>2141.5203</ele>
        <time>2021-08-21T11:41:05</time>
      </trkpt>
      <trkpt lat="45.40011" lon="6.53409">
        <ele>2141.5203</ele>
        <time>2021-08-21T11:41:07</time>
      </trkpt>
      <trkpt lat="45.40001" lon="6.53413">
        <ele>2144.1204</ele>
        <time>2021-08-21T11:41:22</time>
      </trkpt>
      <trkpt lat="45.4" lon="6.53413">
        <ele>2144.1204</ele>
        <time>2021-08-21T11:41:23</time>
      </trkpt>
      <trkpt lat="45.39989" lon="6.53416">
        <ele>2144.8203</ele>
        <time>2021-08-21T11:41:41</time>
      </trkpt>
      <trkpt lat="45.3998" lon="6.53415">
        <ele>2147.2202</ele>
        <time>2021-08-21T11:41:59</time>
      </trkpt>
      <trkpt lat="45.3998" lon="6.53414">
        <ele>2147.2202</ele>
        <time>2021-08-21T11:42:02</time>
      </trkpt>
      <trkpt lat="45.39977" lon="6.5342">
        <ele>2149.3203</ele>
        <time>2021-08-21T11:42:26</time>
      </trkpt>
      <trkpt lat="45.39974" lon="6.53421">
        <ele>2149.3203</ele>
        <time>2021-08-21T11:42:29</time>
      </trkpt>
      <trkpt lat="45.39974" lon="6.53419">
        <ele>2149.3203</ele>
        <time>2021-08-21T11:42:30</time>
      </trkpt>
      <trkpt lat="45.39974" lon="6.53419">
        <ele>2149.3203</ele>
        <time>2021-08-21T11:42:32</time>
      </trkpt>
      <trkpt lat="45.39967" lon="6.53423">
        <ele>2149.3203</ele>
        <time>2021-08-21T11:42:41</time>
      </trkpt>
      <trkpt lat="45.39966" lon="6.53424">
        <ele>2149.087</ele>
        <time>2021-08-21T11:42:43</time>
      </trkpt>
      <trkpt lat="45.39964" lon="6.53426">
        <ele>2149.087</ele>
        <time>2021-08-21T11:42:46</time>
      </trkpt>
      <trkpt lat="45.39955" lon="6.53434">
        <ele>2150.1204</ele>
        <time>2021-08-21T11:42:58</time>
      </trkpt>
      <trkpt lat="45.39955" lon="6.53436">
        <ele>2150.1204</ele>
        <time>2021-08-21T11:43:01</time>
      </trkpt>
      <trkpt lat="45.39947" lon="6.53445">
        <ele>2151.5203</ele>
        <time>2021-08-21T11:43:15</time>
      </trkpt>
      <trkpt lat="45.39947" lon="6.53446">
        <ele>2151.5203</ele>
        <time>2021-08-21T11:43:16</time>
      </trkpt>
      <trkpt lat="45.39946" lon="6.53447">
        <ele>2151.5203</ele>
        <time>2021-08-21T11:43:17</time>
      </trkpt>
      <trkpt lat="45.39938" lon="6.53455">
        <ele>2151.5203</ele>
        <time>2021-08-21T11:43:31</time>
      </trkpt>
      <trkpt lat="45.39937" lon="6.53456">
        <ele>2153.1204</ele>
        <time>2021-08-21T11:43:33</time>
      </trkpt>
      <trkpt lat="45.39937" lon="6.53456">
        <ele>2153.1204</ele>
        <time>2021-08-21T11:43:34</time>
      </trkpt>
      <trkpt lat="45.39935" lon="6.53464">
        <ele>2154.9204</ele>
        <time>2021-08-21T11:43:42</time>
      </trkpt>
      <trkpt lat="45.39935" lon="6.53466">
        <ele>2154.9204</ele>
        <time>2021-08-21T11:43:44</time>
      </trkpt>
      <trkpt lat="45.39935" lon="6.53468">
        <ele>2154.9204</ele>
        <time>2021-08-21T11:43:45</time>
      </trkpt>
      <trkpt lat="45.39935" lon="6.53469">
        <ele>2154.9204</ele>
        <time>2021-08-21T11:43:46</time>
      </trkpt>
      <trkpt lat="45.39935" lon="6.5347">
        <ele>2154.9204</ele>
        <time>2021-08-21T11:43:48</time>
      </trkpt>
      <trkpt lat="45.39935" lon="6.5347">
        <ele>2155.7202</ele>
        <time>2021-08-21T11:44:18</time>
      </trkpt>
      <trkpt lat="45.39935" lon="6.5347">
        <ele>2155.7202</ele>
        <time>2021-08-21T11:44:20</time>
      </trkpt>
      <trkpt lat="45.39934" lon="6.53483">
        <ele>2155.7202</ele>
        <time>2021-08-21T11:44:30</time>
      </trkpt>
      <trkpt lat="45.39933" lon="6.53483">
        <ele>2155.7202</ele>
        <time>2021-08-21T11:44:31</time>
      </trkpt>
      <trkpt lat="45.39932" lon="6.53482">
        <ele>2155.7202</ele>
        <time>2021-08-21T11:44:33</time>
      </trkpt>
      <trkpt lat="45.39926" lon="6.53473">
        <ele>2155.4204</ele>
        <time>2021-08-21T11:44:58</time>
      </trkpt>
      <trkpt lat="45.39925" lon="6.53473">
        <ele>2155.4204</ele>
        <time>2021-08-21T11:45:00</time>
      </trkpt>
      <trkpt lat="45.39917" lon="6.53465">
        <ele>2158.7202</ele>
        <time>2021-08-21T11:45:24</time>
      </trkpt>
      <trkpt lat="45.39909" lon="6.53452">
        <ele>2158.7202</ele>
        <time>2021-08-21T11:45:41</time>
      </trkpt>
      <trkpt lat="45.39909" lon="6.5345">
        <ele>2158.6204</ele>
        <time>2021-08-21T11:45:43</time>
      </trkpt>
      <trkpt lat="45.39909" lon="6.53449">
        <ele>2158.2202</ele>
        <time>2021-08-21T11:46:12</time>
      </trkpt>
      <trkpt lat="45.39909" lon="6.53449">
        <ele>2158.2202</ele>
        <time>2021-08-21T11:46:54</time>
      </trkpt>
      <trkpt lat="45.39909" lon="6.53449">
        <ele>2158.2202</ele>
        <time>2021-08-21T11:46:57</time>
      </trkpt>
      <trkpt lat="45.39909" lon="6.53449">
        <ele>2158.2202</ele>
        <time>2021-08-21T11:51:58</time>
      </trkpt>
      <trkpt lat="45.39912" lon="6.53439">
        <ele>2158.2202</ele>
        <time>2021-08-21T11:52:40</time>
      </trkpt>
      <trkpt lat="45.39912" lon="6.53439">
        <ele>2158.2202</ele>
        <time>2021-08-21T11:54:00</time>
      </trkpt>
      <trkpt lat="45.39912" lon="6.53439">
        <ele>2160.7202</ele>
        <time>2021-08-21T12:00:13</time>
      </trkpt>
      <trkpt lat="45.39911" lon="6.53438">
        <ele>2160.7202</ele>
        <time>2021-08-21T12:01:56</time>
      </trkpt>
      <trkpt lat="45.39912" lon="6.53438">
        <ele>2163.2202</ele>
        <time>2021-08-21T12:03:34</time>
      </trkpt>
      <trkpt lat="45.39912" lon="6.53438">
        <ele>2163.2202</ele>
        <time>2021-08-21T12:05:11</time>
      </trkpt>
      <trkpt lat="45.39912" lon="6.53438">
        <ele>2163.2202</ele>
        <time>2021-08-21T12:05:42</time>
      </trkpt>
      <trkpt lat="45.39912" lon="6.53438">
        <ele>2163.2202</ele>
        <time>2021-08-21T12:06:12</time>
      </trkpt>
      <trkpt lat="45.39912" lon="6.53438">
        <ele>2163.2202</ele>
        <time>2021-08-21T12:06:47</time>
      </trkpt>
      <trkpt lat="45.39912" lon="6.53438">
        <ele>2163.2202</ele>
        <time>2021-08-21T12:07:19</time>
      </trkpt>
      <trkpt lat="45.39913" lon="6.53436">
        <ele>2163.2202</ele>
        <time>2021-08-21T12:07:36</time>
      </trkpt>
      <trkpt lat="45.39912" lon="6.53436">
        <ele>2163.2202</ele>
        <time>2021-08-21T12:07:38</time>
      </trkpt>
      <trkpt lat="45.39913" lon="6.53436">
        <ele>2163.2202</ele>
        <time>2021-08-21T12:07:39</time>
      </trkpt>
      <trkpt lat="45.39914" lon="6.53436">
        <ele>2163.2202</ele>
        <time>2021-08-21T12:07:40</time>
      </trkpt>
      <trkpt lat="45.39914" lon="6.53436">
        <ele>2163.2202</ele>
        <time>2021-08-21T12:07:41</time>
      </trkpt>
      <trkpt lat="45.39914" lon="6.53437">
        <ele>2163.2202</ele>
        <time>2021-08-21T12:07:44</time>
      </trkpt>
      <trkpt lat="45.39911" lon="6.53432">
        <ele>2163.2202</ele>
        <time>2021-08-21T12:09:05</time>
      </trkpt>
      <trkpt lat="45.39911" lon="6.53432">
        <ele>2164.7202</ele>
        <time>2021-08-21T12:10:18</time>
      </trkpt>
      <trkpt lat="45.39911" lon="6.53432">
        <ele>2164.7202</ele>
        <time>2021-08-21T12:18:26</time>
      </trkpt>
      <trkpt lat="45.39911" lon="6.53432">
        <ele>2164.7202</ele>
        <time>2021-08-21T12:21:26</time>
      </trkpt>
      <trkpt lat="45.39911" lon="6.53432">
        <ele>2164.7202</ele>
        <time>2021-08-21T12:22:39</time>
      </trkpt>
      <trkpt lat="45.39911" lon="6.53432">
        <ele>2164.7202</ele>
        <time>2021-08-21T12:32:33</time>
      </trkpt>
      <trkpt lat="45.39911" lon="6.53432">
        <ele>2164.7202</ele>
        <time>2021-08-21T12:35:49</time>
      </trkpt>
      <trkpt lat="45.39911" lon="6.53432">
        <ele>2164.7202</ele>
        <time>2021-08-21T12:36:03</time>
      </trkpt>
      <trkpt lat="45.39911" lon="6.53432">
        <ele>2164.7202</ele>
        <time>2021-08-21T12:36:16</time>
      </trkpt>
      <trkpt lat="45.39916" lon="6.53437">
        <ele>2164.7202</ele>
        <time>2021-08-21T12:36:32</time>
      </trkpt>
      <trkpt lat="45.39916" lon="6.53438">
        <ele>2164.7202</ele>
        <time>2021-08-21T12:36:33</time>
      </trkpt>
      <trkpt lat="45.39917" lon="6.53438">
        <ele>2164.7202</ele>
        <time>2021-08-21T12:36:34</time>
      </trkpt>
      <trkpt lat="45.39916" lon="6.53438">
        <ele>2164.7202</ele>
        <time>2021-08-21T12:37:14</time>
      </trkpt>
      <trkpt lat="45.39916" lon="6.53438">
        <ele>2164.7202</ele>
        <time>2021-08-21T12:37:16</time>
      </trkpt>
      <trkpt lat="45.39916" lon="6.53438">
        <ele>2164.7202</ele>
        <time>2021-08-21T12:38:22</time>
      </trkpt>
      <trkpt lat="45.39916" lon="6.53438">
        <ele>2164.7202</ele>
        <time>2021-08-21T12:38:41</time>
      </trkpt>
      <trkpt lat="45.39916" lon="6.53438">
        <ele>2164.7202</ele>
        <time>2021-08-21T12:39:13</time>
      </trkpt>
      <trkpt lat="45.39916" lon="6.53438">
        <ele>2164.7202</ele>
        <time>2021-08-21T12:39:24</time>
      </trkpt>
      <trkpt lat="45.39916" lon="6.53438">
        <ele>2164.7202</ele>
        <time>2021-08-21T12:39:48</time>
      </trkpt>
      <trkpt lat="45.3992" lon="6.53443">
        <ele>2164.7202</ele>
        <time>2021-08-21T12:39:53</time>
      </trkpt>
      <trkpt lat="45.39921" lon="6.53444">
        <ele>2164.7202</ele>
        <time>2021-08-21T12:39:54</time>
      </trkpt>
      <trkpt lat="45.39922" lon="6.53445">
        <ele>2164.7202</ele>
        <time>2021-08-21T12:39:55</time>
      </trkpt>
      <trkpt lat="45.39919" lon="6.53444">
        <ele>2164.7202</ele>
        <time>2021-08-21T12:39:58</time>
      </trkpt>
      <trkpt lat="45.39922" lon="6.53459">
        <ele>2161.3203</ele>
        <time>2021-08-21T12:40:28</time>
      </trkpt>
      <trkpt lat="45.39912" lon="6.5348">
        <ele>2159.1204</ele>
        <time>2021-08-21T12:40:57</time>
      </trkpt>
      <trkpt lat="45.39912" lon="6.53481">
        <ele>2159.1204</ele>
        <time>2021-08-21T12:40:58</time>
      </trkpt>
      <trkpt lat="45.39912" lon="6.53481">
        <ele>2159.1204</ele>
        <time>2021-08-21T12:40:59</time>
      </trkpt>
      <trkpt lat="45.39911" lon="6.53482">
        <ele>2159.1204</ele>
        <time>2021-08-21T12:41:06</time>
      </trkpt>
      <trkpt lat="45.39911" lon="6.53482">
        <ele>2157.6204</ele>
        <time>2021-08-21T12:41:36</time>
      </trkpt>
      <trkpt lat="45.39902" lon="6.53481">
        <ele>2157.6204</ele>
        <time>2021-08-21T12:41:50</time>
      </trkpt>
      <trkpt lat="45.39902" lon="6.53481">
        <ele>2157.6204</ele>
        <time>2021-08-21T12:41:53</time>
      </trkpt>
      <trkpt lat="45.39899" lon="6.53481">
        <ele>2157.6204</ele>
        <time>2021-08-21T12:41:57</time>
      </trkpt>
      <trkpt lat="45.399" lon="6.53481">
        <ele>2157.6204</ele>
        <time>2021-08-21T12:41:58</time>
      </trkpt>
      <trkpt lat="45.399" lon="6.53481">
        <ele>2157.6204</ele>
        <time>2021-08-21T12:41:59</time>
      </trkpt>
      <trkpt lat="45.399" lon="6.53481">
        <ele>2159.1204</ele>
        <time>2021-08-21T12:42:33</time>
      </trkpt>
      <trkpt lat="45.39895" lon="6.5347">
        <ele>2159.1204</ele>
        <time>2021-08-21T12:42:53</time>
      </trkpt>
      <trkpt lat="45.39894" lon="6.5347">
        <ele>2159.1204</ele>
        <time>2021-08-21T12:42:55</time>
      </trkpt>
      <trkpt lat="45.39895" lon="6.53466">
        <ele>2159.687</ele>
        <time>2021-08-21T12:43:08</time>
      </trkpt>
      <trkpt lat="45.39894" lon="6.53464">
        <ele>2159.687</ele>
        <time>2021-08-21T12:43:09</time>
      </trkpt>
      <trkpt lat="45.39894" lon="6.53464">
        <ele>2159.687</ele>
        <time>2021-08-21T12:43:11</time>
      </trkpt>
      <trkpt lat="45.39884" lon="6.53464">
        <ele>2163.3203</ele>
        <time>2021-08-21T12:43:36</time>
      </trkpt>
      <trkpt lat="45.39884" lon="6.53463">
        <ele>2163.3203</ele>
        <time>2021-08-21T12:43:37</time>
      </trkpt>
      <trkpt lat="45.39884" lon="6.53464">
        <ele>2163.3203</ele>
        <time>2021-08-21T12:43:38</time>
      </trkpt>
      <trkpt lat="45.39877" lon="6.53461">
        <ele>2165.6204</ele>
        <time>2021-08-21T12:43:55</time>
      </trkpt>
      <trkpt lat="45.39877" lon="6.53463">
        <ele>2165.6204</ele>
        <time>2021-08-21T12:43:58</time>
      </trkpt>
      <trkpt lat="45.39877" lon="6.53463">
        <ele>2166.7537</ele>
        <time>2021-08-21T12:44:08</time>
      </trkpt>
      <trkpt lat="45.39869" lon="6.5347">
        <ele>2169.1204</ele>
        <time>2021-08-21T12:44:18</time>
      </trkpt>
      <trkpt lat="45.39869" lon="6.53471">
        <ele>2169.1204</ele>
        <time>2021-08-21T12:44:19</time>
      </trkpt>
      <trkpt lat="45.39868" lon="6.53471">
        <ele>2169.1204</ele>
        <time>2021-08-21T12:44:21</time>
      </trkpt>
      <trkpt lat="45.39868" lon="6.53485">
        <ele>2172.9204</ele>
        <time>2021-08-21T12:44:42</time>
      </trkpt>
      <trkpt lat="45.39868" lon="6.53486">
        <ele>2174.9204</ele>
        <time>2021-08-21T12:45:12</time>
      </trkpt>
      <trkpt lat="45.39861" lon="6.53494">
        <ele>2174.9204</ele>
        <time>2021-08-21T12:45:21</time>
      </trkpt>
      <trkpt lat="45.39859" lon="6.53494">
        <ele>2178.587</ele>
        <time>2021-08-21T12:45:32</time>
      </trkpt>
      <trkpt lat="45.39851" lon="6.53494">
        <ele>2178.587</ele>
        <time>2021-08-21T12:45:39</time>
      </trkpt>
      <trkpt lat="45.3985" lon="6.53495">
        <ele>2178.587</ele>
        <time>2021-08-21T12:45:40</time>
      </trkpt>
      <trkpt lat="45.39849" lon="6.53495">
        <ele>2178.587</ele>
        <time>2021-08-21T12:45:41</time>
      </trkpt>
      <trkpt lat="45.39848" lon="6.53496">
        <ele>2178.2202</ele>
        <time>2021-08-21T12:45:42</time>
      </trkpt>
      <trkpt lat="45.39846" lon="6.53496">
        <ele>2178.2202</ele>
        <time>2021-08-21T12:45:44</time>
      </trkpt>
      <trkpt lat="45.39846" lon="6.53497">
        <ele>2178.2202</ele>
        <time>2021-08-21T12:45:45</time>
      </trkpt>
      <trkpt lat="45.39844" lon="6.53503">
        <ele>2178.2202</ele>
        <time>2021-08-21T12:45:54</time>
      </trkpt>
      <trkpt lat="45.39842" lon="6.53506">
        <ele>2178.2202</ele>
        <time>2021-08-21T12:45:56</time>
      </trkpt>
      <trkpt lat="45.39841" lon="6.53505">
        <ele>2178.2202</ele>
        <time>2021-08-21T12:45:58</time>
      </trkpt>
      <trkpt lat="45.39831" lon="6.53509">
        <ele>2181.1204</ele>
        <time>2021-08-21T12:46:21</time>
      </trkpt>
      <trkpt lat="45.3983" lon="6.53509">
        <ele>2181.1204</ele>
        <time>2021-08-21T12:46:22</time>
      </trkpt>
      <trkpt lat="45.3983" lon="6.53509">
        <ele>2181.1204</ele>
        <time>2021-08-21T12:46:23</time>
      </trkpt>
      <trkpt lat="45.39828" lon="6.53512">
        <ele>2183.2202</ele>
        <time>2021-08-21T12:46:36</time>
      </trkpt>
      <trkpt lat="45.39828" lon="6.53511">
        <ele>2183.2202</ele>
        <time>2021-08-21T12:46:37</time>
      </trkpt>
      <trkpt lat="45.39819" lon="6.53512">
        <ele>2183.7202</ele>
        <time>2021-08-21T12:47:08</time>
      </trkpt>
      <trkpt lat="45.39806" lon="6.53516">
        <ele>2184.5203</ele>
        <time>2021-08-21T12:47:25</time>
      </trkpt>
      <trkpt lat="45.39798" lon="6.53518">
        <ele>2184.5203</ele>
        <time>2021-08-21T12:47:34</time>
      </trkpt>
      <trkpt lat="45.39797" lon="6.53518">
        <ele>2184.5203</ele>
        <time>2021-08-21T12:47:35</time>
      </trkpt>
      <trkpt lat="45.39796" lon="6.53519">
        <ele>2184.5203</ele>
        <time>2021-08-21T12:47:36</time>
      </trkpt>
      <trkpt lat="45.39796" lon="6.53519">
        <ele>2184.5203</ele>
        <time>2021-08-21T12:47:37</time>
      </trkpt>
      <trkpt lat="45.39794" lon="6.53519">
        <ele>2184.5203</ele>
        <time>2021-08-21T12:47:39</time>
      </trkpt>
      <trkpt lat="45.39793" lon="6.53519">
        <ele>2184.5203</ele>
        <time>2021-08-21T12:47:40</time>
      </trkpt>
      <trkpt lat="45.39791" lon="6.53519">
        <ele>2185.887</ele>
        <time>2021-08-21T12:47:43</time>
      </trkpt>
      <trkpt lat="45.3979" lon="6.53519">
        <ele>2185.887</ele>
        <time>2021-08-21T12:47:44</time>
      </trkpt>
      <trkpt lat="45.39789" lon="6.53518">
        <ele>2185.887</ele>
        <time>2021-08-21T12:47:45</time>
      </trkpt>
      <trkpt lat="45.39788" lon="6.53518">
        <ele>2185.887</ele>
        <time>2021-08-21T12:47:47</time>
      </trkpt>
      <trkpt lat="45.39787" lon="6.53518">
        <ele>2185.887</ele>
        <time>2021-08-21T12:47:48</time>
      </trkpt>
      <trkpt lat="45.39784" lon="6.53518">
        <ele>2185.887</ele>
        <time>2021-08-21T12:47:51</time>
      </trkpt>
      <trkpt lat="45.39783" lon="6.53518">
        <ele>2186.2537</ele>
        <time>2021-08-21T12:47:52</time>
      </trkpt>
      <trkpt lat="45.39779" lon="6.5352">
        <ele>2186.2537</ele>
        <time>2021-08-21T12:47:55</time>
      </trkpt>
      <trkpt lat="45.39777" lon="6.5352">
        <ele>2186.2537</ele>
        <time>2021-08-21T12:47:57</time>
      </trkpt>
      <trkpt lat="45.39776" lon="6.53519">
        <ele>2186.2537</ele>
        <time>2021-08-21T12:47:59</time>
      </trkpt>
      <trkpt lat="45.39767" lon="6.53521">
        <ele>2188.7202</ele>
        <time>2021-08-21T12:48:14</time>
      </trkpt>
      <trkpt lat="45.39766" lon="6.53522">
        <ele>2188.7202</ele>
        <time>2021-08-21T12:48:15</time>
      </trkpt>
      <trkpt lat="45.39765" lon="6.53522">
        <ele>2188.7202</ele>
        <time>2021-08-21T12:48:30</time>
      </trkpt>
      <trkpt lat="45.39756" lon="6.53523">
        <ele>2191.3203</ele>
        <time>2021-08-21T12:48:34</time>
      </trkpt>
      <trkpt lat="45.39754" lon="6.53522">
        <ele>2191.3203</ele>
        <time>2021-08-21T12:48:36</time>
      </trkpt>
      <trkpt lat="45.39744" lon="6.53518">
        <ele>2193.8203</ele>
        <time>2021-08-21T12:48:57</time>
      </trkpt>
      <trkpt lat="45.39743" lon="6.53517">
        <ele>2193.8203</ele>
        <time>2021-08-21T12:48:59</time>
      </trkpt>
      <trkpt lat="45.39733" lon="6.53521">
        <ele>2195.5203</ele>
        <time>2021-08-21T12:49:13</time>
      </trkpt>
      <trkpt lat="45.39732" lon="6.5352">
        <ele>2195.5203</ele>
        <time>2021-08-21T12:49:16</time>
      </trkpt>
      <trkpt lat="45.39721" lon="6.53525">
        <ele>2195.887</ele>
        <time>2021-08-21T12:49:31</time>
      </trkpt>
      <trkpt lat="45.39721" lon="6.53525">
        <ele>2196.6204</ele>
        <time>2021-08-21T12:49:35</time>
      </trkpt>
      <trkpt lat="45.39717" lon="6.53526">
        <ele>2196.6204</ele>
        <time>2021-08-21T12:49:36</time>
      </trkpt>
      <trkpt lat="45.39716" lon="6.53527">
        <ele>2196.6204</ele>
        <time>2021-08-21T12:49:37</time>
      </trkpt>
      <trkpt lat="45.39714" lon="6.53527">
        <ele>2196.6204</ele>
        <time>2021-08-21T12:49:39</time>
      </trkpt>
      <trkpt lat="45.39704" lon="6.5353">
        <ele>2198.6204</ele>
        <time>2021-08-21T12:49:53</time>
      </trkpt>
      <trkpt lat="45.39702" lon="6.53532">
        <ele>2198.6204</ele>
        <time>2021-08-21T12:49:55</time>
      </trkpt>
      <trkpt lat="45.39702" lon="6.53531">
        <ele>2198.6204</ele>
        <time>2021-08-21T12:49:56</time>
      </trkpt>
      <trkpt lat="45.39685" lon="6.53529">
        <ele>2200.7537</ele>
        <time>2021-08-21T12:50:13</time>
      </trkpt>
      <trkpt lat="45.39679" lon="6.53531">
        <ele>2200.7537</ele>
        <time>2021-08-21T12:50:20</time>
      </trkpt>
      <trkpt lat="45.39667" lon="6.53534">
        <ele>2200.7869</ele>
        <time>2021-08-21T12:50:33</time>
      </trkpt>
      <trkpt lat="45.39666" lon="6.53534">
        <ele>2200.7869</ele>
        <time>2021-08-21T12:50:34</time>
      </trkpt>
      <trkpt lat="45.39662" lon="6.53535">
        <ele>2200.7869</ele>
        <time>2021-08-21T12:50:37</time>
      </trkpt>
      <trkpt lat="45.39661" lon="6.53535">
        <ele>2200.7869</ele>
        <time>2021-08-21T12:50:38</time>
      </trkpt>
      <trkpt lat="45.3966" lon="6.53535">
        <ele>2200.7869</ele>
        <time>2021-08-21T12:50:39</time>
      </trkpt>
      <trkpt lat="45.39659" lon="6.53536">
        <ele>2200.7869</ele>
        <time>2021-08-21T12:50:40</time>
      </trkpt>
      <trkpt lat="45.39657" lon="6.53536">
        <ele>2201.2537</ele>
        <time>2021-08-21T12:50:42</time>
      </trkpt>
      <trkpt lat="45.39653" lon="6.53539">
        <ele>2201.2537</ele>
        <time>2021-08-21T12:50:48</time>
      </trkpt>
      <trkpt lat="45.39652" lon="6.53539">
        <ele>2201.2537</ele>
        <time>2021-08-21T12:50:49</time>
      </trkpt>
      <trkpt lat="45.39649" lon="6.5354">
        <ele>2201.3203</ele>
        <time>2021-08-21T12:50:52</time>
      </trkpt>
      <trkpt lat="45.39647" lon="6.53542">
        <ele>2201.3203</ele>
        <time>2021-08-21T12:50:54</time>
      </trkpt>
      <trkpt lat="45.39645" lon="6.53542">
        <ele>2201.3203</ele>
        <time>2021-08-21T12:50:56</time>
      </trkpt>
      <trkpt lat="45.39637" lon="6.53547">
        <ele>2200.9204</ele>
        <time>2021-08-21T12:51:07</time>
      </trkpt>
      <trkpt lat="45.39624" lon="6.53548">
        <ele>2200.2202</ele>
        <time>2021-08-21T12:51:28</time>
      </trkpt>
      <trkpt lat="45.39623" lon="6.53549">
        <ele>2200.2202</ele>
        <time>2021-08-21T12:51:30</time>
      </trkpt>
      <trkpt lat="45.39623" lon="6.53549">
        <ele>2200.2537</ele>
        <time>2021-08-21T12:51:39</time>
      </trkpt>
      <trkpt lat="45.39614" lon="6.53547">
        <ele>2200.5203</ele>
        <time>2021-08-21T12:51:47</time>
      </trkpt>
      <trkpt lat="45.39613" lon="6.53547">
        <ele>2200.5203</ele>
        <time>2021-08-21T12:51:48</time>
      </trkpt>
      <trkpt lat="45.39613" lon="6.53546">
        <ele>2200.5203</ele>
        <time>2021-08-21T12:51:50</time>
      </trkpt>
      <trkpt lat="45.39613" lon="6.53546">
        <ele>2202.2202</ele>
        <time>2021-08-21T12:52:06</time>
      </trkpt>
      <trkpt lat="45.39603" lon="6.53547">
        <ele>2202.2202</ele>
        <time>2021-08-21T12:52:14</time>
      </trkpt>
      <trkpt lat="45.39602" lon="6.53548">
        <ele>2202.2202</ele>
        <time>2021-08-21T12:52:16</time>
      </trkpt>
      <trkpt lat="45.39592" lon="6.53548">
        <ele>2204.1204</ele>
        <time>2021-08-21T12:52:41</time>
      </trkpt>
      <trkpt lat="45.39592" lon="6.53547">
        <ele>2204.1204</ele>
        <time>2021-08-21T12:52:42</time>
      </trkpt>
      <trkpt lat="45.3959" lon="6.53547">
        <ele>2204.1204</ele>
        <time>2021-08-21T12:52:44</time>
      </trkpt>
      <trkpt lat="45.3959" lon="6.53547">
        <ele>2205.1204</ele>
        <time>2021-08-21T12:52:53</time>
      </trkpt>
      <trkpt lat="45.39581" lon="6.53549">
        <ele>2205.2202</ele>
        <time>2021-08-21T12:53:12</time>
      </trkpt>
      <trkpt lat="45.39581" lon="6.5355">
        <ele>2205.2202</ele>
        <time>2021-08-21T12:53:13</time>
      </trkpt>
      <trkpt lat="45.39581" lon="6.5355">
        <ele>2205.2202</ele>
        <time>2021-08-21T12:53:14</time>
      </trkpt>
      <trkpt lat="45.3958" lon="6.5355">
        <ele>2205.2202</ele>
        <time>2021-08-21T12:53:15</time>
      </trkpt>
      <trkpt lat="45.39579" lon="6.53551">
        <ele>2205.2202</ele>
        <time>2021-08-21T12:53:18</time>
      </trkpt>
      <trkpt lat="45.39569" lon="6.53548">
        <ele>2206.6204</ele>
        <time>2021-08-21T12:53:49</time>
      </trkpt>
      <trkpt lat="45.39566" lon="6.53545">
        <ele>2206.6204</ele>
        <time>2021-08-21T12:53:55</time>
      </trkpt>
      <trkpt lat="45.39565" lon="6.53543">
        <ele>2206.6204</ele>
        <time>2021-08-21T12:53:57</time>
      </trkpt>
      <trkpt lat="45.39564" lon="6.53543">
        <ele>2206.6204</ele>
        <time>2021-08-21T12:53:58</time>
      </trkpt>
      <trkpt lat="45.39556" lon="6.53537">
        <ele>2209.6204</ele>
        <time>2021-08-21T12:54:23</time>
      </trkpt>
      <trkpt lat="45.39555" lon="6.53537">
        <ele>2209.6204</ele>
        <time>2021-08-21T12:54:24</time>
      </trkpt>
      <trkpt lat="45.39548" lon="6.53546">
        <ele>2212.5203</ele>
        <time>2021-08-21T12:54:50</time>
      </trkpt>
      <trkpt lat="45.39547" lon="6.53547">
        <ele>2212.5203</ele>
        <time>2021-08-21T12:54:53</time>
      </trkpt>
      <trkpt lat="45.39547" lon="6.53547">
        <ele>2212.5203</ele>
        <time>2021-08-21T12:54:58</time>
      </trkpt>
      <trkpt lat="45.39538" lon="6.53549">
        <ele>2215.587</ele>
        <time>2021-08-21T12:55:09</time>
      </trkpt>
      <trkpt lat="45.39537" lon="6.53549">
        <ele>2215.587</ele>
        <time>2021-08-21T12:55:11</time>
      </trkpt>
      <trkpt lat="45.39536" lon="6.53549">
        <ele>2215.5203</ele>
        <time>2021-08-21T12:55:12</time>
      </trkpt>
      <trkpt lat="45.39526" lon="6.53552">
        <ele>2216.2202</ele>
        <time>2021-08-21T12:55:31</time>
      </trkpt>
      <trkpt lat="45.39525" lon="6.53552">
        <ele>2218.487</ele>
        <time>2021-08-21T12:55:49</time>
      </trkpt>
      <trkpt lat="45.39516" lon="6.53553">
        <ele>2218.6204</ele>
        <time>2021-08-21T12:55:57</time>
      </trkpt>
      <trkpt lat="45.39516" lon="6.53553">
        <ele>2218.6204</ele>
        <time>2021-08-21T12:55:58</time>
      </trkpt>
      <trkpt lat="45.39514" lon="6.53553">
        <ele>2218.6204</ele>
        <time>2021-08-21T12:56:02</time>
      </trkpt>
      <trkpt lat="45.39514" lon="6.53553">
        <ele>2218.6204</ele>
        <time>2021-08-21T12:56:04</time>
      </trkpt>
      <trkpt lat="45.39505" lon="6.53555">
        <ele>2223.8203</ele>
        <time>2021-08-21T12:56:15</time>
      </trkpt>
      <trkpt lat="45.39504" lon="6.53555">
        <ele>2223.8203</ele>
        <time>2021-08-21T12:56:16</time>
      </trkpt>
      <trkpt lat="45.39494" lon="6.53561">
        <ele>2225.7202</ele>
        <time>2021-08-21T12:56:36</time>
      </trkpt>
      <trkpt lat="45.39493" lon="6.53562">
        <ele>2228.9204</ele>
        <time>2021-08-21T12:57:06</time>
      </trkpt>
      <trkpt lat="45.39493" lon="6.53562">
        <ele>2228.9204</ele>
        <time>2021-08-21T12:57:36</time>
      </trkpt>
      <trkpt lat="45.39488" lon="6.5356">
        <ele>2228.9204</ele>
        <time>2021-08-21T12:57:56</time>
      </trkpt>
      <trkpt lat="45.39488" lon="6.53559">
        <ele>2228.9204</ele>
        <time>2021-08-21T12:57:57</time>
      </trkpt>
      <trkpt lat="45.39488" lon="6.5356">
        <ele>2228.9204</ele>
        <time>2021-08-21T12:57:58</time>
      </trkpt>
      <trkpt lat="45.39487" lon="6.5356">
        <ele>2230.5203</ele>
        <time>2021-08-21T12:58:28</time>
      </trkpt>
      <trkpt lat="45.39487" lon="6.5356">
        <ele>2230.5203</ele>
        <time>2021-08-21T12:58:40</time>
      </trkpt>
      <trkpt lat="45.39487" lon="6.5356">
        <ele>2230.5203</ele>
        <time>2021-08-21T12:59:10</time>
      </trkpt>
      <trkpt lat="45.39478" lon="6.53567">
        <ele>2230.5203</ele>
        <time>2021-08-21T12:59:33</time>
      </trkpt>
      <trkpt lat="45.39476" lon="6.53568">
        <ele>2230.5203</ele>
        <time>2021-08-21T12:59:34</time>
      </trkpt>
      <trkpt lat="45.39471" lon="6.5357">
        <ele>2230.5203</ele>
        <time>2021-08-21T12:59:39</time>
      </trkpt>
      <trkpt lat="45.39464" lon="6.53576">
        <ele>2234.0203</ele>
        <time>2021-08-21T12:59:45</time>
      </trkpt>
      <trkpt lat="45.39442" lon="6.53589">
        <ele>2241.087</ele>
        <time>2021-08-21T13:00:15</time>
      </trkpt>
      <trkpt lat="45.39423" lon="6.53597">
        <ele>2244.2202</ele>
        <time>2021-08-21T13:00:45</time>
      </trkpt>
      <trkpt lat="45.39389" lon="6.53602">
        <ele>2250.1204</ele>
        <time>2021-08-21T13:01:15</time>
      </trkpt>
      <trkpt lat="45.39359" lon="6.53603">
        <ele>2247.1204</ele>
        <time>2021-08-21T13:01:45</time>
      </trkpt>
      <trkpt lat="45.39334" lon="6.53608">
        <ele>2245.4204</ele>
        <time>2021-08-21T13:02:15</time>
      </trkpt>
      <trkpt lat="45.39307" lon="6.5361">
        <ele>2245.2202</ele>
        <time>2021-08-21T13:02:45</time>
      </trkpt>
      <trkpt lat="45.39284" lon="6.53607">
        <ele>2246.0203</ele>
        <time>2021-08-21T13:03:15</time>
      </trkpt>
      <trkpt lat="45.39274" lon="6.536">
        <ele>2247.7202</ele>
        <time>2021-08-21T13:03:45</time>
      </trkpt>
      <trkpt lat="45.39264" lon="6.536">
        <ele>2247.7202</ele>
        <time>2021-08-21T13:03:47</time>
      </trkpt>
      <trkpt lat="45.39259" lon="6.53603">
        <ele>2250.1204</ele>
        <time>2021-08-21T13:03:54</time>
      </trkpt>
      <trkpt lat="45.39258" lon="6.53603">
        <ele>2250.1204</ele>
        <time>2021-08-21T13:03:55</time>
      </trkpt>
      <trkpt lat="45.39257" lon="6.53603">
        <ele>2250.1204</ele>
        <time>2021-08-21T13:03:56</time>
      </trkpt>
      <trkpt lat="45.39256" lon="6.53604">
        <ele>2250.3538</ele>
        <time>2021-08-21T13:04:04</time>
      </trkpt>
      <trkpt lat="45.39246" lon="6.53602">
        <ele>2250.2202</ele>
        <time>2021-08-21T13:04:12</time>
      </trkpt>
      <trkpt lat="45.39243" lon="6.53603">
        <ele>2250.2202</ele>
        <time>2021-08-21T13:04:15</time>
      </trkpt>
      <trkpt lat="45.39243" lon="6.53603">
        <ele>2247.2202</ele>
        <time>2021-08-21T13:04:32</time>
      </trkpt>
      <trkpt lat="45.39234" lon="6.53608">
        <ele>2247.2202</ele>
        <time>2021-08-21T13:04:34</time>
      </trkpt>
      <trkpt lat="45.39233" lon="6.53609">
        <ele>2247.2202</ele>
        <time>2021-08-21T13:04:35</time>
      </trkpt>
      <trkpt lat="45.39233" lon="6.53608">
        <ele>2245.3203</ele>
        <time>2021-08-21T13:05:07</time>
      </trkpt>
      <trkpt lat="45.39233" lon="6.53608">
        <ele>2245.3203</ele>
        <time>2021-08-21T13:05:20</time>
      </trkpt>
      <trkpt lat="45.39233" lon="6.53608">
        <ele>2245.3203</ele>
        <time>2021-08-21T13:05:39</time>
      </trkpt>
      <trkpt lat="45.39233" lon="6.53612">
        <ele>2245.3203</ele>
        <time>2021-08-21T13:06:01</time>
      </trkpt>
      <trkpt lat="45.39233" lon="6.53612">
        <ele>2245.3203</ele>
        <time>2021-08-21T13:06:03</time>
      </trkpt>
      <trkpt lat="45.3923" lon="6.536">
        <ele>2245.9204</ele>
        <time>2021-08-21T13:06:12</time>
      </trkpt>
      <trkpt lat="45.3923" lon="6.53599">
        <ele>2245.9204</ele>
        <time>2021-08-21T13:06:14</time>
      </trkpt>
      <trkpt lat="45.3923" lon="6.536">
        <ele>2245.9204</ele>
        <time>2021-08-21T13:06:16</time>
      </trkpt>
      <trkpt lat="45.3923" lon="6.536">
        <ele>2245.4204</ele>
        <time>2021-08-21T13:06:22</time>
      </trkpt>
      <trkpt lat="45.3923" lon="6.536">
        <ele>2245.4204</ele>
        <time>2021-08-21T13:06:52</time>
      </trkpt>
      <trkpt lat="45.3923" lon="6.536">
        <ele>2245.4204</ele>
        <time>2021-08-21T13:07:22</time>
      </trkpt>
      <trkpt lat="45.3923" lon="6.536">
        <ele>2245.4204</ele>
        <time>2021-08-21T13:07:33</time>
      </trkpt>
      <trkpt lat="45.39223" lon="6.536">
        <ele>2245.4204</ele>
        <time>2021-08-21T13:07:34</time>
      </trkpt>
      <trkpt lat="45.39222" lon="6.53602">
        <ele>2245.4204</ele>
        <time>2021-08-21T13:07:35</time>
      </trkpt>
      <trkpt lat="45.39219" lon="6.53603">
        <ele>2245.4204</ele>
        <time>2021-08-21T13:07:39</time>
      </trkpt>
      <trkpt lat="45.39217" lon="6.53603">
        <ele>2245.4204</ele>
        <time>2021-08-21T13:07:41</time>
      </trkpt>
      <trkpt lat="45.39216" lon="6.53602">
        <ele>2245.8203</ele>
        <time>2021-08-21T13:07:42</time>
      </trkpt>
      <trkpt lat="45.39215" lon="6.53603">
        <ele>2245.8203</ele>
        <time>2021-08-21T13:07:45</time>
      </trkpt>
      <trkpt lat="45.39215" lon="6.53597">
        <ele>2246.4204</ele>
        <time>2021-08-21T13:08:04</time>
      </trkpt>
      <trkpt lat="45.39214" lon="6.53598">
        <ele>2246.4204</ele>
        <time>2021-08-21T13:08:06</time>
      </trkpt>
      <trkpt lat="45.39214" lon="6.53598">
        <ele>2246.4204</ele>
        <time>2021-08-21T13:08:10</time>
      </trkpt>
      <trkpt lat="45.39214" lon="6.53585">
        <ele>2246.7202</ele>
        <time>2021-08-21T13:08:21</time>
      </trkpt>
      <trkpt lat="45.39212" lon="6.53583">
        <ele>2247.2202</ele>
        <time>2021-08-21T13:08:23</time>
      </trkpt>
      <trkpt lat="45.39212" lon="6.53582">
        <ele>2247.2202</ele>
        <time>2021-08-21T13:08:24</time>
      </trkpt>
      <trkpt lat="45.39212" lon="6.53581">
        <ele>2247.2202</ele>
        <time>2021-08-21T13:08:26</time>
      </trkpt>
      <trkpt lat="45.3921" lon="6.53577">
        <ele>2247.2202</ele>
        <time>2021-08-21T13:08:28</time>
      </trkpt>
      <trkpt lat="45.3921" lon="6.53576">
        <ele>2247.2202</ele>
        <time>2021-08-21T13:08:29</time>
      </trkpt>
      <trkpt lat="45.3921" lon="6.53577">
        <ele>2247.2202</ele>
        <time>2021-08-21T13:08:30</time>
      </trkpt>
      <trkpt lat="45.39209" lon="6.53576">
        <ele>2245.8203</ele>
        <time>2021-08-21T13:08:48</time>
      </trkpt>
      <trkpt lat="45.39196" lon="6.5357">
        <ele>2245.8203</ele>
        <time>2021-08-21T13:08:59</time>
      </trkpt>
      <trkpt lat="45.39194" lon="6.5357">
        <ele>2245.8203</ele>
        <time>2021-08-21T13:09:01</time>
      </trkpt>
      <trkpt lat="45.39193" lon="6.5357">
        <ele>2245.587</ele>
        <time>2021-08-21T13:09:02</time>
      </trkpt>
      <trkpt lat="45.39191" lon="6.5357">
        <ele>2245.587</ele>
        <time>2021-08-21T13:09:04</time>
      </trkpt>
      <trkpt lat="45.39189" lon="6.5357">
        <ele>2245.587</ele>
        <time>2021-08-21T13:09:06</time>
      </trkpt>
      <trkpt lat="45.39189" lon="6.53571">
        <ele>2245.587</ele>
        <time>2021-08-21T13:09:10</time>
      </trkpt>
      <trkpt lat="45.39184" lon="6.53571">
        <ele>2244.087</ele>
        <time>2021-08-21T13:09:13</time>
      </trkpt>
      <trkpt lat="45.39183" lon="6.5357">
        <ele>2244.087</ele>
        <time>2021-08-21T13:09:14</time>
      </trkpt>
      <trkpt lat="45.39181" lon="6.53569">
        <ele>2244.087</ele>
        <time>2021-08-21T13:09:17</time>
      </trkpt>
      <trkpt lat="45.39181" lon="6.53569">
        <ele>2242.8203</ele>
        <time>2021-08-21T13:09:31</time>
      </trkpt>
      <trkpt lat="45.39171" lon="6.53573">
        <ele>2242.8203</ele>
        <time>2021-08-21T13:09:33</time>
      </trkpt>
      <trkpt lat="45.39169" lon="6.53573">
        <ele>2242.8203</ele>
        <time>2021-08-21T13:09:35</time>
      </trkpt>
      <trkpt lat="45.39169" lon="6.53573">
        <ele>2242.8203</ele>
        <time>2021-08-21T13:09:40</time>
      </trkpt>
      <trkpt lat="45.39169" lon="6.53573">
        <ele>2242.8203</ele>
        <time>2021-08-21T13:09:47</time>
      </trkpt>
      <trkpt lat="45.39169" lon="6.53573">
        <ele>2242.8203</ele>
        <time>2021-08-21T13:09:50</time>
      </trkpt>
      <trkpt lat="45.39163" lon="6.5357">
        <ele>2240.6204</ele>
        <time>2021-08-21T13:10:03</time>
      </trkpt>
      <trkpt lat="45.39162" lon="6.5357">
        <ele>2240.6204</ele>
        <time>2021-08-21T13:10:06</time>
      </trkpt>
      <trkpt lat="45.39162" lon="6.5357">
        <ele>2240.6204</ele>
        <time>2021-08-21T13:10:33</time>
      </trkpt>
      <trkpt lat="45.39162" lon="6.5357">
        <ele>2239.6204</ele>
        <time>2021-08-21T13:10:48</time>
      </trkpt>
      <trkpt lat="45.39162" lon="6.5357">
        <ele>2239.6204</ele>
        <time>2021-08-21T13:11:00</time>
      </trkpt>
      <trkpt lat="45.39152" lon="6.53572">
        <ele>2239.6204</ele>
        <time>2021-08-21T13:11:03</time>
      </trkpt>
      <trkpt lat="45.39151" lon="6.53571">
        <ele>2239.6204</ele>
        <time>2021-08-21T13:11:04</time>
      </trkpt>
      <trkpt lat="45.39151" lon="6.53571">
        <ele>2239.6204</ele>
        <time>2021-08-21T13:11:08</time>
      </trkpt>
      <trkpt lat="45.39151" lon="6.53571">
        <ele>2240.6536</ele>
        <time>2021-08-21T13:11:12</time>
      </trkpt>
      <trkpt lat="45.39141" lon="6.53576">
        <ele>2240.6536</ele>
        <time>2021-08-21T13:11:16</time>
      </trkpt>
      <trkpt lat="45.39117" lon="6.53579">
        <ele>2237.3203</ele>
        <time>2021-08-21T13:11:46</time>
      </trkpt>
      <trkpt lat="45.39094" lon="6.53577">
        <ele>2227.087</ele>
        <time>2021-08-21T13:12:16</time>
      </trkpt>
      <trkpt lat="45.39078" lon="6.53569">
        <ele>2228.8203</ele>
        <time>2021-08-21T13:12:46</time>
      </trkpt>
      <trkpt lat="45.39058" lon="6.53557">
        <ele>2230.3203</ele>
        <time>2021-08-21T13:13:14</time>
      </trkpt>
      <trkpt lat="45.3905" lon="6.53548">
        <ele>2229.1204</ele>
        <time>2021-08-21T13:13:24</time>
      </trkpt>
      <trkpt lat="45.39047" lon="6.53542">
        <ele>2229.1204</ele>
        <time>2021-08-21T13:13:28</time>
      </trkpt>
      <trkpt lat="45.39045" lon="6.53537">
        <ele>2227.6204</ele>
        <time>2021-08-21T13:13:33</time>
      </trkpt>
      <trkpt lat="45.39044" lon="6.53537">
        <ele>2227.6204</ele>
        <time>2021-08-21T13:13:38</time>
      </trkpt>
      <trkpt lat="45.39044" lon="6.53537">
        <ele>2225.7537</ele>
        <time>2021-08-21T13:13:48</time>
      </trkpt>
      <trkpt lat="45.39035" lon="6.53527">
        <ele>2225.7537</ele>
        <time>2021-08-21T13:13:50</time>
      </trkpt>
      <trkpt lat="45.39034" lon="6.53524">
        <ele>2225.1204</ele>
        <time>2021-08-21T13:13:57</time>
      </trkpt>
      <trkpt lat="45.3903" lon="6.53517">
        <ele>2222.6204</ele>
        <time>2021-08-21T13:14:04</time>
      </trkpt>
      <trkpt lat="45.3903" lon="6.53515">
        <ele>2222.6204</ele>
        <time>2021-08-21T13:14:06</time>
      </trkpt>
      <trkpt lat="45.39029" lon="6.53514">
        <ele>2222.6204</ele>
        <time>2021-08-21T13:14:07</time>
      </trkpt>
      <trkpt lat="45.39029" lon="6.53514">
        <ele>2222.6204</ele>
        <time>2021-08-21T13:14:08</time>
      </trkpt>
      <trkpt lat="45.39029" lon="6.53514">
        <ele>2218.7869</ele>
        <time>2021-08-21T13:14:13</time>
      </trkpt>
      <trkpt lat="45.39023" lon="6.53509">
        <ele>2218.7869</ele>
        <time>2021-08-21T13:14:15</time>
      </trkpt>
      <trkpt lat="45.39023" lon="6.53509">
        <ele>2218.7869</ele>
        <time>2021-08-21T13:14:16</time>
      </trkpt>
      <trkpt lat="45.39023" lon="6.53508">
        <ele>2218.7869</ele>
        <time>2021-08-21T13:14:18</time>
      </trkpt>
      <trkpt lat="45.39023" lon="6.53508">
        <ele>2218.7869</ele>
        <time>2021-08-21T13:14:20</time>
      </trkpt>
      <trkpt lat="45.39023" lon="6.53508">
        <ele>2216.5203</ele>
        <time>2021-08-21T13:14:23</time>
      </trkpt>
      <trkpt lat="45.39016" lon="6.535">
        <ele>2216.5203</ele>
        <time>2021-08-21T13:14:31</time>
      </trkpt>
      <trkpt lat="45.39015" lon="6.53498">
        <ele>2215.8203</ele>
        <time>2021-08-21T13:14:32</time>
      </trkpt>
      <trkpt lat="45.39014" lon="6.53494">
        <ele>2215.8203</ele>
        <time>2021-08-21T13:14:35</time>
      </trkpt>
      <trkpt lat="45.39013" lon="6.53493">
        <ele>2215.8203</ele>
        <time>2021-08-21T13:14:37</time>
      </trkpt>
      <trkpt lat="45.39012" lon="6.53491">
        <ele>2215.8203</ele>
        <time>2021-08-21T13:14:40</time>
      </trkpt>
      <trkpt lat="45.3901" lon="6.53488">
        <ele>2215.8203</ele>
        <time>2021-08-21T13:14:41</time>
      </trkpt>
      <trkpt lat="45.39009" lon="6.53487">
        <ele>2211.0203</ele>
        <time>2021-08-21T13:14:49</time>
      </trkpt>
      <trkpt lat="45.39009" lon="6.53487">
        <ele>2211.0203</ele>
        <time>2021-08-21T13:14:51</time>
      </trkpt>
      <trkpt lat="45.39003" lon="6.5348">
        <ele>2205.0537</ele>
        <time>2021-08-21T13:14:54</time>
      </trkpt>
      <trkpt lat="45.39003" lon="6.53477">
        <ele>2205.0537</ele>
        <time>2021-08-21T13:14:56</time>
      </trkpt>
      <trkpt lat="45.39002" lon="6.53477">
        <ele>2205.0537</ele>
        <time>2021-08-21T13:14:57</time>
      </trkpt>
      <trkpt lat="45.38998" lon="6.53463">
        <ele>2200.6204</ele>
        <time>2021-08-21T13:15:15</time>
      </trkpt>
      <trkpt lat="45.38996" lon="6.53453">
        <ele>2200.6204</ele>
        <time>2021-08-21T13:15:21</time>
      </trkpt>
      <trkpt lat="45.38996" lon="6.53449">
        <ele>2197.9204</ele>
        <time>2021-08-21T13:15:24</time>
      </trkpt>
      <trkpt lat="45.38996" lon="6.53437">
        <ele>2194.2202</ele>
        <time>2021-08-21T13:15:32</time>
      </trkpt>
      <trkpt lat="45.38999" lon="6.53423">
        <ele>2193.7202</ele>
        <time>2021-08-21T13:15:51</time>
      </trkpt>
      <trkpt lat="45.38998" lon="6.53421">
        <ele>2193.4204</ele>
        <time>2021-08-21T13:15:53</time>
      </trkpt>
      <trkpt lat="45.38998" lon="6.53421">
        <ele>2193.4204</ele>
        <time>2021-08-21T13:15:54</time>
      </trkpt>
      <trkpt lat="45.38998" lon="6.5341">
        <ele>2191.7537</ele>
        <time>2021-08-21T13:16:03</time>
      </trkpt>
      <trkpt lat="45.38996" lon="6.53408">
        <ele>2191.7537</ele>
        <time>2021-08-21T13:16:04</time>
      </trkpt>
      <trkpt lat="45.38995" lon="6.53407">
        <ele>2191.7537</ele>
        <time>2021-08-21T13:16:06</time>
      </trkpt>
      <trkpt lat="45.38995" lon="6.53407">
        <ele>2191.7537</ele>
        <time>2021-08-21T13:16:07</time>
      </trkpt>
      <trkpt lat="45.38995" lon="6.53407">
        <ele>2189.2869</ele>
        <time>2021-08-21T13:16:12</time>
      </trkpt>
      <trkpt lat="45.38997" lon="6.53394">
        <ele>2188.7202</ele>
        <time>2021-08-21T13:16:22</time>
      </trkpt>
      <trkpt lat="45.38997" lon="6.53391">
        <ele>2188.7202</ele>
        <time>2021-08-21T13:16:24</time>
      </trkpt>
      <trkpt lat="45.38992" lon="6.53377">
        <ele>2188.7202</ele>
        <time>2021-08-21T13:16:35</time>
      </trkpt>
      <trkpt lat="45.38991" lon="6.53375">
        <ele>2188.7202</ele>
        <time>2021-08-21T13:16:37</time>
      </trkpt>
      <trkpt lat="45.38988" lon="6.53361">
        <ele>2181.9204</ele>
        <time>2021-08-21T13:16:52</time>
      </trkpt>
      <trkpt lat="45.38987" lon="6.53359">
        <ele>2181.9204</ele>
        <time>2021-08-21T13:16:54</time>
      </trkpt>
      <trkpt lat="45.38987" lon="6.53358">
        <ele>2181.9204</ele>
        <time>2021-08-21T13:16:55</time>
      </trkpt>
      <trkpt lat="45.38983" lon="6.53345">
        <ele>2178.3203</ele>
        <time>2021-08-21T13:17:10</time>
      </trkpt>
      <trkpt lat="45.38982" lon="6.53342">
        <ele>2178.3203</ele>
        <time>2021-08-21T13:17:13</time>
      </trkpt>
      <trkpt lat="45.3898" lon="6.53329">
        <ele>2172.8203</ele>
        <time>2021-08-21T13:17:25</time>
      </trkpt>
      <trkpt lat="45.38978" lon="6.53323">
        <ele>2172.8203</ele>
        <time>2021-08-21T13:17:29</time>
      </trkpt>
      <trkpt lat="45.38978" lon="6.53319">
        <ele>2172.6204</ele>
        <time>2021-08-21T13:17:32</time>
      </trkpt>
      <trkpt lat="45.38978" lon="6.53317">
        <ele>2172.6204</ele>
        <time>2021-08-21T13:17:34</time>
      </trkpt>
      <trkpt lat="45.38978" lon="6.53316">
        <ele>2172.6204</ele>
        <time>2021-08-21T13:17:35</time>
      </trkpt>
      <trkpt lat="45.3898" lon="6.53299">
        <ele>2167.3203</ele>
        <time>2021-08-21T13:17:49</time>
      </trkpt>
      <trkpt lat="45.38981" lon="6.53298">
        <ele>2167.3203</ele>
        <time>2021-08-21T13:17:50</time>
      </trkpt>
      <trkpt lat="45.38981" lon="6.53293">
        <ele>2167.3203</ele>
        <time>2021-08-21T13:17:54</time>
      </trkpt>
      <trkpt lat="45.38982" lon="6.53287">
        <ele>2167.3203</ele>
        <time>2021-08-21T13:17:58</time>
      </trkpt>
      <trkpt lat="45.38984" lon="6.53285">
        <ele>2167.3203</ele>
        <time>2021-08-21T13:18:01</time>
      </trkpt>
      <trkpt lat="45.38984" lon="6.53283">
        <ele>2161.8203</ele>
        <time>2021-08-21T13:18:02</time>
      </trkpt>
      <trkpt lat="45.38985" lon="6.5328">
        <ele>2161.8203</ele>
        <time>2021-08-21T13:18:03</time>
      </trkpt>
      <trkpt lat="45.38987" lon="6.5328">
        <ele>2161.8203</ele>
        <time>2021-08-21T13:18:05</time>
      </trkpt>
      <trkpt lat="45.38994" lon="6.53272">
        <ele>2160.7202</ele>
        <time>2021-08-21T13:18:21</time>
      </trkpt>
      <trkpt lat="45.38996" lon="6.5327">
        <ele>2160.6204</ele>
        <time>2021-08-21T13:18:24</time>
      </trkpt>
      <trkpt lat="45.39" lon="6.53256">
        <ele>2155.5203</ele>
        <time>2021-08-21T13:18:54</time>
      </trkpt>
      <trkpt lat="45.39003" lon="6.53242">
        <ele>2155.5203</ele>
        <time>2021-08-21T13:19:01</time>
      </trkpt>
      <trkpt lat="45.39003" lon="6.53241">
        <ele>2155.5203</ele>
        <time>2021-08-21T13:19:02</time>
      </trkpt>
      <trkpt lat="45.39002" lon="6.53226">
        <ele>2153.2202</ele>
        <time>2021-08-21T13:19:26</time>
      </trkpt>
      <trkpt lat="45.39003" lon="6.53225">
        <ele>2153.2202</ele>
        <time>2021-08-21T13:19:27</time>
      </trkpt>
      <trkpt lat="45.39003" lon="6.53224">
        <ele>2153.2202</ele>
        <time>2021-08-21T13:19:28</time>
      </trkpt>
      <trkpt lat="45.39006" lon="6.5321">
        <ele>2153.2202</ele>
        <time>2021-08-21T13:19:41</time>
      </trkpt>
      <trkpt lat="45.39006" lon="6.53207">
        <ele>2150.4204</ele>
        <time>2021-08-21T13:19:44</time>
      </trkpt>
      <trkpt lat="45.39006" lon="6.53193">
        <ele>2147.3203</ele>
        <time>2021-08-21T13:20:05</time>
      </trkpt>
      <trkpt lat="45.39006" lon="6.53192">
        <ele>2147.3203</ele>
        <time>2021-08-21T13:20:06</time>
      </trkpt>
      <trkpt lat="45.39007" lon="6.53192">
        <ele>2147.3203</ele>
        <time>2021-08-21T13:20:07</time>
      </trkpt>
      <trkpt lat="45.39005" lon="6.53179">
        <ele>2142.8203</ele>
        <time>2021-08-21T13:20:29</time>
      </trkpt>
      <trkpt lat="45.39006" lon="6.53159">
        <ele>2139.2869</ele>
        <time>2021-08-21T13:20:58</time>
      </trkpt>
      <trkpt lat="45.39008" lon="6.53145">
        <ele>2139.2869</ele>
        <time>2021-08-21T13:21:00</time>
      </trkpt>
      <trkpt lat="45.39009" lon="6.53137">
        <ele>2138.4204</ele>
        <time>2021-08-21T13:21:09</time>
      </trkpt>
      <trkpt lat="45.39009" lon="6.53133">
        <ele>2138.4204</ele>
        <time>2021-08-21T13:21:11</time>
      </trkpt>
      <trkpt lat="45.39008" lon="6.53131">
        <ele>2134.5203</ele>
        <time>2021-08-21T13:21:12</time>
      </trkpt>
      <trkpt lat="45.39009" lon="6.53129">
        <ele>2134.5203</ele>
        <time>2021-08-21T13:21:14</time>
      </trkpt>
      <trkpt lat="45.39008" lon="6.53128">
        <ele>2134.5203</ele>
        <time>2021-08-21T13:21:17</time>
      </trkpt>
      <trkpt lat="45.39006" lon="6.53122">
        <ele>2129.9204</ele>
        <time>2021-08-21T13:21:22</time>
      </trkpt>
      <trkpt lat="45.39005" lon="6.53121">
        <ele>2129.9204</ele>
        <time>2021-08-21T13:21:23</time>
      </trkpt>
      <trkpt lat="45.39004" lon="6.53098">
        <ele>2126.9204</ele>
        <time>2021-08-21T13:21:53</time>
      </trkpt>
      <trkpt lat="45.39004" lon="6.53099">
        <ele>2123.9204</ele>
        <time>2021-08-21T13:22:07</time>
      </trkpt>
      <trkpt lat="45.39004" lon="6.53099">
        <ele>2123.9204</ele>
        <time>2021-08-21T13:22:13</time>
      </trkpt>
      <trkpt lat="45.39008" lon="6.53091">
        <ele>2123.9204</ele>
        <time>2021-08-21T13:22:24</time>
      </trkpt>
      <trkpt lat="45.39009" lon="6.53089">
        <ele>2123.9204</ele>
        <time>2021-08-21T13:22:26</time>
      </trkpt>
      <trkpt lat="45.39009" lon="6.53087">
        <ele>2123.9204</ele>
        <time>2021-08-21T13:22:27</time>
      </trkpt>
      <trkpt lat="45.39016" lon="6.53079">
        <ele>2123.9204</ele>
        <time>2021-08-21T13:22:37</time>
      </trkpt>
      <trkpt lat="45.39017" lon="6.53079">
        <ele>2123.9204</ele>
        <time>2021-08-21T13:22:38</time>
      </trkpt>
      <trkpt lat="45.39019" lon="6.53077">
        <ele>2123.9204</ele>
        <time>2021-08-21T13:22:41</time>
      </trkpt>
      <trkpt lat="45.39026" lon="6.53075">
        <ele>2123.5203</ele>
        <time>2021-08-21T13:22:49</time>
      </trkpt>
      <trkpt lat="45.39028" lon="6.53061">
        <ele>2120.9204</ele>
        <time>2021-08-21T13:23:10</time>
      </trkpt>
      <trkpt lat="45.39029" lon="6.53059">
        <ele>2120.9204</ele>
        <time>2021-08-21T13:23:12</time>
      </trkpt>
      <trkpt lat="45.39032" lon="6.53043">
        <ele>2114.487</ele>
        <time>2021-08-21T13:23:25</time>
      </trkpt>
      <trkpt lat="45.39036" lon="6.5303">
        <ele>2112.5537</ele>
        <time>2021-08-21T13:23:39</time>
      </trkpt>
      <trkpt lat="45.39037" lon="6.53029">
        <ele>2112.5537</ele>
        <time>2021-08-21T13:23:40</time>
      </trkpt>
      <trkpt lat="45.39038" lon="6.53028">
        <ele>2111.1204</ele>
        <time>2021-08-21T13:23:42</time>
      </trkpt>
      <trkpt lat="45.39041" lon="6.53026">
        <ele>2111.1204</ele>
        <time>2021-08-21T13:23:45</time>
      </trkpt>
      <trkpt lat="45.39042" lon="6.53024">
        <ele>2111.1204</ele>
        <time>2021-08-21T13:23:47</time>
      </trkpt>
      <trkpt lat="45.39048" lon="6.5301">
        <ele>2109.4536</ele>
        <time>2021-08-21T13:24:00</time>
      </trkpt>
      <trkpt lat="45.39049" lon="6.53008">
        <ele>2108.8203</ele>
        <time>2021-08-21T13:24:02</time>
      </trkpt>
      <trkpt lat="45.39055" lon="6.52997">
        <ele>2107.2537</ele>
        <time>2021-08-21T13:24:16</time>
      </trkpt>
      <trkpt lat="45.39059" lon="6.52986">
        <ele>2107.1204</ele>
        <time>2021-08-21T13:24:23</time>
      </trkpt>
      <trkpt lat="45.3906" lon="6.52983">
        <ele>2107.1204</ele>
        <time>2021-08-21T13:24:25</time>
      </trkpt>
      <trkpt lat="45.3906" lon="6.52981">
        <ele>2107.1204</ele>
        <time>2021-08-21T13:24:26</time>
      </trkpt>
      <trkpt lat="45.39067" lon="6.52953">
        <ele>2100.6204</ele>
        <time>2021-08-21T13:24:56</time>
      </trkpt>
      <trkpt lat="45.39066" lon="6.52938">
        <ele>2092.8203</ele>
        <time>2021-08-21T13:25:26</time>
      </trkpt>
      <trkpt lat="45.39067" lon="6.52906">
        <ele>2089.3203</ele>
        <time>2021-08-21T13:25:56</time>
      </trkpt>
      <trkpt lat="45.39064" lon="6.52892">
        <ele>2085.8203</ele>
        <time>2021-08-21T13:26:13</time>
      </trkpt>
      <trkpt lat="45.39064" lon="6.52892">
        <ele>2085.8203</ele>
        <time>2021-08-21T13:26:14</time>
      </trkpt>
      <trkpt lat="45.39065" lon="6.5289">
        <ele>2085.8203</ele>
        <time>2021-08-21T13:26:16</time>
      </trkpt>
      <trkpt lat="45.39064" lon="6.52882">
        <ele>2085.8203</ele>
        <time>2021-08-21T13:26:20</time>
      </trkpt>
      <trkpt lat="45.39064" lon="6.52881">
        <ele>2085.8203</ele>
        <time>2021-08-21T13:26:21</time>
      </trkpt>
      <trkpt lat="45.39065" lon="6.5288">
        <ele>2083.387</ele>
        <time>2021-08-21T13:26:22</time>
      </trkpt>
      <trkpt lat="45.39066" lon="6.52876">
        <ele>2083.387</ele>
        <time>2021-08-21T13:26:26</time>
      </trkpt>
      <trkpt lat="45.39066" lon="6.52877">
        <ele>2083.387</ele>
        <time>2021-08-21T13:26:27</time>
      </trkpt>
      <trkpt lat="45.39067" lon="6.52875">
        <ele>2083.387</ele>
        <time>2021-08-21T13:26:30</time>
      </trkpt>
      <trkpt lat="45.39067" lon="6.52874">
        <ele>2083.387</ele>
        <time>2021-08-21T13:26:31</time>
      </trkpt>
      <trkpt lat="45.39068" lon="6.5287">
        <ele>2075.4204</ele>
        <time>2021-08-21T13:26:35</time>
      </trkpt>
      <trkpt lat="45.39068" lon="6.52868">
        <ele>2075.4204</ele>
        <time>2021-08-21T13:26:36</time>
      </trkpt>
      <trkpt lat="45.39068" lon="6.52867">
        <ele>2075.4204</ele>
        <time>2021-08-21T13:26:37</time>
      </trkpt>
      <trkpt lat="45.39073" lon="6.52854">
        <ele>2073.1204</ele>
        <time>2021-08-21T13:26:52</time>
      </trkpt>
      <trkpt lat="45.39078" lon="6.52839">
        <ele>2071.3203</ele>
        <time>2021-08-21T13:27:10</time>
      </trkpt>
      <trkpt lat="45.39078" lon="6.52836">
        <ele>2071.0203</ele>
        <time>2021-08-21T13:27:12</time>
      </trkpt>
      <trkpt lat="45.39078" lon="6.52836">
        <ele>2068.5537</ele>
        <time>2021-08-21T13:27:28</time>
      </trkpt>
      <trkpt lat="45.3908" lon="6.52828">
        <ele>2068.4204</ele>
        <time>2021-08-21T13:27:32</time>
      </trkpt>
      <trkpt lat="45.3908" lon="6.52828">
        <ele>2068.4204</ele>
        <time>2021-08-21T13:27:40</time>
      </trkpt>
      <trkpt lat="45.3908" lon="6.52828">
        <ele>2066.6536</ele>
        <time>2021-08-21T13:27:47</time>
      </trkpt>
      <trkpt lat="45.39087" lon="6.52823">
        <ele>2066.5203</ele>
        <time>2021-08-21T13:27:53</time>
      </trkpt>
      <trkpt lat="45.39088" lon="6.5282">
        <ele>2066.5203</ele>
        <time>2021-08-21T13:27:55</time>
      </trkpt>
      <trkpt lat="45.3909" lon="6.52811">
        <ele>2066.5203</ele>
        <time>2021-08-21T13:28:04</time>
      </trkpt>
      <trkpt lat="45.39091" lon="6.52809">
        <ele>2066.5203</ele>
        <time>2021-08-21T13:28:05</time>
      </trkpt>
      <trkpt lat="45.39092" lon="6.52807">
        <ele>2066.5203</ele>
        <time>2021-08-21T13:28:07</time>
      </trkpt>
      <trkpt lat="45.39094" lon="6.528">
        <ele>2064.5203</ele>
        <time>2021-08-21T13:28:13</time>
      </trkpt>
      <trkpt lat="45.39095" lon="6.52799">
        <ele>2064.5203</ele>
        <time>2021-08-21T13:28:14</time>
      </trkpt>
      <trkpt lat="45.39096" lon="6.52798">
        <ele>2064.5203</ele>
        <time>2021-08-21T13:28:15</time>
      </trkpt>
      <trkpt lat="45.39097" lon="6.52796">
        <ele>2064.5203</ele>
        <time>2021-08-21T13:28:17</time>
      </trkpt>
      <trkpt lat="45.39097" lon="6.52795">
        <ele>2064.5203</ele>
        <time>2021-08-21T13:28:18</time>
      </trkpt>
      <trkpt lat="45.39098" lon="6.52794">
        <ele>2064.5203</ele>
        <time>2021-08-21T13:28:19</time>
      </trkpt>
      <trkpt lat="45.39099" lon="6.52793">
        <ele>2064.5203</ele>
        <time>2021-08-21T13:28:20</time>
      </trkpt>
      <trkpt lat="45.391" lon="6.52792">
        <ele>2064.5203</ele>
        <time>2021-08-21T13:28:21</time>
      </trkpt>
      <trkpt lat="45.39101" lon="6.52792">
        <ele>2063.4204</ele>
        <time>2021-08-21T13:28:22</time>
      </trkpt>
      <trkpt lat="45.39102" lon="6.52791">
        <ele>2063.4204</ele>
        <time>2021-08-21T13:28:23</time>
      </trkpt>
      <trkpt lat="45.39102" lon="6.5279">
        <ele>2063.4204</ele>
        <time>2021-08-21T13:28:24</time>
      </trkpt>
      <trkpt lat="45.39103" lon="6.52787">
        <ele>2063.4204</ele>
        <time>2021-08-21T13:28:26</time>
      </trkpt>
      <trkpt lat="45.39104" lon="6.52786">
        <ele>2063.4204</ele>
        <time>2021-08-21T13:28:27</time>
      </trkpt>
      <trkpt lat="45.39107" lon="6.52777">
        <ele>2062.7202</ele>
        <time>2021-08-21T13:28:35</time>
      </trkpt>
      <trkpt lat="45.39107" lon="6.52776">
        <ele>2062.7202</ele>
        <time>2021-08-21T13:28:36</time>
      </trkpt>
      <trkpt lat="45.39107" lon="6.52773">
        <ele>2062.7202</ele>
        <time>2021-08-21T13:28:37</time>
      </trkpt>
      <trkpt lat="45.39107" lon="6.52772">
        <ele>2062.7202</ele>
        <time>2021-08-21T13:28:38</time>
      </trkpt>
      <trkpt lat="45.39107" lon="6.52771">
        <ele>2062.7202</ele>
        <time>2021-08-21T13:28:40</time>
      </trkpt>
      <trkpt lat="45.39103" lon="6.52759">
        <ele>2059.5203</ele>
        <time>2021-08-21T13:28:52</time>
      </trkpt>
      <trkpt lat="45.39103" lon="6.52753">
        <ele>2059.5203</ele>
        <time>2021-08-21T13:28:56</time>
      </trkpt>
      <trkpt lat="45.39105" lon="6.52723">
        <ele>2055.8203</ele>
        <time>2021-08-21T13:29:26</time>
      </trkpt>
      <trkpt lat="45.391" lon="6.52688">
        <ele>2043.5204</ele>
        <time>2021-08-21T13:29:56</time>
      </trkpt>
      <trkpt lat="45.39093" lon="6.52673">
        <ele>2039.5204</ele>
        <time>2021-08-21T13:30:26</time>
      </trkpt>
      <trkpt lat="45.3909" lon="6.52659">
        <ele>2039.5204</ele>
        <time>2021-08-21T13:30:31</time>
      </trkpt>
      <trkpt lat="45.3909" lon="6.52657">
        <ele>2037.4205</ele>
        <time>2021-08-21T13:30:33</time>
      </trkpt>
      <trkpt lat="45.39089" lon="6.52643">
        <ele>2037.7203</ele>
        <time>2021-08-21T13:30:46</time>
      </trkpt>
      <trkpt lat="45.39089" lon="6.52642">
        <ele>2037.7203</ele>
        <time>2021-08-21T13:30:47</time>
      </trkpt>
      <trkpt lat="45.39089" lon="6.5264">
        <ele>2037.0204</ele>
        <time>2021-08-21T13:31:17</time>
      </trkpt>
      <trkpt lat="45.39089" lon="6.5264">
        <ele>2037.0204</ele>
        <time>2021-08-21T13:31:18</time>
      </trkpt>
      <trkpt lat="45.39089" lon="6.5264">
        <ele>2037.0204</ele>
        <time>2021-08-21T13:31:41</time>
      </trkpt>
      <trkpt lat="45.39089" lon="6.5264">
        <ele>2037.0204</ele>
        <time>2021-08-21T13:31:47</time>
      </trkpt>
      <trkpt lat="45.39089" lon="6.5264">
        <ele>2037.0204</ele>
        <time>2021-08-21T13:32:01</time>
      </trkpt>
      <trkpt lat="45.39089" lon="6.5264">
        <ele>2037.0204</ele>
        <time>2021-08-21T13:32:31</time>
      </trkpt>
      <trkpt lat="45.39089" lon="6.5264">
        <ele>2037.0204</ele>
        <time>2021-08-21T13:33:04</time>
      </trkpt>
      <trkpt lat="45.3909" lon="6.52627">
        <ele>2037.0204</ele>
        <time>2021-08-21T13:33:26</time>
      </trkpt>
      <trkpt lat="45.39091" lon="6.52625">
        <ele>2037.0204</ele>
        <time>2021-08-21T13:33:28</time>
      </trkpt>
      <trkpt lat="45.39091" lon="6.52624">
        <ele>2037.0204</ele>
        <time>2021-08-21T13:33:29</time>
      </trkpt>
      <trkpt lat="45.39095" lon="6.5261">
        <ele>2034.3204</ele>
        <time>2021-08-21T13:33:48</time>
      </trkpt>
      <trkpt lat="45.39101" lon="6.526">
        <ele>2034.3204</ele>
        <time>2021-08-21T13:34:01</time>
      </trkpt>
      <trkpt lat="45.3911" lon="6.52589">
        <ele>2033.1205</ele>
        <time>2021-08-21T13:34:16</time>
      </trkpt>
      <trkpt lat="45.39111" lon="6.52588">
        <ele>2033.1205</ele>
        <time>2021-08-21T13:34:17</time>
      </trkpt>
      <trkpt lat="45.39114" lon="6.52584">
        <ele>2033.1205</ele>
        <time>2021-08-21T13:34:19</time>
      </trkpt>
      <trkpt lat="45.39114" lon="6.52585">
        <ele>2033.1205</ele>
        <time>2021-08-21T13:34:20</time>
      </trkpt>
      <trkpt lat="45.39114" lon="6.52585">
        <ele>2033.1205</ele>
        <time>2021-08-21T13:34:21</time>
      </trkpt>
      <trkpt lat="45.39116" lon="6.52577">
        <ele>2032.9205</ele>
        <time>2021-08-21T13:34:31</time>
      </trkpt>
      <trkpt lat="45.39116" lon="6.52576">
        <ele>2032.4205</ele>
        <time>2021-08-21T13:34:32</time>
      </trkpt>
      <trkpt lat="45.39115" lon="6.52575">
        <ele>2032.4205</ele>
        <time>2021-08-21T13:34:33</time>
      </trkpt>
      <trkpt lat="45.39116" lon="6.52576">
        <ele>2031.6205</ele>
        <time>2021-08-21T13:35:03</time>
      </trkpt>
      <trkpt lat="45.39119" lon="6.52564">
        <ele>2031.6205</ele>
        <time>2021-08-21T13:35:04</time>
      </trkpt>
      <trkpt lat="45.39118" lon="6.52564">
        <ele>2031.6205</ele>
        <time>2021-08-21T13:35:05</time>
      </trkpt>
      <trkpt lat="45.39119" lon="6.52563">
        <ele>2031.6205</ele>
        <time>2021-08-21T13:35:07</time>
      </trkpt>
      <trkpt lat="45.39119" lon="6.52563">
        <ele>2031.6205</ele>
        <time>2021-08-21T13:35:21</time>
      </trkpt>
      <trkpt lat="45.39123" lon="6.5255">
        <ele>2027.6205</ele>
        <time>2021-08-21T13:35:25</time>
      </trkpt>
      <trkpt lat="45.39123" lon="6.52549">
        <ele>2027.6205</ele>
        <time>2021-08-21T13:35:26</time>
      </trkpt>
      <trkpt lat="45.39123" lon="6.52548">
        <ele>2027.6205</ele>
        <time>2021-08-21T13:35:36</time>
      </trkpt>
      <trkpt lat="45.39128" lon="6.52535">
        <ele>2027.6205</ele>
        <time>2021-08-21T13:35:38</time>
      </trkpt>
      <trkpt lat="45.39132" lon="6.5252">
        <ele>2022.6205</ele>
        <time>2021-08-21T13:35:54</time>
      </trkpt>
      <trkpt lat="45.39133" lon="6.52518">
        <ele>2022.6205</ele>
        <time>2021-08-21T13:35:56</time>
      </trkpt>
      <trkpt lat="45.3914" lon="6.52501">
        <ele>2017.9205</ele>
        <time>2021-08-21T13:36:17</time>
      </trkpt>
      <trkpt lat="45.3915" lon="6.5249">
        <ele>2012.1205</ele>
        <time>2021-08-21T13:36:42</time>
      </trkpt>
      <trkpt lat="45.39152" lon="6.52489">
        <ele>2012.1205</ele>
        <time>2021-08-21T13:36:48</time>
      </trkpt>
      <trkpt lat="45.39151" lon="6.52475">
        <ele>2008.8204</ele>
        <time>2021-08-21T13:37:08</time>
      </trkpt>
      <trkpt lat="45.39152" lon="6.52475">
        <ele>2008.8204</ele>
        <time>2021-08-21T13:37:09</time>
      </trkpt>
      <trkpt lat="45.39151" lon="6.52475">
        <ele>2008.8204</ele>
        <time>2021-08-21T13:37:15</time>
      </trkpt>
      <trkpt lat="45.39151" lon="6.52475">
        <ele>2003.8204</ele>
        <time>2021-08-21T13:37:34</time>
      </trkpt>
      <trkpt lat="45.39143" lon="6.5247">
        <ele>2003.8204</ele>
        <time>2021-08-21T13:37:37</time>
      </trkpt>
      <trkpt lat="45.39144" lon="6.52471">
        <ele>2002.2203</ele>
        <time>2021-08-21T13:38:10</time>
      </trkpt>
      <trkpt lat="45.3914" lon="6.52464">
        <ele>2002.2203</ele>
        <time>2021-08-21T13:38:16</time>
      </trkpt>
      <trkpt lat="45.39141" lon="6.52465">
        <ele>1999.9205</ele>
        <time>2021-08-21T13:38:35</time>
      </trkpt>
      <trkpt lat="45.39141" lon="6.52465">
        <ele>1999.9205</ele>
        <time>2021-08-21T13:38:38</time>
      </trkpt>
      <trkpt lat="45.39133" lon="6.52457">
        <ele>1999.9205</ele>
        <time>2021-08-21T13:38:40</time>
      </trkpt>
      <trkpt lat="45.39133" lon="6.52457">
        <ele>1999.9205</ele>
        <time>2021-08-21T13:38:41</time>
      </trkpt>
      <trkpt lat="45.39133" lon="6.52456">
        <ele>1999.9205</ele>
        <time>2021-08-21T13:38:43</time>
      </trkpt>
      <trkpt lat="45.39133" lon="6.52456">
        <ele>1996.1205</ele>
        <time>2021-08-21T13:38:55</time>
      </trkpt>
      <trkpt lat="45.3913" lon="6.52443">
        <ele>1995.9205</ele>
        <time>2021-08-21T13:39:04</time>
      </trkpt>
      <trkpt lat="45.3913" lon="6.52442">
        <ele>1995.9205</ele>
        <time>2021-08-21T13:39:05</time>
      </trkpt>
      <trkpt lat="45.39131" lon="6.5244">
        <ele>1995.9205</ele>
        <time>2021-08-21T13:39:07</time>
      </trkpt>
      <trkpt lat="45.39131" lon="6.5244">
        <ele>1995.9205</ele>
        <time>2021-08-21T13:39:09</time>
      </trkpt>
      <trkpt lat="45.39131" lon="6.5244">
        <ele>1995.9205</ele>
        <time>2021-08-21T13:39:16</time>
      </trkpt>
      <trkpt lat="45.39127" lon="6.52426">
        <ele>1991.7205</ele>
        <time>2021-08-21T13:39:25</time>
      </trkpt>
      <trkpt lat="45.39127" lon="6.52424">
        <ele>1991.7205</ele>
        <time>2021-08-21T13:39:27</time>
      </trkpt>
      <trkpt lat="45.39126" lon="6.52422">
        <ele>1991.7205</ele>
        <time>2021-08-21T13:39:28</time>
      </trkpt>
      <trkpt lat="45.39126" lon="6.52422">
        <ele>1991.7205</ele>
        <time>2021-08-21T13:39:37</time>
      </trkpt>
      <trkpt lat="45.39126" lon="6.52422">
        <ele>1991.7205</ele>
        <time>2021-08-21T13:39:41</time>
      </trkpt>
      <trkpt lat="45.39125" lon="6.52409">
        <ele>1986.5204</ele>
        <time>2021-08-21T13:39:52</time>
      </trkpt>
      <trkpt lat="45.39115" lon="6.52388">
        <ele>1977.8204</ele>
        <time>2021-08-21T13:40:16</time>
      </trkpt>
      <trkpt lat="45.39113" lon="6.52385">
        <ele>1977.8204</ele>
        <time>2021-08-21T13:40:18</time>
      </trkpt>
      <trkpt lat="45.39112" lon="6.52385">
        <ele>1977.8204</ele>
        <time>2021-08-21T13:40:20</time>
      </trkpt>
      <trkpt lat="45.39114" lon="6.52384">
        <ele>1967.2205</ele>
        <time>2021-08-21T13:40:45</time>
      </trkpt>
      <trkpt lat="45.39114" lon="6.5237">
        <ele>1967.2205</ele>
        <time>2021-08-21T13:40:51</time>
      </trkpt>
      <trkpt lat="45.39114" lon="6.52369">
        <ele>1967.2205</ele>
        <time>2021-08-21T13:40:52</time>
      </trkpt>
      <trkpt lat="45.39114" lon="6.52367">
        <ele>1962.4204</ele>
        <time>2021-08-21T13:41:05</time>
      </trkpt>
      <trkpt lat="45.39114" lon="6.52367">
        <ele>1962.2205</ele>
        <time>2021-08-21T13:41:21</time>
      </trkpt>
      <trkpt lat="45.39114" lon="6.52367">
        <ele>1962.2205</ele>
        <time>2021-08-21T13:41:35</time>
      </trkpt>
      <trkpt lat="45.39114" lon="6.52367">
        <ele>1962.2205</ele>
        <time>2021-08-21T13:41:48</time>
      </trkpt>
      <trkpt lat="45.39114" lon="6.52367">
        <ele>1962.2205</ele>
        <time>2021-08-21T13:42:13</time>
      </trkpt>
      <trkpt lat="45.39118" lon="6.52349">
        <ele>1962.2205</ele>
        <time>2021-08-21T13:42:17</time>
      </trkpt>
      <trkpt lat="45.39118" lon="6.52349">
        <ele>1962.2205</ele>
        <time>2021-08-21T13:42:18</time>
      </trkpt>
      <trkpt lat="45.39118" lon="6.52349">
        <ele>1962.2205</ele>
        <time>2021-08-21T13:42:19</time>
      </trkpt>
      <trkpt lat="45.39118" lon="6.52349">
        <ele>1962.2205</ele>
        <time>2021-08-21T13:42:30</time>
      </trkpt>
      <trkpt lat="45.39118" lon="6.52336">
        <ele>1958.1205</ele>
        <time>2021-08-21T13:42:51</time>
      </trkpt>
      <trkpt lat="45.39118" lon="6.52334">
        <ele>1955.0872</ele>
        <time>2021-08-21T13:43:04</time>
      </trkpt>
      <trkpt lat="45.39115" lon="6.52323">
        <ele>1955.0872</ele>
        <time>2021-08-21T13:43:10</time>
      </trkpt>
      <trkpt lat="45.39108" lon="6.52311">
        <ele>1952.0204</ele>
        <time>2021-08-21T13:43:33</time>
      </trkpt>
      <trkpt lat="45.39108" lon="6.52311">
        <ele>1952.0204</ele>
        <time>2021-08-21T13:43:36</time>
      </trkpt>
      <trkpt lat="45.39101" lon="6.52302">
        <ele>1949.7205</ele>
        <time>2021-08-21T13:43:42</time>
      </trkpt>
      <trkpt lat="45.39101" lon="6.52302">
        <ele>1946.9204</ele>
        <time>2021-08-21T13:44:17</time>
      </trkpt>
      <trkpt lat="45.391" lon="6.52306">
        <ele>1946.9204</ele>
        <time>2021-08-21T13:44:19</time>
      </trkpt>
      <trkpt lat="45.39099" lon="6.52307">
        <ele>1941.4204</ele>
        <time>2021-08-21T13:44:49</time>
      </trkpt>
      <trkpt lat="45.39106" lon="6.52299">
        <ele>1941.4204</ele>
        <time>2021-08-21T13:45:19</time>
      </trkpt>
      <trkpt lat="45.3911" lon="6.52293">
        <ele>1941.4204</ele>
        <time>2021-08-21T13:45:24</time>
      </trkpt>
      <trkpt lat="45.39111" lon="6.52289">
        <ele>1941.4204</ele>
        <time>2021-08-21T13:45:27</time>
      </trkpt>
      <trkpt lat="45.39113" lon="6.52287">
        <ele>1941.4204</ele>
        <time>2021-08-21T13:45:30</time>
      </trkpt>
      <trkpt lat="45.39121" lon="6.5228">
        <ele>1939.5204</ele>
        <time>2021-08-21T13:45:40</time>
      </trkpt>
      <trkpt lat="45.39122" lon="6.52281">
        <ele>1939.5204</ele>
        <time>2021-08-21T13:45:41</time>
      </trkpt>
      <trkpt lat="45.39123" lon="6.5228">
        <ele>1937.1205</ele>
        <time>2021-08-21T13:45:43</time>
      </trkpt>
      <trkpt lat="45.39131" lon="6.52271">
        <ele>1934.0204</ele>
        <time>2021-08-21T13:45:52</time>
      </trkpt>
      <trkpt lat="45.39142" lon="6.52258">
        <ele>1929.3204</ele>
        <time>2021-08-21T13:46:07</time>
      </trkpt>
      <trkpt lat="45.39144" lon="6.52257">
        <ele>1929.3204</ele>
        <time>2021-08-21T13:46:08</time>
      </trkpt>
      <trkpt lat="45.39144" lon="6.52256">
        <ele>1929.3204</ele>
        <time>2021-08-21T13:46:09</time>
      </trkpt>
      <trkpt lat="45.39146" lon="6.52253">
        <ele>1925.1205</ele>
        <time>2021-08-21T13:46:16</time>
      </trkpt>
      <trkpt lat="45.39146" lon="6.52253">
        <ele>1925.1205</ele>
        <time>2021-08-21T13:46:17</time>
      </trkpt>
      <trkpt lat="45.39147" lon="6.52253">
        <ele>1925.1205</ele>
        <time>2021-08-21T13:46:18</time>
      </trkpt>
      <trkpt lat="45.39147" lon="6.5225">
        <ele>1925.1205</ele>
        <time>2021-08-21T13:46:20</time>
      </trkpt>
      <trkpt lat="45.39147" lon="6.52249">
        <ele>1923.4204</ele>
        <time>2021-08-21T13:46:27</time>
      </trkpt>
      <trkpt lat="45.39144" lon="6.52237">
        <ele>1921.1205</ele>
        <time>2021-08-21T13:46:38</time>
      </trkpt>
      <trkpt lat="45.39143" lon="6.52236">
        <ele>1921.1205</ele>
        <time>2021-08-21T13:46:39</time>
      </trkpt>
      <trkpt lat="45.39141" lon="6.52229">
        <ele>1921.1205</ele>
        <time>2021-08-21T13:46:43</time>
      </trkpt>
      <trkpt lat="45.3914" lon="6.52223">
        <ele>1919.4204</ele>
        <time>2021-08-21T13:46:54</time>
      </trkpt>
      <trkpt lat="45.39135" lon="6.5221">
        <ele>1919.4204</ele>
        <time>2021-08-21T13:46:58</time>
      </trkpt>
      <trkpt lat="45.39135" lon="6.52207">
        <ele>1916.7871</ele>
        <time>2021-08-21T13:47:08</time>
      </trkpt>
      <trkpt lat="45.39135" lon="6.52207">
        <ele>1915.9204</ele>
        <time>2021-08-21T13:47:25</time>
      </trkpt>
      <trkpt lat="45.39135" lon="6.52207">
        <ele>1915.9204</ele>
        <time>2021-08-21T13:47:39</time>
      </trkpt>
      <trkpt lat="45.39135" lon="6.52193">
        <ele>1915.9204</ele>
        <time>2021-08-21T13:47:43</time>
      </trkpt>
      <trkpt lat="45.39134" lon="6.52189">
        <ele>1915.9204</ele>
        <time>2021-08-21T13:47:46</time>
      </trkpt>
      <trkpt lat="45.39135" lon="6.5218">
        <ele>1915.3538</ele>
        <time>2021-08-21T13:47:54</time>
      </trkpt>
      <trkpt lat="45.39136" lon="6.52158">
        <ele>1912.8538</ele>
        <time>2021-08-21T13:48:06</time>
      </trkpt>
      <trkpt lat="45.39136" lon="6.52151">
        <ele>1912.8538</ele>
        <time>2021-08-21T13:48:10</time>
      </trkpt>
      <trkpt lat="45.39137" lon="6.52148">
        <ele>1912.0204</ele>
        <time>2021-08-21T13:48:12</time>
      </trkpt>
      <trkpt lat="45.3914" lon="6.52141">
        <ele>1912.0204</ele>
        <time>2021-08-21T13:48:16</time>
      </trkpt>
      <trkpt lat="45.39141" lon="6.52137">
        <ele>1912.0204</ele>
        <time>2021-08-21T13:48:18</time>
      </trkpt>
      <trkpt lat="45.39141" lon="6.52136">
        <ele>1912.0204</ele>
        <time>2021-08-21T13:48:19</time>
      </trkpt>
      <trkpt lat="45.39141" lon="6.52136">
        <ele>1912.0204</ele>
        <time>2021-08-21T13:48:20</time>
      </trkpt>
      <trkpt lat="45.39142" lon="6.52132">
        <ele>1910.2205</ele>
        <time>2021-08-21T13:48:31</time>
      </trkpt>
      <trkpt lat="45.39145" lon="6.52118">
        <ele>1907.9204</ele>
        <time>2021-08-21T13:48:38</time>
      </trkpt>
      <trkpt lat="45.39145" lon="6.52115">
        <ele>1907.9204</ele>
        <time>2021-08-21T13:48:40</time>
      </trkpt>
      <trkpt lat="45.39145" lon="6.52113">
        <ele>1907.9204</ele>
        <time>2021-08-21T13:48:41</time>
      </trkpt>
      <trkpt lat="45.39145" lon="6.52109">
        <ele>1905.7205</ele>
        <time>2021-08-21T13:48:43</time>
      </trkpt>
      <trkpt lat="45.39145" lon="6.52108">
        <ele>1905.7205</ele>
        <time>2021-08-21T13:48:44</time>
      </trkpt>
      <trkpt lat="45.39145" lon="6.52106">
        <ele>1905.7205</ele>
        <time>2021-08-21T13:48:45</time>
      </trkpt>
      <trkpt lat="45.39145" lon="6.52105">
        <ele>1905.7205</ele>
        <time>2021-08-21T13:48:46</time>
      </trkpt>
      <trkpt lat="45.39145" lon="6.52103">
        <ele>1905.7205</ele>
        <time>2021-08-21T13:48:47</time>
      </trkpt>
      <trkpt lat="45.39145" lon="6.52102">
        <ele>1905.7205</ele>
        <time>2021-08-21T13:48:48</time>
      </trkpt>
      <trkpt lat="45.39145" lon="6.52101">
        <ele>1905.7205</ele>
        <time>2021-08-21T13:48:49</time>
      </trkpt>
      <trkpt lat="45.39145" lon="6.52092">
        <ele>1903.7205</ele>
        <time>2021-08-21T13:48:55</time>
      </trkpt>
      <trkpt lat="45.39147" lon="6.52089">
        <ele>1903.7205</ele>
        <time>2021-08-21T13:48:57</time>
      </trkpt>
      <trkpt lat="45.39147" lon="6.52088">
        <ele>1903.7205</ele>
        <time>2021-08-21T13:48:58</time>
      </trkpt>
      <trkpt lat="45.39148" lon="6.52086">
        <ele>1903.7205</ele>
        <time>2021-08-21T13:48:59</time>
      </trkpt>
      <trkpt lat="45.39152" lon="6.52076">
        <ele>1901.4204</ele>
        <time>2021-08-21T13:49:05</time>
      </trkpt>
      <trkpt lat="45.39153" lon="6.52074">
        <ele>1901.4204</ele>
        <time>2021-08-21T13:49:07</time>
      </trkpt>
      <trkpt lat="45.39155" lon="6.52071">
        <ele>1901.4204</ele>
        <time>2021-08-21T13:49:09</time>
      </trkpt>
      <trkpt lat="45.39155" lon="6.5207">
        <ele>1901.4204</ele>
        <time>2021-08-21T13:49:10</time>
      </trkpt>
      <trkpt lat="45.39159" lon="6.52064">
        <ele>1897.8204</ele>
        <time>2021-08-21T13:49:16</time>
      </trkpt>
      <trkpt lat="45.39161" lon="6.52062">
        <ele>1897.8204</ele>
        <time>2021-08-21T13:49:18</time>
      </trkpt>
      <trkpt lat="45.39162" lon="6.52061">
        <ele>1897.8204</ele>
        <time>2021-08-21T13:49:19</time>
      </trkpt>
      <trkpt lat="45.39163" lon="6.5206">
        <ele>1897.8204</ele>
        <time>2021-08-21T13:49:20</time>
      </trkpt>
      <trkpt lat="45.39165" lon="6.52061">
        <ele>1895.2871</ele>
        <time>2021-08-21T13:49:22</time>
      </trkpt>
      <trkpt lat="45.39166" lon="6.52061">
        <ele>1895.2871</ele>
        <time>2021-08-21T13:49:23</time>
      </trkpt>
      <trkpt lat="45.39168" lon="6.52061">
        <ele>1895.2871</ele>
        <time>2021-08-21T13:49:24</time>
      </trkpt>
      <trkpt lat="45.39175" lon="6.5206">
        <ele>1895.2871</ele>
        <time>2021-08-21T13:49:29</time>
      </trkpt>
      <trkpt lat="45.39176" lon="6.5206">
        <ele>1895.2871</ele>
        <time>2021-08-21T13:49:30</time>
      </trkpt>
      <trkpt lat="45.39177" lon="6.52059">
        <ele>1895.2871</ele>
        <time>2021-08-21T13:49:31</time>
      </trkpt>
      <trkpt lat="45.39178" lon="6.52059">
        <ele>1894.5204</ele>
        <time>2021-08-21T13:49:32</time>
      </trkpt>
      <trkpt lat="45.39185" lon="6.5206">
        <ele>1894.5204</ele>
        <time>2021-08-21T13:49:39</time>
      </trkpt>
      <trkpt lat="45.39188" lon="6.52059">
        <ele>1894.5204</ele>
        <time>2021-08-21T13:49:41</time>
      </trkpt>
      <trkpt lat="45.39189" lon="6.52058">
        <ele>1894.0537</ele>
        <time>2021-08-21T13:49:42</time>
      </trkpt>
      <trkpt lat="45.3919" lon="6.52056">
        <ele>1894.0537</ele>
        <time>2021-08-21T13:49:44</time>
      </trkpt>
      <trkpt lat="45.39194" lon="6.52055">
        <ele>1894.0537</ele>
        <time>2021-08-21T13:49:48</time>
      </trkpt>
      <trkpt lat="45.39195" lon="6.52055">
        <ele>1894.0537</ele>
        <time>2021-08-21T13:49:49</time>
      </trkpt>
      <trkpt lat="45.39195" lon="6.52054">
        <ele>1894.0537</ele>
        <time>2021-08-21T13:49:50</time>
      </trkpt>
      <trkpt lat="45.39197" lon="6.52051">
        <ele>1894.6205</ele>
        <time>2021-08-21T13:49:53</time>
      </trkpt>
      <trkpt lat="45.39204" lon="6.52042">
        <ele>1894.1205</ele>
        <time>2021-08-21T13:50:17</time>
      </trkpt>
      <trkpt lat="45.39207" lon="6.52039">
        <ele>1894.1205</ele>
        <time>2021-08-21T13:50:19</time>
      </trkpt>
      <trkpt lat="45.39208" lon="6.52038">
        <ele>1894.1205</ele>
        <time>2021-08-21T13:50:22</time>
      </trkpt>
      <trkpt lat="45.39216" lon="6.52029">
        <ele>1894.5204</ele>
        <time>2021-08-21T13:50:36</time>
      </trkpt>
      <trkpt lat="45.39219" lon="6.52022">
        <ele>1895.0537</ele>
        <time>2021-08-21T13:50:42</time>
      </trkpt>
      <trkpt lat="45.39223" lon="6.52015">
        <ele>1895.0537</ele>
        <time>2021-08-21T13:50:49</time>
      </trkpt>
      <trkpt lat="45.39227" lon="6.52003">
        <ele>1896.5204</ele>
        <time>2021-08-21T13:51:02</time>
      </trkpt>
      <trkpt lat="45.39228" lon="6.52001">
        <ele>1896.5204</ele>
        <time>2021-08-21T13:51:04</time>
      </trkpt>
      <trkpt lat="45.39234" lon="6.51988">
        <ele>1896.5204</ele>
        <time>2021-08-21T13:51:16</time>
      </trkpt>
      <trkpt lat="45.39235" lon="6.51985">
        <ele>1896.5204</ele>
        <time>2021-08-21T13:51:18</time>
      </trkpt>
      <trkpt lat="45.39236" lon="6.51984">
        <ele>1896.5204</ele>
        <time>2021-08-21T13:51:19</time>
      </trkpt>
      <trkpt lat="45.39237" lon="6.5198">
        <ele>1897.5204</ele>
        <time>2021-08-21T13:51:22</time>
      </trkpt>
      <trkpt lat="45.39239" lon="6.51979">
        <ele>1897.5204</ele>
        <time>2021-08-21T13:51:24</time>
      </trkpt>
      <trkpt lat="45.39239" lon="6.51978">
        <ele>1897.5204</ele>
        <time>2021-08-21T13:51:25</time>
      </trkpt>
      <trkpt lat="45.39239" lon="6.51978">
        <ele>1897.5204</ele>
        <time>2021-08-21T13:51:26</time>
      </trkpt>
      <trkpt lat="45.39239" lon="6.51977">
        <ele>1897.5204</ele>
        <time>2021-08-21T13:51:27</time>
      </trkpt>
      <trkpt lat="45.39245" lon="6.51963">
        <ele>1896.8204</ele>
        <time>2021-08-21T13:51:40</time>
      </trkpt>
      <trkpt lat="45.39245" lon="6.51962">
        <ele>1894.7205</ele>
        <time>2021-08-21T13:51:42</time>
      </trkpt>
      <trkpt lat="45.39247" lon="6.51952">
        <ele>1894.7205</ele>
        <time>2021-08-21T13:51:51</time>
      </trkpt>
      <trkpt lat="45.39248" lon="6.51949">
        <ele>1894.5204</ele>
        <time>2021-08-21T13:51:53</time>
      </trkpt>
      <trkpt lat="45.39248" lon="6.51946">
        <ele>1894.5204</ele>
        <time>2021-08-21T13:51:55</time>
      </trkpt>
      <trkpt lat="45.3925" lon="6.51942">
        <ele>1894.5204</ele>
        <time>2021-08-21T13:51:58</time>
      </trkpt>
      <trkpt lat="45.39252" lon="6.51938">
        <ele>1894.5204</ele>
        <time>2021-08-21T13:52:01</time>
      </trkpt>
      <trkpt lat="45.39252" lon="6.51938">
        <ele>1890.8204</ele>
        <time>2021-08-21T13:52:02</time>
      </trkpt>
      <trkpt lat="45.3926" lon="6.51931">
        <ele>1889.6538</ele>
        <time>2021-08-21T13:52:13</time>
      </trkpt>
      <trkpt lat="45.39284" lon="6.51911">
        <ele>1880.2205</ele>
        <time>2021-08-21T13:52:43</time>
      </trkpt>
      <trkpt lat="45.39303" lon="6.5188">
        <ele>1873.9204</ele>
        <time>2021-08-21T13:53:13</time>
      </trkpt>
      <trkpt lat="45.39302" lon="6.5186">
        <ele>1872.1205</ele>
        <time>2021-08-21T13:53:33</time>
      </trkpt>
      <trkpt lat="45.3929" lon="6.51817">
        <ele>1870.2538</ele>
        <time>2021-08-21T13:54:03</time>
      </trkpt>
      <trkpt lat="45.39287" lon="6.51785">
        <ele>1870.3871</ele>
        <time>2021-08-21T13:54:33</time>
      </trkpt>
      <trkpt lat="45.3929" lon="6.51755">
        <ele>1867.3204</ele>
        <time>2021-08-21T13:55:03</time>
      </trkpt>
      <trkpt lat="45.39288" lon="6.51732">
        <ele>1865.0204</ele>
        <time>2021-08-21T13:55:31</time>
      </trkpt>
      <trkpt lat="45.39287" lon="6.51729">
        <ele>1865.0204</ele>
        <time>2021-08-21T13:55:34</time>
      </trkpt>
      <trkpt lat="45.39284" lon="6.51716">
        <ele>1861.6205</ele>
        <time>2021-08-21T13:55:45</time>
      </trkpt>
      <trkpt lat="45.39284" lon="6.51714">
        <ele>1861.6205</ele>
        <time>2021-08-21T13:55:47</time>
      </trkpt>
      <trkpt lat="45.39289" lon="6.51702">
        <ele>1861.4204</ele>
        <time>2021-08-21T13:56:00</time>
      </trkpt>
      <trkpt lat="45.3929" lon="6.51701">
        <ele>1859.4204</ele>
        <time>2021-08-21T13:56:02</time>
      </trkpt>
      <trkpt lat="45.39295" lon="6.51695">
        <ele>1855.4204</ele>
        <time>2021-08-21T13:56:19</time>
      </trkpt>
      <trkpt lat="45.39296" lon="6.51694">
        <ele>1855.4204</ele>
        <time>2021-08-21T13:56:23</time>
      </trkpt>
      <trkpt lat="45.39302" lon="6.51685">
        <ele>1854.5537</ele>
        <time>2021-08-21T13:56:35</time>
      </trkpt>
      <trkpt lat="45.39314" lon="6.5168">
        <ele>1854.6205</ele>
        <time>2021-08-21T13:56:48</time>
      </trkpt>
      <trkpt lat="45.39325" lon="6.51673">
        <ele>1856.0204</ele>
        <time>2021-08-21T13:57:04</time>
      </trkpt>
      <trkpt lat="45.39327" lon="6.51672">
        <ele>1856.0204</ele>
        <time>2021-08-21T13:57:05</time>
      </trkpt>
      <trkpt lat="45.39331" lon="6.51672">
        <ele>1856.0204</ele>
        <time>2021-08-21T13:57:08</time>
      </trkpt>
      <trkpt lat="45.39341" lon="6.51666">
        <ele>1850.2205</ele>
        <time>2021-08-21T13:57:22</time>
      </trkpt>
      <trkpt lat="45.39342" lon="6.51665">
        <ele>1850.2205</ele>
        <time>2021-08-21T13:57:24</time>
      </trkpt>
      <trkpt lat="45.39342" lon="6.51665">
        <ele>1847.8204</ele>
        <time>2021-08-21T13:57:49</time>
      </trkpt>
      <trkpt lat="45.39351" lon="6.51661">
        <ele>1846.9204</ele>
        <time>2021-08-21T13:58:00</time>
      </trkpt>
      <trkpt lat="45.3936" lon="6.51651">
        <ele>1843.9204</ele>
        <time>2021-08-21T13:58:15</time>
      </trkpt>
      <trkpt lat="45.39361" lon="6.5165">
        <ele>1843.9204</ele>
        <time>2021-08-21T13:58:16</time>
      </trkpt>
      <trkpt lat="45.39363" lon="6.51649">
        <ele>1843.9204</ele>
        <time>2021-08-21T13:58:17</time>
      </trkpt>
      <trkpt lat="45.39364" lon="6.51649">
        <ele>1843.9204</ele>
        <time>2021-08-21T13:58:18</time>
      </trkpt>
      <trkpt lat="45.39364" lon="6.51648">
        <ele>1843.9204</ele>
        <time>2021-08-21T13:58:19</time>
      </trkpt>
      <trkpt lat="45.39364" lon="6.51648">
        <ele>1843.9204</ele>
        <time>2021-08-21T13:58:20</time>
      </trkpt>
      <trkpt lat="45.39363" lon="6.51648">
        <ele>1843.9204</ele>
        <time>2021-08-21T13:58:21</time>
      </trkpt>
      <trkpt lat="45.39368" lon="6.5164">
        <ele>1842.0204</ele>
        <time>2021-08-21T13:58:27</time>
      </trkpt>
      <trkpt lat="45.39371" lon="6.51637">
        <ele>1842.0204</ele>
        <time>2021-08-21T13:58:31</time>
      </trkpt>
      <trkpt lat="45.39372" lon="6.51636">
        <ele>1842.5204</ele>
        <time>2021-08-21T13:58:32</time>
      </trkpt>
      <trkpt lat="45.39377" lon="6.51632">
        <ele>1842.5204</ele>
        <time>2021-08-21T13:58:38</time>
      </trkpt>
      <trkpt lat="45.39384" lon="6.51625">
        <ele>1843.4204</ele>
        <time>2021-08-21T13:59:13</time>
      </trkpt>
      <trkpt lat="45.39384" lon="6.51625">
        <ele>1843.4204</ele>
        <time>2021-08-21T13:59:32</time>
      </trkpt>
      <trkpt lat="45.39394" lon="6.51623">
        <ele>1843.4204</ele>
        <time>2021-08-21T13:59:37</time>
      </trkpt>
      <trkpt lat="45.39394" lon="6.51622">
        <ele>1843.4204</ele>
        <time>2021-08-21T13:59:38</time>
      </trkpt>
      <trkpt lat="45.39395" lon="6.51621">
        <ele>1843.4204</ele>
        <time>2021-08-21T13:59:39</time>
      </trkpt>
      <trkpt lat="45.39401" lon="6.5162">
        <ele>1843.4204</ele>
        <time>2021-08-21T13:59:54</time>
      </trkpt>
      <trkpt lat="45.39404" lon="6.5162">
        <ele>1843.4204</ele>
        <time>2021-08-21T13:59:56</time>
      </trkpt>
      <trkpt lat="45.39405" lon="6.5162">
        <ele>1843.4204</ele>
        <time>2021-08-21T13:59:58</time>
      </trkpt>
      <trkpt lat="45.39407" lon="6.5162">
        <ele>1843.4204</ele>
        <time>2021-08-21T14:00:00</time>
      </trkpt>
      <trkpt lat="45.39409" lon="6.51619">
        <ele>1843.4204</ele>
        <time>2021-08-21T14:00:02</time>
      </trkpt>
      <trkpt lat="45.39413" lon="6.51618">
        <ele>1843.4204</ele>
        <time>2021-08-21T14:00:04</time>
      </trkpt>
      <trkpt lat="45.39415" lon="6.51618">
        <ele>1843.4204</ele>
        <time>2021-08-21T14:00:05</time>
      </trkpt>
      <trkpt lat="45.39416" lon="6.51618">
        <ele>1843.4204</ele>
        <time>2021-08-21T14:00:06</time>
      </trkpt>
      <trkpt lat="45.39416" lon="6.51619">
        <ele>1843.4204</ele>
        <time>2021-08-21T14:00:07</time>
      </trkpt>
      <trkpt lat="45.39417" lon="6.51618">
        <ele>1843.4204</ele>
        <time>2021-08-21T14:00:08</time>
      </trkpt>
      <trkpt lat="45.39425" lon="6.51618">
        <ele>1841.7871</ele>
        <time>2021-08-21T14:00:18</time>
      </trkpt>
      <trkpt lat="45.39426" lon="6.51618">
        <ele>1841.7871</ele>
        <time>2021-08-21T14:00:19</time>
      </trkpt>
      <trkpt lat="45.39429" lon="6.51618">
        <ele>1837.9204</ele>
        <time>2021-08-21T14:00:23</time>
      </trkpt>
      <trkpt lat="45.39439" lon="6.5162">
        <ele>1835.6205</ele>
        <time>2021-08-21T14:00:34</time>
      </trkpt>
      <trkpt lat="45.39448" lon="6.51622">
        <ele>1833.6205</ele>
        <time>2021-08-21T14:00:47</time>
      </trkpt>
      <trkpt lat="45.39459" lon="6.5162">
        <ele>1832.7205</ele>
        <time>2021-08-21T14:01:00</time>
      </trkpt>
      <trkpt lat="45.39473" lon="6.51614">
        <ele>1829.7205</ele>
        <time>2021-08-21T14:01:16</time>
      </trkpt>
      <trkpt lat="45.39476" lon="6.51611">
        <ele>1829.7205</ele>
        <time>2021-08-21T14:01:19</time>
      </trkpt>
      <trkpt lat="45.39478" lon="6.5161">
        <ele>1829.7205</ele>
        <time>2021-08-21T14:01:21</time>
      </trkpt>
      <trkpt lat="45.39491" lon="6.51598">
        <ele>1828.7205</ele>
        <time>2021-08-21T14:01:37</time>
      </trkpt>
      <trkpt lat="45.39493" lon="6.51597">
        <ele>1828.7205</ele>
        <time>2021-08-21T14:01:39</time>
      </trkpt>
      <trkpt lat="45.39514" lon="6.51583">
        <ele>1826.5204</ele>
        <time>2021-08-21T14:02:09</time>
      </trkpt>
      <trkpt lat="45.39517" lon="6.51579">
        <ele>1826.5204</ele>
        <time>2021-08-21T14:02:11</time>
      </trkpt>
      <trkpt lat="45.39519" lon="6.51577">
        <ele>1824.8204</ele>
        <time>2021-08-21T14:02:13</time>
      </trkpt>
      <trkpt lat="45.3952" lon="6.51575">
        <ele>1824.8204</ele>
        <time>2021-08-21T14:02:15</time>
      </trkpt>
      <trkpt lat="45.39523" lon="6.51573">
        <ele>1824.8204</ele>
        <time>2021-08-21T14:02:17</time>
      </trkpt>
      <trkpt lat="45.39525" lon="6.51571">
        <ele>1824.8204</ele>
        <time>2021-08-21T14:02:18</time>
      </trkpt>
      <trkpt lat="45.39526" lon="6.51571">
        <ele>1824.8204</ele>
        <time>2021-08-21T14:02:20</time>
      </trkpt>
      <trkpt lat="45.39535" lon="6.51567">
        <ele>1824.0204</ele>
        <time>2021-08-21T14:02:35</time>
      </trkpt>
      <trkpt lat="45.39536" lon="6.51566">
        <ele>1824.0204</ele>
        <time>2021-08-21T14:02:36</time>
      </trkpt>
      <trkpt lat="45.39545" lon="6.51559">
        <ele>1824.0204</ele>
        <time>2021-08-21T14:02:51</time>
      </trkpt>
      <trkpt lat="45.39546" lon="6.51558">
        <ele>1822.2205</ele>
        <time>2021-08-21T14:02:52</time>
      </trkpt>
      <trkpt lat="45.39546" lon="6.51557">
        <ele>1822.2205</ele>
        <time>2021-08-21T14:02:53</time>
      </trkpt>
      <trkpt lat="45.39555" lon="6.51548">
        <ele>1821.0204</ele>
        <time>2021-08-21T14:03:04</time>
      </trkpt>
      <trkpt lat="45.39558" lon="6.51545">
        <ele>1821.0204</ele>
        <time>2021-08-21T14:03:07</time>
      </trkpt>
      <trkpt lat="45.39563" lon="6.51543">
        <ele>1819.4204</ele>
        <time>2021-08-21T14:03:13</time>
      </trkpt>
      <trkpt lat="45.39577" lon="6.51533">
        <ele>1816.9204</ele>
        <time>2021-08-21T14:03:33</time>
      </trkpt>
      <trkpt lat="45.39591" lon="6.51521">
        <ele>1815.4204</ele>
        <time>2021-08-21T14:03:45</time>
      </trkpt>
      <trkpt lat="45.39594" lon="6.51519">
        <ele>1815.4204</ele>
        <time>2021-08-21T14:03:48</time>
      </trkpt>
      <trkpt lat="45.39596" lon="6.51518">
        <ele>1815.4204</ele>
        <time>2021-08-21T14:03:50</time>
      </trkpt>
      <trkpt lat="45.39597" lon="6.51517">
        <ele>1811.6205</ele>
        <time>2021-08-21T14:03:52</time>
      </trkpt>
      <trkpt lat="45.39598" lon="6.51517">
        <ele>1811.6205</ele>
        <time>2021-08-21T14:03:53</time>
      </trkpt>
      <trkpt lat="45.396" lon="6.51514">
        <ele>1811.6205</ele>
        <time>2021-08-21T14:03:55</time>
      </trkpt>
      <trkpt lat="45.39601" lon="6.51513">
        <ele>1811.6205</ele>
        <time>2021-08-21T14:03:56</time>
      </trkpt>
      <trkpt lat="45.39603" lon="6.51511">
        <ele>1811.6205</ele>
        <time>2021-08-21T14:03:59</time>
      </trkpt>
      <trkpt lat="45.39604" lon="6.5151">
        <ele>1811.6205</ele>
        <time>2021-08-21T14:04:00</time>
      </trkpt>
      <trkpt lat="45.39605" lon="6.5151">
        <ele>1811.6205</ele>
        <time>2021-08-21T14:04:01</time>
      </trkpt>
      <trkpt lat="45.39608" lon="6.51507">
        <ele>1808.7205</ele>
        <time>2021-08-21T14:04:05</time>
      </trkpt>
      <trkpt lat="45.39609" lon="6.51506">
        <ele>1808.7205</ele>
        <time>2021-08-21T14:04:06</time>
      </trkpt>
      <trkpt lat="45.39609" lon="6.51505">
        <ele>1808.7205</ele>
        <time>2021-08-21T14:04:07</time>
      </trkpt>
      <trkpt lat="45.39611" lon="6.51507">
        <ele>1808.7205</ele>
        <time>2021-08-21T14:04:09</time>
      </trkpt>
      <trkpt lat="45.39613" lon="6.51507">
        <ele>1808.7205</ele>
        <time>2021-08-21T14:04:10</time>
      </trkpt>
      <trkpt lat="45.39614" lon="6.51506">
        <ele>1808.7205</ele>
        <time>2021-08-21T14:04:11</time>
      </trkpt>
      <trkpt lat="45.39614" lon="6.51505">
        <ele>1806.7871</ele>
        <time>2021-08-21T14:04:13</time>
      </trkpt>
      <trkpt lat="45.3963" lon="6.51493">
        <ele>1803.8204</ele>
        <time>2021-08-21T14:04:43</time>
      </trkpt>
      <trkpt lat="45.3965" lon="6.51484">
        <ele>1796.4204</ele>
        <time>2021-08-21T14:05:04</time>
      </trkpt>
      <trkpt lat="45.39651" lon="6.51481">
        <ele>1796.4204</ele>
        <time>2021-08-21T14:05:06</time>
      </trkpt>
      <trkpt lat="45.39651" lon="6.5148">
        <ele>1796.4204</ele>
        <time>2021-08-21T14:05:11</time>
      </trkpt>
      <trkpt lat="45.39651" lon="6.5148">
        <ele>1796.4204</ele>
        <time>2021-08-21T14:05:15</time>
      </trkpt>
      <trkpt lat="45.39658" lon="6.51469">
        <ele>1796.4204</ele>
        <time>2021-08-21T14:05:16</time>
      </trkpt>
      <trkpt lat="45.3966" lon="6.51465">
        <ele>1794.7205</ele>
        <time>2021-08-21T14:05:26</time>
      </trkpt>
      <trkpt lat="45.3966" lon="6.51465">
        <ele>1794.7205</ele>
        <time>2021-08-21T14:05:29</time>
      </trkpt>
      <trkpt lat="45.39671" lon="6.51458">
        <ele>1793.9204</ele>
        <time>2021-08-21T14:05:32</time>
      </trkpt>
      <trkpt lat="45.39672" lon="6.51457">
        <ele>1793.9204</ele>
        <time>2021-08-21T14:05:33</time>
      </trkpt>
      <trkpt lat="45.39672" lon="6.51457">
        <ele>1793.9204</ele>
        <time>2021-08-21T14:05:37</time>
      </trkpt>
      <trkpt lat="45.39672" lon="6.51457">
        <ele>1793.9204</ele>
        <time>2021-08-21T14:05:40</time>
      </trkpt>
      <trkpt lat="45.39672" lon="6.51457">
        <ele>1793.3538</ele>
        <time>2021-08-21T14:05:43</time>
      </trkpt>
      <trkpt lat="45.3968" lon="6.5145">
        <ele>1793.3538</ele>
        <time>2021-08-21T14:05:44</time>
      </trkpt>
      <trkpt lat="45.39682" lon="6.51448">
        <ele>1793.3538</ele>
        <time>2021-08-21T14:05:46</time>
      </trkpt>
      <trkpt lat="45.39682" lon="6.51447">
        <ele>1793.3538</ele>
        <time>2021-08-21T14:05:47</time>
      </trkpt>
      <trkpt lat="45.39682" lon="6.51447">
        <ele>1793.2205</ele>
        <time>2021-08-21T14:05:55</time>
      </trkpt>
      <trkpt lat="45.39699" lon="6.51432">
        <ele>1791.0204</ele>
        <time>2021-08-21T14:06:16</time>
      </trkpt>
      <trkpt lat="45.39701" lon="6.51431">
        <ele>1791.0204</ele>
        <time>2021-08-21T14:06:17</time>
      </trkpt>
      <trkpt lat="45.39706" lon="6.51427">
        <ele>1791.0204</ele>
        <time>2021-08-21T14:06:19</time>
      </trkpt>
      <trkpt lat="45.39712" lon="6.51427">
        <ele>1790.7205</ele>
        <time>2021-08-21T14:06:23</time>
      </trkpt>
      <trkpt lat="45.39714" lon="6.51426">
        <ele>1790.7205</ele>
        <time>2021-08-21T14:06:25</time>
      </trkpt>
      <trkpt lat="45.39715" lon="6.51424">
        <ele>1790.7205</ele>
        <time>2021-08-21T14:06:27</time>
      </trkpt>
      <trkpt lat="45.39716" lon="6.51424">
        <ele>1790.7205</ele>
        <time>2021-08-21T14:06:28</time>
      </trkpt>
      <trkpt lat="45.39719" lon="6.51422">
        <ele>1790.7205</ele>
        <time>2021-08-21T14:06:31</time>
      </trkpt>
      <trkpt lat="45.39721" lon="6.51422">
        <ele>1784.7205</ele>
        <time>2021-08-21T14:06:33</time>
      </trkpt>
      <trkpt lat="45.39722" lon="6.51421">
        <ele>1784.7205</ele>
        <time>2021-08-21T14:06:34</time>
      </trkpt>
      <trkpt lat="45.39722" lon="6.51421">
        <ele>1784.7205</ele>
        <time>2021-08-21T14:06:38</time>
      </trkpt>
      <trkpt lat="45.39722" lon="6.51421">
        <ele>1784.7205</ele>
        <time>2021-08-21T14:06:41</time>
      </trkpt>
      <trkpt lat="45.39722" lon="6.51421">
        <ele>1784.9204</ele>
        <time>2021-08-21T14:06:45</time>
      </trkpt>
      <trkpt lat="45.3973" lon="6.51414">
        <ele>1784.9204</ele>
        <time>2021-08-21T14:06:49</time>
      </trkpt>
      <trkpt lat="45.39731" lon="6.51413">
        <ele>1784.9204</ele>
        <time>2021-08-21T14:06:50</time>
      </trkpt>
      <trkpt lat="45.39733" lon="6.51411">
        <ele>1784.9204</ele>
        <time>2021-08-21T14:06:54</time>
      </trkpt>
      <trkpt lat="45.39733" lon="6.51411">
        <ele>1784.9204</ele>
        <time>2021-08-21T14:06:56</time>
      </trkpt>
      <trkpt lat="45.39733" lon="6.51411">
        <ele>1784.9204</ele>
        <time>2021-08-21T14:07:01</time>
      </trkpt>
      <trkpt lat="45.39733" lon="6.51411">
        <ele>1783.9204</ele>
        <time>2021-08-21T14:07:07</time>
      </trkpt>
      <trkpt lat="45.39733" lon="6.51411">
        <ele>1783.9204</ele>
        <time>2021-08-21T14:07:12</time>
      </trkpt>
      <trkpt lat="45.39733" lon="6.51411">
        <ele>1783.9204</ele>
        <time>2021-08-21T14:07:16</time>
      </trkpt>
      <trkpt lat="45.3974" lon="6.51404">
        <ele>1783.9204</ele>
        <time>2021-08-21T14:07:21</time>
      </trkpt>
      <trkpt lat="45.39754" lon="6.51395">
        <ele>1780.7205</ele>
        <time>2021-08-21T14:07:39</time>
      </trkpt>
      <trkpt lat="45.39754" lon="6.51395">
        <ele>1780.6205</ele>
        <time>2021-08-21T14:07:45</time>
      </trkpt>
      <trkpt lat="45.39766" lon="6.5139">
        <ele>1780.6205</ele>
        <time>2021-08-21T14:07:47</time>
      </trkpt>
      <trkpt lat="45.39771" lon="6.51387">
        <ele>1780.6205</ele>
        <time>2021-08-21T14:07:50</time>
      </trkpt>
      <trkpt lat="45.39773" lon="6.51386">
        <ele>1777.6538</ele>
        <time>2021-08-21T14:07:53</time>
      </trkpt>
      <trkpt lat="45.39773" lon="6.51386">
        <ele>1777.6538</ele>
        <time>2021-08-21T14:08:00</time>
      </trkpt>
      <trkpt lat="45.39781" lon="6.51379">
        <ele>1775.7205</ele>
        <time>2021-08-21T14:08:05</time>
      </trkpt>
      <trkpt lat="45.39781" lon="6.51378">
        <ele>1775.7205</ele>
        <time>2021-08-21T14:08:06</time>
      </trkpt>
      <trkpt lat="45.39782" lon="6.51377">
        <ele>1775.7205</ele>
        <time>2021-08-21T14:08:07</time>
      </trkpt>
      <trkpt lat="45.39792" lon="6.5137">
        <ele>1775.7205</ele>
        <time>2021-08-21T14:08:15</time>
      </trkpt>
      <trkpt lat="45.39795" lon="6.5137">
        <ele>1775.7205</ele>
        <time>2021-08-21T14:08:17</time>
      </trkpt>
      <trkpt lat="45.39796" lon="6.51369">
        <ele>1775.7205</ele>
        <time>2021-08-21T14:08:18</time>
      </trkpt>
      <trkpt lat="45.39795" lon="6.5137">
        <ele>1775.7205</ele>
        <time>2021-08-21T14:08:19</time>
      </trkpt>
      <trkpt lat="45.39798" lon="6.51369">
        <ele>1775.7205</ele>
        <time>2021-08-21T14:08:21</time>
      </trkpt>
      <trkpt lat="45.39799" lon="6.51369">
        <ele>1772.6205</ele>
        <time>2021-08-21T14:08:22</time>
      </trkpt>
      <trkpt lat="45.39799" lon="6.5137">
        <ele>1777.1205</ele>
        <time>2021-08-21T14:08:56</time>
      </trkpt>
      <trkpt lat="45.39799" lon="6.5137">
        <ele>1777.1205</ele>
        <time>2021-08-21T14:09:04</time>
      </trkpt>
      <trkpt lat="45.39799" lon="6.5137">
        <ele>1777.1205</ele>
        <time>2021-08-21T14:09:54</time>
      </trkpt>
      <trkpt lat="45.39812" lon="6.51377">
        <ele>1777.1205</ele>
        <time>2021-08-21T14:10:16</time>
      </trkpt>
      <trkpt lat="45.39814" lon="6.51375">
        <ele>1777.1205</ele>
        <time>2021-08-21T14:10:18</time>
      </trkpt>
      <trkpt lat="45.39814" lon="6.51375">
        <ele>1777.1205</ele>
        <time>2021-08-21T14:10:19</time>
      </trkpt>
      <trkpt lat="45.39813" lon="6.51375">
        <ele>1777.1205</ele>
        <time>2021-08-21T14:10:20</time>
      </trkpt>
      <trkpt lat="45.39821" lon="6.51369">
        <ele>1772.5204</ele>
        <time>2021-08-21T14:10:28</time>
      </trkpt>
      <trkpt lat="45.39823" lon="6.51367">
        <ele>1772.5204</ele>
        <time>2021-08-21T14:10:30</time>
      </trkpt>
      <trkpt lat="45.39827" lon="6.51363">
        <ele>1771.9204</ele>
        <time>2021-08-21T14:10:37</time>
      </trkpt>
      <trkpt lat="45.39827" lon="6.51363">
        <ele>1770.8204</ele>
        <time>2021-08-21T14:10:42</time>
      </trkpt>
      <trkpt lat="45.39827" lon="6.51363">
        <ele>1770.4204</ele>
        <time>2021-08-21T14:11:12</time>
      </trkpt>
      <trkpt lat="45.39848" lon="6.51349">
        <ele>1763.3204</ele>
        <time>2021-08-21T14:11:42</time>
      </trkpt>
      <trkpt lat="45.39853" lon="6.51348">
        <ele>1763.3204</ele>
        <time>2021-08-21T14:11:48</time>
      </trkpt>
      <trkpt lat="45.39862" lon="6.51347">
        <ele>1761.0204</ele>
        <time>2021-08-21T14:12:02</time>
      </trkpt>
      <trkpt lat="45.39864" lon="6.51347">
        <ele>1761.0204</ele>
        <time>2021-08-21T14:12:04</time>
      </trkpt>
      <trkpt lat="45.39864" lon="6.51347">
        <ele>1761.0204</ele>
        <time>2021-08-21T14:12:05</time>
      </trkpt>
      <trkpt lat="45.39874" lon="6.51346">
        <ele>1761.0204</ele>
        <time>2021-08-21T14:12:17</time>
      </trkpt>
      <trkpt lat="45.39876" lon="6.51346">
        <ele>1761.0204</ele>
        <time>2021-08-21T14:12:19</time>
      </trkpt>
      <trkpt lat="45.39876" lon="6.51347">
        <ele>1761.0204</ele>
        <time>2021-08-21T14:12:20</time>
      </trkpt>
      <trkpt lat="45.39878" lon="6.51345">
        <ele>1761.0204</ele>
        <time>2021-08-21T14:12:21</time>
      </trkpt>
      <trkpt lat="45.39887" lon="6.51344">
        <ele>1755.2205</ele>
        <time>2021-08-21T14:12:33</time>
      </trkpt>
      <trkpt lat="45.39889" lon="6.51344">
        <ele>1755.2205</ele>
        <time>2021-08-21T14:12:36</time>
      </trkpt>
      <trkpt lat="45.39902" lon="6.51342">
        <ele>1753.8871</ele>
        <time>2021-08-21T14:12:48</time>
      </trkpt>
      <trkpt lat="45.39905" lon="6.51343">
        <ele>1753.8871</ele>
        <time>2021-08-21T14:12:50</time>
      </trkpt>
      <trkpt lat="45.39907" lon="6.51343">
        <ele>1750.1871</ele>
        <time>2021-08-21T14:12:52</time>
      </trkpt>
      <trkpt lat="45.39907" lon="6.51343">
        <ele>1750.1871</ele>
        <time>2021-08-21T14:12:53</time>
      </trkpt>
      <trkpt lat="45.39917" lon="6.51341">
        <ele>1749.4204</ele>
        <time>2021-08-21T14:13:08</time>
      </trkpt>
      <trkpt lat="45.39917" lon="6.51341">
        <ele>1749.4204</ele>
        <time>2021-08-21T14:13:09</time>
      </trkpt>
      <trkpt lat="45.39926" lon="6.51336">
        <ele>1746.4204</ele>
        <time>2021-08-21T14:13:22</time>
      </trkpt>
      <trkpt lat="45.3993" lon="6.51335">
        <ele>1746.4204</ele>
        <time>2021-08-21T14:13:26</time>
      </trkpt>
      <trkpt lat="45.39931" lon="6.51335">
        <ele>1746.4204</ele>
        <time>2021-08-21T14:13:28</time>
      </trkpt>
      <trkpt lat="45.39931" lon="6.51335">
        <ele>1746.4204</ele>
        <time>2021-08-21T14:13:31</time>
      </trkpt>
      <trkpt lat="45.39931" lon="6.51335">
        <ele>1744.5204</ele>
        <time>2021-08-21T14:13:38</time>
      </trkpt>
      <trkpt lat="45.39931" lon="6.51335">
        <ele>1744.5204</ele>
        <time>2021-08-21T14:13:40</time>
      </trkpt>
      <trkpt lat="45.39942" lon="6.51328">
        <ele>1744.2205</ele>
        <time>2021-08-21T14:13:44</time>
      </trkpt>
      <trkpt lat="45.39952" lon="6.51327">
        <ele>1744.0204</ele>
        <time>2021-08-21T14:13:54</time>
      </trkpt>
      <trkpt lat="45.39953" lon="6.51328">
        <ele>1744.0204</ele>
        <time>2021-08-21T14:13:57</time>
      </trkpt>
      <trkpt lat="45.39953" lon="6.51328">
        <ele>1743.1205</ele>
        <time>2021-08-21T14:14:08</time>
      </trkpt>
      <trkpt lat="45.39953" lon="6.51328">
        <ele>1743.1205</ele>
        <time>2021-08-21T14:14:11</time>
      </trkpt>
      <trkpt lat="45.39959" lon="6.51339">
        <ele>1743.0204</ele>
        <time>2021-08-21T14:14:13</time>
      </trkpt>
      <trkpt lat="45.39952" lon="6.51358">
        <ele>1742.0204</ele>
        <time>2021-08-21T14:14:22</time>
      </trkpt>
      <trkpt lat="45.39952" lon="6.5136">
        <ele>1742.0204</ele>
        <time>2021-08-21T14:14:31</time>
      </trkpt>
      <trkpt lat="45.39952" lon="6.5136">
        <ele>1741.9204</ele>
        <time>2021-08-21T14:14:36</time>
      </trkpt>
      <trkpt lat="45.3995" lon="6.51376">
        <ele>1741.9204</ele>
        <time>2021-08-21T14:14:40</time>
      </trkpt>
      <trkpt lat="45.3995" lon="6.51378">
        <ele>1741.9204</ele>
        <time>2021-08-21T14:14:41</time>
      </trkpt>
      <trkpt lat="45.3995" lon="6.51378">
        <ele>1742.0872</ele>
        <time>2021-08-21T14:14:44</time>
      </trkpt>
      <trkpt lat="45.3995" lon="6.51378">
        <ele>1742.0872</ele>
        <time>2021-08-21T14:14:50</time>
      </trkpt>
      <trkpt lat="45.3995" lon="6.51378">
        <ele>1742.2205</ele>
        <time>2021-08-21T14:14:55</time>
      </trkpt>
      <trkpt lat="45.3995" lon="6.51432">
        <ele>1736.0204</ele>
        <time>2021-08-21T14:15:25</time>
      </trkpt>
      <trkpt lat="45.39968" lon="6.51474">
        <ele>1730.6205</ele>
        <time>2021-08-21T14:15:55</time>
      </trkpt>
      <trkpt lat="45.39978" lon="6.51506">
        <ele>1728.9204</ele>
        <time>2021-08-21T14:16:25</time>
      </trkpt>
      <trkpt lat="45.39982" lon="6.51546">
        <ele>1725.1205</ele>
        <time>2021-08-21T14:16:55</time>
      </trkpt>
      <trkpt lat="45.39976" lon="6.51571">
        <ele>1721.4204</ele>
        <time>2021-08-21T14:17:25</time>
      </trkpt>
      <trkpt lat="45.39982" lon="6.51605">
        <ele>1719.9204</ele>
        <time>2021-08-21T14:17:55</time>
      </trkpt>
      <trkpt lat="45.39983" lon="6.51621">
        <ele>1719.9204</ele>
        <time>2021-08-21T14:17:57</time>
      </trkpt>
      <trkpt lat="45.39983" lon="6.51626">
        <ele>1719.9204</ele>
        <time>2021-08-21T14:17:58</time>
      </trkpt>
      <trkpt lat="45.39983" lon="6.51627">
        <ele>1719.9204</ele>
        <time>2021-08-21T14:17:59</time>
      </trkpt>
      <trkpt lat="45.39983" lon="6.51627">
        <ele>1719.5204</ele>
        <time>2021-08-21T14:18:05</time>
      </trkpt>
      <trkpt lat="45.39983" lon="6.51627">
        <ele>1719.5204</ele>
        <time>2021-08-21T14:18:11</time>
      </trkpt>
      <trkpt lat="45.3999" lon="6.51638">
        <ele>1720.0204</ele>
        <time>2021-08-21T14:18:14</time>
      </trkpt>
      <trkpt lat="45.39991" lon="6.51639">
        <ele>1720.0204</ele>
        <time>2021-08-21T14:18:15</time>
      </trkpt>
      <trkpt lat="45.39991" lon="6.51639">
        <ele>1720.0204</ele>
        <time>2021-08-21T14:18:16</time>
      </trkpt>
      <trkpt lat="45.39992" lon="6.5164">
        <ele>1720.0204</ele>
        <time>2021-08-21T14:18:17</time>
      </trkpt>
      <trkpt lat="45.39992" lon="6.5164">
        <ele>1720.0204</ele>
        <time>2021-08-21T14:18:24</time>
      </trkpt>
      <trkpt lat="45.39998" lon="6.51651">
        <ele>1720.0204</ele>
        <time>2021-08-21T14:18:27</time>
      </trkpt>
      <trkpt lat="45.40004" lon="6.51655">
        <ele>1718.0204</ele>
        <time>2021-08-21T14:18:32</time>
      </trkpt>
      <trkpt lat="45.40007" lon="6.51658">
        <ele>1718.0204</ele>
        <time>2021-08-21T14:18:35</time>
      </trkpt>
      <trkpt lat="45.40007" lon="6.51658">
        <ele>1717.2205</ele>
        <time>2021-08-21T14:18:44</time>
      </trkpt>
      <trkpt lat="45.40026" lon="6.51655">
        <ele>1717.4204</ele>
        <time>2021-08-21T14:19:05</time>
      </trkpt>
      <trkpt lat="45.40028" lon="6.51654">
        <ele>1717.5204</ele>
        <time>2021-08-21T14:19:29</time>
      </trkpt>
      <trkpt lat="45.40034" lon="6.51643">
        <ele>1717.5204</ele>
        <time>2021-08-21T14:19:34</time>
      </trkpt>
      <trkpt lat="45.40034" lon="6.51643">
        <ele>1717.5204</ele>
        <time>2021-08-21T14:19:37</time>
      </trkpt>
      <trkpt lat="45.40034" lon="6.51643">
        <ele>1717.5204</ele>
        <time>2021-08-21T14:19:39</time>
      </trkpt>
      <trkpt lat="45.40038" lon="6.51631">
        <ele>1716.4204</ele>
        <time>2021-08-21T14:19:44</time>
      </trkpt>
      <trkpt lat="45.40038" lon="6.5163">
        <ele>1716.4204</ele>
        <time>2021-08-21T14:19:45</time>
      </trkpt>
      <trkpt lat="45.40039" lon="6.51629">
        <ele>1714.8204</ele>
        <time>2021-08-21T14:20:02</time>
      </trkpt>
      <trkpt lat="45.40032" lon="6.51626">
        <ele>1714.8204</ele>
        <time>2021-08-21T14:20:13</time>
      </trkpt>
      <trkpt lat="45.40038" lon="6.51625">
        <ele>1717.5204</ele>
        <time>2021-08-21T14:20:36</time>
      </trkpt>
      <trkpt lat="45.40039" lon="6.51627">
        <ele>1717.5204</ele>
        <time>2021-08-21T14:20:39</time>
      </trkpt>
      <trkpt lat="45.40039" lon="6.51627">
        <ele>1717.5204</ele>
        <time>2021-08-21T14:20:43</time>
      </trkpt>
      <trkpt lat="45.40042" lon="6.51622">
        <ele>1717.5204</ele>
        <time>2021-08-21T14:20:45</time>
      </trkpt>
      <trkpt lat="45.40043" lon="6.5162">
        <ele>1717.5204</ele>
        <time>2021-08-21T14:20:46</time>
      </trkpt>
      <trkpt lat="45.40042" lon="6.51619">
        <ele>1717.5204</ele>
        <time>2021-08-21T14:20:47</time>
      </trkpt>
      <trkpt lat="45.40043" lon="6.51615">
        <ele>1717.5204</ele>
        <time>2021-08-21T14:20:49</time>
      </trkpt>
      <trkpt lat="45.40043" lon="6.51614">
        <ele>1717.2538</ele>
        <time>2021-08-21T14:20:54</time>
      </trkpt>
      <trkpt lat="45.40043" lon="6.51614">
        <ele>1717.2538</ele>
        <time>2021-08-21T14:20:56</time>
      </trkpt>
      <trkpt lat="45.40043" lon="6.51614">
        <ele>1717.2538</ele>
        <time>2021-08-21T14:21:00</time>
      </trkpt>
      <trkpt lat="45.40054" lon="6.51607">
        <ele>1719.4204</ele>
        <time>2021-08-21T14:21:09</time>
      </trkpt>
      <trkpt lat="45.40054" lon="6.51607">
        <ele>1719.987</ele>
        <time>2021-08-21T14:21:13</time>
      </trkpt>
      <trkpt lat="45.40079" lon="6.51609">
        <ele>1719.7871</ele>
        <time>2021-08-21T14:21:43</time>
      </trkpt>
      <trkpt lat="45.40079" lon="6.51609">
        <ele>1719.7871</ele>
        <time>2021-08-21T14:21:45</time>
      </trkpt>
      <trkpt lat="45.40079" lon="6.51609">
        <ele>1719.7871</ele>
        <time>2021-08-21T14:21:49</time>
      </trkpt>
      <trkpt lat="45.40079" lon="6.51609">
        <ele>1717.4204</ele>
        <time>2021-08-21T14:21:59</time>
      </trkpt>
      <trkpt lat="45.40079" lon="6.51609">
        <ele>1717.4204</ele>
        <time>2021-08-21T14:22:03</time>
      </trkpt>
      <trkpt lat="45.40082" lon="6.51597">
        <ele>1717.4204</ele>
        <time>2021-08-21T14:22:05</time>
      </trkpt>
      <trkpt lat="45.40084" lon="6.51595">
        <ele>1717.4204</ele>
        <time>2021-08-21T14:22:08</time>
      </trkpt>
      <trkpt lat="45.40094" lon="6.51596">
        <ele>1717.4204</ele>
        <time>2021-08-21T14:22:20</time>
      </trkpt>
      <trkpt lat="45.40095" lon="6.51597">
        <ele>1717.4204</ele>
        <time>2021-08-21T14:22:21</time>
      </trkpt>
      <trkpt lat="45.40096" lon="6.51598">
        <ele>1713.5204</ele>
        <time>2021-08-21T14:22:23</time>
      </trkpt>
      <trkpt lat="45.40096" lon="6.51598">
        <ele>1713.5204</ele>
        <time>2021-08-21T14:22:26</time>
      </trkpt>
      <trkpt lat="45.40105" lon="6.51603">
        <ele>1711.4204</ele>
        <time>2021-08-21T14:22:32</time>
      </trkpt>
      <trkpt lat="45.40109" lon="6.51604">
        <ele>1711.4204</ele>
        <time>2021-08-21T14:22:34</time>
      </trkpt>
      <trkpt lat="45.4012" lon="6.51605">
        <ele>1711.0204</ele>
        <time>2021-08-21T14:22:42</time>
      </trkpt>
      <trkpt lat="45.40122" lon="6.51604">
        <ele>1711.0204</ele>
        <time>2021-08-21T14:22:43</time>
      </trkpt>
      <trkpt lat="45.40125" lon="6.51602">
        <ele>1711.0204</ele>
        <time>2021-08-21T14:22:45</time>
      </trkpt>
      <trkpt lat="45.40127" lon="6.51601">
        <ele>1711.0204</ele>
        <time>2021-08-21T14:22:47</time>
      </trkpt>
      <trkpt lat="45.4013" lon="6.51601">
        <ele>1711.0204</ele>
        <time>2021-08-21T14:22:49</time>
      </trkpt>
      <trkpt lat="45.40132" lon="6.51599">
        <ele>1711.0204</ele>
        <time>2021-08-21T14:22:51</time>
      </trkpt>
      <trkpt lat="45.40133" lon="6.51599">
        <ele>1706.8204</ele>
        <time>2021-08-21T14:22:53</time>
      </trkpt>
      <trkpt lat="45.40131" lon="6.51599">
        <ele>1706.8204</ele>
        <time>2021-08-21T14:22:54</time>
      </trkpt>
      <trkpt lat="45.40134" lon="6.51599">
        <ele>1706.8204</ele>
        <time>2021-08-21T14:22:56</time>
      </trkpt>
      <trkpt lat="45.4014" lon="6.51598">
        <ele>1706.8204</ele>
        <time>2021-08-21T14:23:01</time>
      </trkpt>
      <trkpt lat="45.40169" lon="6.51595">
        <ele>1708.6205</ele>
        <time>2021-08-21T14:23:31</time>
      </trkpt>
      <trkpt lat="45.40181" lon="6.51593">
        <ele>1706.1205</ele>
        <time>2021-08-21T14:23:55</time>
      </trkpt>
      <trkpt lat="45.40181" lon="6.51593">
        <ele>1706.1205</ele>
        <time>2021-08-21T14:23:59</time>
      </trkpt>
      <trkpt lat="45.40181" lon="6.51593">
        <ele>1702.3204</ele>
        <time>2021-08-21T14:24:06</time>
      </trkpt>
      <trkpt lat="45.40188" lon="6.51583">
        <ele>1702.3204</ele>
        <time>2021-08-21T14:24:07</time>
      </trkpt>
      <trkpt lat="45.40189" lon="6.51582">
        <ele>1702.3204</ele>
        <time>2021-08-21T14:24:10</time>
      </trkpt>
      <trkpt lat="45.40189" lon="6.51582">
        <ele>1702.0204</ele>
        <time>2021-08-21T14:24:14</time>
      </trkpt>
      <trkpt lat="45.40189" lon="6.51582">
        <ele>1699.4204</ele>
        <time>2021-08-21T14:24:29</time>
      </trkpt>
      <trkpt lat="45.40189" lon="6.51582">
        <ele>1699.4204</ele>
        <time>2021-08-21T14:24:34</time>
      </trkpt>
      <trkpt lat="45.40199" lon="6.51589">
        <ele>1699.4204</ele>
        <time>2021-08-21T14:24:37</time>
      </trkpt>
      <trkpt lat="45.40202" lon="6.51591">
        <ele>1699.4204</ele>
        <time>2021-08-21T14:24:43</time>
      </trkpt>
      <trkpt lat="45.40212" lon="6.51594">
        <ele>1699.4204</ele>
        <time>2021-08-21T14:24:49</time>
      </trkpt>
      <trkpt lat="45.40212" lon="6.51593">
        <ele>1699.4204</ele>
        <time>2021-08-21T14:24:50</time>
      </trkpt>
      <trkpt lat="45.40215" lon="6.51595">
        <ele>1699.4204</ele>
        <time>2021-08-21T14:24:51</time>
      </trkpt>
      <trkpt lat="45.40216" lon="6.51596">
        <ele>1695.3204</ele>
        <time>2021-08-21T14:24:52</time>
      </trkpt>
      <trkpt lat="45.40221" lon="6.51597">
        <ele>1694.5204</ele>
        <time>2021-08-21T14:25:03</time>
      </trkpt>
      <trkpt lat="45.40244" lon="6.51577">
        <ele>1693.6205</ele>
        <time>2021-08-21T14:25:22</time>
      </trkpt>
      <trkpt lat="45.40244" lon="6.51576">
        <ele>1693.6205</ele>
        <time>2021-08-21T14:25:23</time>
      </trkpt>
      <trkpt lat="45.40244" lon="6.51576">
        <ele>1690.9204</ele>
        <time>2021-08-21T14:25:32</time>
      </trkpt>
      <trkpt lat="45.40244" lon="6.51576">
        <ele>1690.9204</ele>
        <time>2021-08-21T14:25:34</time>
      </trkpt>
      <trkpt lat="45.40244" lon="6.51576">
        <ele>1690.6205</ele>
        <time>2021-08-21T14:25:43</time>
      </trkpt>
      <trkpt lat="45.40254" lon="6.51568">
        <ele>1690.6205</ele>
        <time>2021-08-21T14:25:46</time>
      </trkpt>
      <trkpt lat="45.40254" lon="6.51568">
        <ele>1690.6205</ele>
        <time>2021-08-21T14:25:47</time>
      </trkpt>
      <trkpt lat="45.40254" lon="6.51566">
        <ele>1690.6205</ele>
        <time>2021-08-21T14:25:49</time>
      </trkpt>
      <trkpt lat="45.40254" lon="6.51566">
        <ele>1690.6205</ele>
        <time>2021-08-21T14:25:56</time>
      </trkpt>
      <trkpt lat="45.40254" lon="6.51566">
        <ele>1690.6205</ele>
        <time>2021-08-21T14:25:58</time>
      </trkpt>
      <trkpt lat="45.40264" lon="6.51556">
        <ele>1682.4204</ele>
        <time>2021-08-21T14:26:04</time>
      </trkpt>
      <trkpt lat="45.40273" lon="6.51557">
        <ele>1679.6205</ele>
        <time>2021-08-21T14:26:26</time>
      </trkpt>
      <trkpt lat="45.40273" lon="6.51558">
        <ele>1679.6205</ele>
        <time>2021-08-21T14:26:27</time>
      </trkpt>
      <trkpt lat="45.40274" lon="6.51558">
        <ele>1680.5204</ele>
        <time>2021-08-21T14:26:59</time>
      </trkpt>
      <trkpt lat="45.40274" lon="6.51558">
        <ele>1680.5204</ele>
        <time>2021-08-21T14:27:27</time>
      </trkpt>
      <trkpt lat="45.40274" lon="6.51558">
        <ele>1680.5204</ele>
        <time>2021-08-21T14:27:31</time>
      </trkpt>
      <trkpt lat="45.40274" lon="6.51558">
        <ele>1680.5204</ele>
        <time>2021-08-21T14:27:58</time>
      </trkpt>
      <trkpt lat="45.40274" lon="6.51558">
        <ele>1680.5204</ele>
        <time>2021-08-21T14:28:05</time>
      </trkpt>
      <trkpt lat="45.40281" lon="6.51549">
        <ele>1680.5204</ele>
        <time>2021-08-21T14:28:13</time>
      </trkpt>
      <trkpt lat="45.40282" lon="6.51549">
        <ele>1680.5204</ele>
        <time>2021-08-21T14:28:14</time>
      </trkpt>
      <trkpt lat="45.40281" lon="6.51546">
        <ele>1680.5204</ele>
        <time>2021-08-21T14:28:17</time>
      </trkpt>
      <trkpt lat="45.40291" lon="6.51542">
        <ele>1671.8204</ele>
        <time>2021-08-21T14:28:33</time>
      </trkpt>
      <trkpt lat="45.40301" lon="6.5154">
        <ele>1671.8204</ele>
        <time>2021-08-21T14:28:39</time>
      </trkpt>
      <trkpt lat="45.40303" lon="6.51539">
        <ele>1671.8204</ele>
        <time>2021-08-21T14:28:41</time>
      </trkpt>
      <trkpt lat="45.40304" lon="6.5154">
        <ele>1671.8204</ele>
        <time>2021-08-21T14:28:42</time>
      </trkpt>
      <trkpt lat="45.40306" lon="6.51539">
        <ele>1671.8204</ele>
        <time>2021-08-21T14:28:43</time>
      </trkpt>
      <trkpt lat="45.40309" lon="6.51538">
        <ele>1671.8204</ele>
        <time>2021-08-21T14:28:45</time>
      </trkpt>
      <trkpt lat="45.4031" lon="6.51538">
        <ele>1671.8204</ele>
        <time>2021-08-21T14:28:46</time>
      </trkpt>
      <trkpt lat="45.40312" lon="6.51537">
        <ele>1671.8204</ele>
        <time>2021-08-21T14:28:48</time>
      </trkpt>
      <trkpt lat="45.40329" lon="6.51526">
        <ele>1664.8204</ele>
        <time>2021-08-21T14:29:04</time>
      </trkpt>
      <trkpt lat="45.40331" lon="6.51527">
        <ele>1664.8204</ele>
        <time>2021-08-21T14:29:06</time>
      </trkpt>
      <trkpt lat="45.40332" lon="6.51527">
        <ele>1664.8204</ele>
        <time>2021-08-21T14:29:07</time>
      </trkpt>
      <trkpt lat="45.40333" lon="6.51527">
        <ele>1664.8204</ele>
        <time>2021-08-21T14:29:08</time>
      </trkpt>
      <trkpt lat="45.40342" lon="6.51522">
        <ele>1664.2205</ele>
        <time>2021-08-21T14:29:18</time>
      </trkpt>
      <trkpt lat="45.4035" lon="6.51518">
        <ele>1662.9204</ele>
        <time>2021-08-21T14:29:24</time>
      </trkpt>
      <trkpt lat="45.40355" lon="6.51514">
        <ele>1662.9204</ele>
        <time>2021-08-21T14:29:30</time>
      </trkpt>
      <trkpt lat="45.40356" lon="6.51514">
        <ele>1664.4204</ele>
        <time>2021-08-21T14:29:32</time>
      </trkpt>
      <trkpt lat="45.40359" lon="6.5151">
        <ele>1664.4204</ele>
        <time>2021-08-21T14:29:38</time>
      </trkpt>
      <trkpt lat="45.40361" lon="6.51508">
        <ele>1664.7205</ele>
        <time>2021-08-21T14:29:41</time>
      </trkpt>
      <trkpt lat="45.40369" lon="6.51506">
        <ele>1664.7205</ele>
        <time>2021-08-21T14:29:49</time>
      </trkpt>
      <trkpt lat="45.40372" lon="6.51507">
        <ele>1663.987</ele>
        <time>2021-08-21T14:29:51</time>
      </trkpt>
      <trkpt lat="45.40374" lon="6.51507">
        <ele>1663.987</ele>
        <time>2021-08-21T14:29:53</time>
      </trkpt>
      <trkpt lat="45.40376" lon="6.51507">
        <ele>1663.987</ele>
        <time>2021-08-21T14:29:55</time>
      </trkpt>
      <trkpt lat="45.40377" lon="6.51507">
        <ele>1663.987</ele>
        <time>2021-08-21T14:29:56</time>
      </trkpt>
      <trkpt lat="45.40379" lon="6.51507">
        <ele>1663.987</ele>
        <time>2021-08-21T14:29:58</time>
      </trkpt>
      <trkpt lat="45.4038" lon="6.51507">
        <ele>1663.987</ele>
        <time>2021-08-21T14:29:59</time>
      </trkpt>
      <trkpt lat="45.40383" lon="6.51506">
        <ele>1664.0204</ele>
        <time>2021-08-21T14:30:02</time>
      </trkpt>
      <trkpt lat="45.40385" lon="6.51505">
        <ele>1664.0204</ele>
        <time>2021-08-21T14:30:04</time>
      </trkpt>
      <trkpt lat="45.40386" lon="6.51504">
        <ele>1664.0204</ele>
        <time>2021-08-21T14:30:05</time>
      </trkpt>
      <trkpt lat="45.40387" lon="6.51503">
        <ele>1664.0204</ele>
        <time>2021-08-21T14:30:06</time>
      </trkpt>
      <trkpt lat="45.40388" lon="6.51503">
        <ele>1664.0204</ele>
        <time>2021-08-21T14:30:08</time>
      </trkpt>
      <trkpt lat="45.40391" lon="6.51501">
        <ele>1663.7205</ele>
        <time>2021-08-21T14:30:11</time>
      </trkpt>
      <trkpt lat="45.40394" lon="6.51503">
        <ele>1663.7205</ele>
        <time>2021-08-21T14:30:14</time>
      </trkpt>
      <trkpt lat="45.40395" lon="6.51502">
        <ele>1663.7205</ele>
        <time>2021-08-21T14:30:15</time>
      </trkpt>
      <trkpt lat="45.40397" lon="6.51499">
        <ele>1663.7205</ele>
        <time>2021-08-21T14:30:17</time>
      </trkpt>
      <trkpt lat="45.40399" lon="6.51496">
        <ele>1662.3204</ele>
        <time>2021-08-21T14:30:21</time>
      </trkpt>
      <trkpt lat="45.404" lon="6.51495">
        <ele>1662.3204</ele>
        <time>2021-08-21T14:30:22</time>
      </trkpt>
      <trkpt lat="45.40402" lon="6.51493">
        <ele>1662.3204</ele>
        <time>2021-08-21T14:30:25</time>
      </trkpt>
      <trkpt lat="45.40404" lon="6.5149">
        <ele>1662.3204</ele>
        <time>2021-08-21T14:30:27</time>
      </trkpt>
      <trkpt lat="45.40408" lon="6.51486">
        <ele>1661.7205</ele>
        <time>2021-08-21T14:30:32</time>
      </trkpt>
      <trkpt lat="45.40409" lon="6.51484">
        <ele>1661.7205</ele>
        <time>2021-08-21T14:30:34</time>
      </trkpt>
      <trkpt lat="45.4041" lon="6.51483">
        <ele>1661.7205</ele>
        <time>2021-08-21T14:30:35</time>
      </trkpt>
      <trkpt lat="45.4041" lon="6.51482">
        <ele>1661.7205</ele>
        <time>2021-08-21T14:30:36</time>
      </trkpt>
      <trkpt lat="45.40411" lon="6.51481">
        <ele>1661.7205</ele>
        <time>2021-08-21T14:30:37</time>
      </trkpt>
      <trkpt lat="45.40412" lon="6.5148">
        <ele>1661.7205</ele>
        <time>2021-08-21T14:30:39</time>
      </trkpt>
      <trkpt lat="45.40413" lon="6.5148">
        <ele>1661.7205</ele>
        <time>2021-08-21T14:30:40</time>
      </trkpt>
      <trkpt lat="45.40415" lon="6.5148">
        <ele>1659.9204</ele>
        <time>2021-08-21T14:30:41</time>
      </trkpt>
      <trkpt lat="45.40417" lon="6.5148">
        <ele>1659.9204</ele>
        <time>2021-08-21T14:30:43</time>
      </trkpt>
      <trkpt lat="45.40419" lon="6.51479">
        <ele>1659.9204</ele>
        <time>2021-08-21T14:30:45</time>
      </trkpt>
      <trkpt lat="45.4042" lon="6.51481">
        <ele>1659.9204</ele>
        <time>2021-08-21T14:30:46</time>
      </trkpt>
      <trkpt lat="45.4043" lon="6.5148">
        <ele>1656.5204</ele>
        <time>2021-08-21T14:30:59</time>
      </trkpt>
      <trkpt lat="45.40431" lon="6.5148">
        <ele>1656.5204</ele>
        <time>2021-08-21T14:31:01</time>
      </trkpt>
      <trkpt lat="45.40436" lon="6.51478">
        <ele>1656.5204</ele>
        <time>2021-08-21T14:31:05</time>
      </trkpt>
      <trkpt lat="45.40435" lon="6.51473">
        <ele>1656.5204</ele>
        <time>2021-08-21T14:31:06</time>
      </trkpt>
      <trkpt lat="45.40437" lon="6.51471">
        <ele>1656.5204</ele>
        <time>2021-08-21T14:31:08</time>
      </trkpt>
      <trkpt lat="45.40438" lon="6.5147">
        <ele>1656.5204</ele>
        <time>2021-08-21T14:31:09</time>
      </trkpt>
      <trkpt lat="45.40438" lon="6.51469">
        <ele>1656.5204</ele>
        <time>2021-08-21T14:31:10</time>
      </trkpt>
      <trkpt lat="45.4044" lon="6.51468">
        <ele>1649.487</ele>
        <time>2021-08-21T14:31:12</time>
      </trkpt>
      <trkpt lat="45.40455" lon="6.51445">
        <ele>1646.9204</ele>
        <time>2021-08-21T14:31:31</time>
      </trkpt>
      <trkpt lat="45.40473" lon="6.51427">
        <ele>1643.6205</ele>
        <time>2021-08-21T14:32:01</time>
      </trkpt>
      <trkpt lat="45.40483" lon="6.51401">
        <ele>1639.5204</ele>
        <time>2021-08-21T14:32:31</time>
      </trkpt>
      <trkpt lat="45.40494" lon="6.51357">
        <ele>1635.9204</ele>
        <time>2021-08-21T14:33:01</time>
      </trkpt>
      <trkpt lat="45.40484" lon="6.5134">
        <ele>1634.3204</ele>
        <time>2021-08-21T14:33:20</time>
      </trkpt>
      <trkpt lat="45.4048" lon="6.51309">
        <ele>1629.7205</ele>
        <time>2021-08-21T14:33:50</time>
      </trkpt>
      <trkpt lat="45.4047" lon="6.51267">
        <ele>1624.5204</ele>
        <time>2021-08-21T14:34:20</time>
      </trkpt>
      <trkpt lat="45.40471" lon="6.51236">
        <ele>1617.1205</ele>
        <time>2021-08-21T14:34:50</time>
      </trkpt>
      <trkpt lat="45.40473" lon="6.51216">
        <ele>1610.3204</ele>
        <time>2021-08-21T14:35:08</time>
      </trkpt>
      <trkpt lat="45.40481" lon="6.51172">
        <ele>1605.6205</ele>
        <time>2021-08-21T14:35:38</time>
      </trkpt>
      <trkpt lat="45.40488" lon="6.51165">
        <ele>1600.3204</ele>
        <time>2021-08-21T14:36:08</time>
      </trkpt>
      <trkpt lat="45.40488" lon="6.51158">
        <ele>1600.3204</ele>
        <time>2021-08-21T14:36:12</time>
      </trkpt>
      <trkpt lat="45.40491" lon="6.51145">
        <ele>1600.3204</ele>
        <time>2021-08-21T14:36:18</time>
      </trkpt>
      <trkpt lat="45.40489" lon="6.51134">
        <ele>1601.3871</ele>
        <time>2021-08-21T14:36:22</time>
      </trkpt>
      <trkpt lat="45.40491" lon="6.51131">
        <ele>1601.3871</ele>
        <time>2021-08-21T14:36:24</time>
      </trkpt>
      <trkpt lat="45.40491" lon="6.5113">
        <ele>1601.3871</ele>
        <time>2021-08-21T14:36:26</time>
      </trkpt>
      <trkpt lat="45.40493" lon="6.51126">
        <ele>1601.3871</ele>
        <time>2021-08-21T14:36:30</time>
      </trkpt>
      <trkpt lat="45.40493" lon="6.51125">
        <ele>1601.9204</ele>
        <time>2021-08-21T14:36:36</time>
      </trkpt>
      <trkpt lat="45.40496" lon="6.51119">
        <ele>1601.9204</ele>
        <time>2021-08-21T14:36:37</time>
      </trkpt>
      <trkpt lat="45.40497" lon="6.51118">
        <ele>1601.9204</ele>
        <time>2021-08-21T14:36:38</time>
      </trkpt>
      <trkpt lat="45.40499" lon="6.5111">
        <ele>1602.7205</ele>
        <time>2021-08-21T14:36:43</time>
      </trkpt>
      <trkpt lat="45.405" lon="6.51107">
        <ele>1602.7205</ele>
        <time>2021-08-21T14:36:45</time>
      </trkpt>
      <trkpt lat="45.40501" lon="6.51105">
        <ele>1602.7205</ele>
        <time>2021-08-21T14:36:47</time>
      </trkpt>
      <trkpt lat="45.40502" lon="6.511">
        <ele>1602.7205</ele>
        <time>2021-08-21T14:36:50</time>
      </trkpt>
      <trkpt lat="45.40502" lon="6.51098">
        <ele>1603.0204</ele>
        <time>2021-08-21T14:36:52</time>
      </trkpt>
      <trkpt lat="45.40503" lon="6.51097">
        <ele>1603.0204</ele>
        <time>2021-08-21T14:36:53</time>
      </trkpt>
      <trkpt lat="45.40504" lon="6.51096">
        <ele>1603.0204</ele>
        <time>2021-08-21T14:36:55</time>
      </trkpt>
      <trkpt lat="45.40505" lon="6.51095">
        <ele>1603.0204</ele>
        <time>2021-08-21T14:36:56</time>
      </trkpt>
      <trkpt lat="45.40505" lon="6.51094">
        <ele>1603.0204</ele>
        <time>2021-08-21T14:36:57</time>
      </trkpt>
      <trkpt lat="45.40505" lon="6.51094">
        <ele>1602.5204</ele>
        <time>2021-08-21T14:37:04</time>
      </trkpt>
      <trkpt lat="45.40505" lon="6.51094">
        <ele>1602.5204</ele>
        <time>2021-08-21T14:37:06</time>
      </trkpt>
      <trkpt lat="45.40513" lon="6.51086">
        <ele>1602.5204</ele>
        <time>2021-08-21T14:37:10</time>
      </trkpt>
      <trkpt lat="45.40514" lon="6.51085">
        <ele>1602.5204</ele>
        <time>2021-08-21T14:37:11</time>
      </trkpt>
      <trkpt lat="45.40515" lon="6.51084">
        <ele>1601.6205</ele>
        <time>2021-08-21T14:37:12</time>
      </trkpt>
      <trkpt lat="45.40516" lon="6.51084">
        <ele>1601.6205</ele>
        <time>2021-08-21T14:37:13</time>
      </trkpt>
      <trkpt lat="45.40518" lon="6.51083">
        <ele>1601.6205</ele>
        <time>2021-08-21T14:37:15</time>
      </trkpt>
      <trkpt lat="45.4052" lon="6.51083">
        <ele>1601.6205</ele>
        <time>2021-08-21T14:37:17</time>
      </trkpt>
      <trkpt lat="45.40521" lon="6.51083">
        <ele>1601.6205</ele>
        <time>2021-08-21T14:37:18</time>
      </trkpt>
      <trkpt lat="45.40537" lon="6.51073">
        <ele>1604.5537</ele>
        <time>2021-08-21T14:37:48</time>
      </trkpt>
      <trkpt lat="45.40537" lon="6.51073">
        <ele>1604.7205</ele>
        <time>2021-08-21T14:37:58</time>
      </trkpt>
      <trkpt lat="45.40537" lon="6.51073">
        <ele>1604.7205</ele>
        <time>2021-08-21T14:38:24</time>
      </trkpt>
      <trkpt lat="45.40537" lon="6.51073">
        <ele>1604.7205</ele>
        <time>2021-08-21T14:38:28</time>
      </trkpt>
      <trkpt lat="45.40541" lon="6.51071">
        <ele>1604.7205</ele>
        <time>2021-08-21T14:38:30</time>
      </trkpt>
      <trkpt lat="45.40544" lon="6.51069">
        <ele>1604.7205</ele>
        <time>2021-08-21T14:38:32</time>
      </trkpt>
      <trkpt lat="45.40544" lon="6.51069">
        <ele>1604.7205</ele>
        <time>2021-08-21T14:38:33</time>
      </trkpt>
      <trkpt lat="45.40546" lon="6.51053">
        <ele>1602.7205</ele>
        <time>2021-08-21T14:38:42</time>
      </trkpt>
      <trkpt lat="45.40545" lon="6.51048">
        <ele>1602.7205</ele>
        <time>2021-08-21T14:38:45</time>
      </trkpt>
      <trkpt lat="45.40546" lon="6.51047">
        <ele>1602.7205</ele>
        <time>2021-08-21T14:38:46</time>
      </trkpt>
      <trkpt lat="45.40546" lon="6.51046">
        <ele>1602.7205</ele>
        <time>2021-08-21T14:38:47</time>
      </trkpt>
      <trkpt lat="45.40546" lon="6.51045">
        <ele>1602.7205</ele>
        <time>2021-08-21T14:38:48</time>
      </trkpt>
      <trkpt lat="45.40546" lon="6.51038">
        <ele>1602.2205</ele>
        <time>2021-08-21T14:38:53</time>
      </trkpt>
      <trkpt lat="45.40546" lon="6.51035">
        <ele>1602.2205</ele>
        <time>2021-08-21T14:38:54</time>
      </trkpt>
      <trkpt lat="45.40542" lon="6.51001">
        <ele>1601.2205</ele>
        <time>2021-08-21T14:39:21</time>
      </trkpt>
      <trkpt lat="45.40541" lon="6.50997">
        <ele>1599.4204</ele>
        <time>2021-08-21T14:39:23</time>
      </trkpt>
      <trkpt lat="45.40517" lon="6.50972">
        <ele>1598.0872</ele>
        <time>2021-08-21T14:39:53</time>
      </trkpt>
      <trkpt lat="45.40522" lon="6.50945">
        <ele>1597.2205</ele>
        <time>2021-08-21T14:40:12</time>
      </trkpt>
      <trkpt lat="45.40544" lon="6.5092">
        <ele>1591.3204</ele>
        <time>2021-08-21T14:40:42</time>
      </trkpt>
      <trkpt lat="45.40576" lon="6.5092">
        <ele>1586.5204</ele>
        <time>2021-08-21T14:41:12</time>
      </trkpt>
      <trkpt lat="45.40591" lon="6.50923">
        <ele>1584.8204</ele>
        <time>2021-08-21T14:41:25</time>
      </trkpt>
      <trkpt lat="45.40593" lon="6.50924">
        <ele>1584.8204</ele>
        <time>2021-08-21T14:41:26</time>
      </trkpt>
      <trkpt lat="45.40613" lon="6.50927">
        <ele>1580.3204</ele>
        <time>2021-08-21T14:41:56</time>
      </trkpt>
      <trkpt lat="45.40633" lon="6.5092">
        <ele>1580.3204</ele>
        <time>2021-08-21T14:42:04</time>
      </trkpt>
      <trkpt lat="45.40644" lon="6.50914">
        <ele>1577.0204</ele>
        <time>2021-08-21T14:42:34</time>
      </trkpt>
      <trkpt lat="45.40672" lon="6.50896">
        <ele>1576.2205</ele>
        <time>2021-08-21T14:43:00</time>
      </trkpt>
      <trkpt lat="45.40654" lon="6.50895">
        <ele>1574.7205</ele>
        <time>2021-08-21T14:43:30</time>
      </trkpt>
      <trkpt lat="45.40664" lon="6.5089">
        <ele>1574.2205</ele>
        <time>2021-08-21T14:43:40</time>
      </trkpt>
      <trkpt lat="45.40667" lon="6.50891">
        <ele>1574.2205</ele>
        <time>2021-08-21T14:43:41</time>
      </trkpt>
      <trkpt lat="45.4067" lon="6.5089">
        <ele>1574.2205</ele>
        <time>2021-08-21T14:43:42</time>
      </trkpt>
      <trkpt lat="45.4067" lon="6.50889">
        <ele>1574.2205</ele>
        <time>2021-08-21T14:43:45</time>
      </trkpt>
      <trkpt lat="45.4067" lon="6.50889">
        <ele>1573.7205</ele>
        <time>2021-08-21T14:44:02</time>
      </trkpt>
      <trkpt lat="45.40662" lon="6.50883">
        <ele>1573.7205</ele>
        <time>2021-08-21T14:44:10</time>
      </trkpt>
      <trkpt lat="45.40661" lon="6.50882">
        <ele>1573.7205</ele>
        <time>2021-08-21T14:44:11</time>
      </trkpt>
      <trkpt lat="45.40661" lon="6.50882">
        <ele>1573.7205</ele>
        <time>2021-08-21T14:44:12</time>
      </trkpt>
      <trkpt lat="45.4066" lon="6.50881">
        <ele>1573.7205</ele>
        <time>2021-08-21T14:44:13</time>
      </trkpt>
      <trkpt lat="45.4066" lon="6.50881">
        <ele>1573.0204</ele>
        <time>2021-08-21T14:44:43</time>
      </trkpt>
      <trkpt lat="45.40668" lon="6.5089">
        <ele>1573.0204</ele>
        <time>2021-08-21T14:44:46</time>
      </trkpt>
      <trkpt lat="45.40668" lon="6.5089">
        <ele>1573.0204</ele>
        <time>2021-08-21T14:44:47</time>
      </trkpt>
      <trkpt lat="45.40666" lon="6.50889">
        <ele>1573.0204</ele>
        <time>2021-08-21T14:44:49</time>
      </trkpt>
      <trkpt lat="45.40672" lon="6.50898">
        <ele>1572.1205</ele>
        <time>2021-08-21T14:45:07</time>
      </trkpt>
      <trkpt lat="45.40673" lon="6.50899">
        <ele>1572.1205</ele>
        <time>2021-08-21T14:45:08</time>
      </trkpt>
      <trkpt lat="45.40674" lon="6.509">
        <ele>1572.1205</ele>
        <time>2021-08-21T14:45:09</time>
      </trkpt>
      <trkpt lat="45.40674" lon="6.50901">
        <ele>1572.1205</ele>
        <time>2021-08-21T14:45:10</time>
      </trkpt>
      <trkpt lat="45.40688" lon="6.50902">
        <ele>1568.4537</ele>
        <time>2021-08-21T14:45:24</time>
      </trkpt>
      <trkpt lat="45.40703" lon="6.509">
        <ele>1567.4204</ele>
        <time>2021-08-21T14:45:41</time>
      </trkpt>
      <trkpt lat="45.40724" lon="6.50899">
        <ele>1565.7205</ele>
        <time>2021-08-21T14:45:59</time>
      </trkpt>
      <trkpt lat="45.40736" lon="6.50896">
        <ele>1563.1205</ele>
        <time>2021-08-21T14:46:29</time>
      </trkpt>
      <trkpt lat="45.40752" lon="6.50866">
        <ele>1556.6205</ele>
        <time>2021-08-21T14:46:59</time>
      </trkpt>
      <trkpt lat="45.40761" lon="6.50827">
        <ele>1553.1205</ele>
        <time>2021-08-21T14:47:28</time>
      </trkpt>
      <trkpt lat="45.40763" lon="6.50802">
        <ele>1548.8204</ele>
        <time>2021-08-21T14:47:42</time>
      </trkpt>
      <trkpt lat="45.40765" lon="6.50794">
        <ele>1548.8204</ele>
        <time>2021-08-21T14:47:46</time>
      </trkpt>
      <trkpt lat="45.40779" lon="6.5079">
        <ele>1547.3204</ele>
        <time>2021-08-21T14:48:16</time>
      </trkpt>
      <trkpt lat="45.40779" lon="6.5079">
        <ele>1546.5204</ele>
        <time>2021-08-21T14:48:46</time>
      </trkpt>
      <trkpt lat="45.40779" lon="6.5079">
        <ele>1546.5204</ele>
        <time>2021-08-21T14:48:53</time>
      </trkpt>
      <trkpt lat="45.40779" lon="6.5079">
        <ele>1546.5204</ele>
        <time>2021-08-21T14:48:59</time>
      </trkpt>
      <trkpt lat="45.40788" lon="6.50788">
        <ele>1546.5204</ele>
        <time>2021-08-21T14:49:29</time>
      </trkpt>
    </trkseg>
  </trk>
</gpx>